[[{"header":{"parameterUnit":"m.s-1","parameterCategory":1,"la1":30.6,"la2":29.2853,"lo1":-89.7004,"lo2":-87.6739,"dy":0.0162,"dx":0.0183,"nx":112,"ny":82,"refTime":"2024-06-28T12:00:00:Z","depth":0,"parameterNumber":2,"parameterNumberName":"U-component_of_WINDS"},"data":[0.0,0.0,0.0,0.0,0.0,0.0,0.0,0.0,0.0,0.0,0.0,0.0,0.0,0.0,0.0,0.0,0.0,0.0,0.0,0.0,0.0,0.0,0.0,0.0,0.0,0.0,0.0,0.0,0.0,0.0,0.0,0.0,0.0,0.0,0.0,0.0,0.0,0.0,0.0,0.0,0.0,0.0,0.0,0.0,0.0,0.0,0.0,0.0,0.0,0.0,0.0,0.0,0.0,0.0,0.0,0.0,0.0,0.0,0.0,0.0,0.0,0.0,0.0,0.0,0.0,0.0,0.0,0.0,0.0,0.0,0.0,0.0,0.0,0.0,0.0,0.0,0.0,0.0,0.0,0.0,0.0,0.0,0.0,0.0,0.0,0.0,0.0,0.0,0.0,0.0,-3.8227,-3.9073,-3.974,-4.0096,-4.0096,-3.9893,-3.8616,-3.5938,0.0,0.0,0.0,0.0,0.0,0.0,0.0,0.0,0.0,0.0,0.0,0.0,0.0,0.0,0.0,0.0,0.0,0.0,0.0,0.0,0.0,0.0,0.0,0.0,0.0,0.0,0.0,0.0,0.0,0.0,0.0,0.0,0.0,0.0,0.0,0.0,0.0,0.0,0.0,0.0,0.0,0.0,0.0,0.0,0.0,0.0,0.0,0.0,0.0,0.0,0.0,0.0,0.0,0.0,0.0,0.0,0.0,0.0,0.0,0.0,0.0,0.0,0.0,0.0,0.0,0.0,0.0,0.0,0.0,0.0,0.0,0.0,0.0,0.0,0.0,0.0,0.0,0.0,0.0,0.0,0.0,0.0,0.0,0.0,0.0,0.0,0.0,0.0,0.0,0.0,0.0,0.0,0.0,0.0,0.0,0.0,0.0,0.0,0.0,0.0,0.0,0.0,0.0,0.0,-3.8413,-3.9791,-4.0028,-4.0096,-4.0096,-3.8937,-3.777,-3.6694,0.0,0.0,0.0,0.0,0.0,0.0,0.0,0.0,0.0,0.0,0.0,0.0,0.0,0.0,0.0,0.0,0.0,0.0,0.0,0.0,0.0,0.0,0.0,0.0,0.0,0.0,0.0,0.0,0.0,0.0,0.0,0.0,0.0,0.0,0.0,0.0,0.0,0.0,0.0,0.0,0.0,0.0,0.0,0.0,0.0,0.0,0.0,0.0,0.0,0.0,0.0,0.0,0.0,0.0,0.0,0.0,0.0,0.0,0.0,0.0,0.0,0.0,0.0,0.0,0.0,0.0,0.0,0.0,0.0,0.0,0.0,0.0,0.0,0.0,0.0,0.0,0.0,0.0,0.0,0.0,0.0,0.0,0.0,0.0,0.0,0.0,0.0,0.0,0.0,0.0,0.0,0.0,0.0,0.0,0.0,0.0,0.0,0.0,0.0,0.0,0.0,0.0,0.0,-3.8058,-3.8903,-3.9994,-4.0368,-4.0417,-4.0121,-3.9395,-3.8128,-3.6271,-3.5436,0.0,0.0,0.0,0.0,0.0,0.0,0.0,0.0,0.0,0.0,0.0,0.0,0.0,0.0,0.0,0.0,0.0,0.0,0.0,0.0,0.0,0.0,0.0,0.0,0.0,0.0,0.0,0.0,0.0,0.0,0.0,0.0,0.0,0.0,0.0,0.0,0.0,0.0,0.0,0.0,0.0,0.0,0.0,0.0,0.0,0.0,0.0,0.0,0.0,0.0,0.0,0.0,0.0,0.0,0.0,0.0,0.0,0.0,0.0,0.0,0.0,0.0,0.0,0.0,0.0,0.0,0.0,0.0,0.0,0.0,0.0,0.0,0.0,0.0,0.0,0.0,0.0,0.0,0.0,0.0,0.0,0.0,0.0,0.0,0.0,0.0,0.0,0.0,0.0,0.0,0.0,0.0,0.0,0.0,0.0,0.0,0.0,0.0,0.0,0.0,0.0,0.0,-3.9039,-3.9486,-4.0045,-4.0577,-4.0733,-4.0336,-3.968,-3.8289,-3.5973,-3.466,0.0,0.0,0.0,0.0,0.0,0.0,0.0,0.0,0.0,0.0,0.0,0.0,0.0,0.0,0.0,0.0,0.0,0.0,0.0,0.0,0.0,0.0,0.0,0.0,0.0,0.0,0.0,0.0,0.0,0.0,0.0,0.0,0.0,0.0,0.0,0.0,0.0,0.0,0.0,0.0,0.0,0.0,0.0,0.0,0.0,0.0,0.0,0.0,0.0,0.0,0.0,0.0,0.0,0.0,0.0,0.0,0.0,0.0,0.0,0.0,0.0,0.0,0.0,0.0,0.0,0.0,0.0,0.0,0.0,0.0,0.0,0.0,0.0,0.0,0.0,0.0,0.0,0.0,0.0,0.0,0.0,0.0,0.0,0.0,0.0,0.0,0.0,0.0,0.0,0.0,0.0,0.0,0.0,0.0,0.0,0.0,0.0,0.0,0.0,0.0,0.0,0.0,-3.9157,-4.0045,-4.0096,-4.0577,-4.088,-4.085,-3.895,-3.738,-3.6495,-3.3929,0.0,0.0,0.0,0.0,0.0,0.0,0.0,0.0,0.0,0.0,0.0,0.0,0.0,0.0,0.0,0.0,0.0,0.0,0.0,0.0,0.0,0.0,0.0,0.0,0.0,0.0,0.0,0.0,0.0,0.0,0.0,0.0,0.0,0.0,0.0,0.0,0.0,0.0,0.0,0.0,0.0,0.0,0.0,0.0,0.0,0.0,0.0,0.0,0.0,0.0,0.0,0.0,0.0,0.0,0.0,0.0,0.0,0.0,0.0,0.0,0.0,0.0,0.0,0.0,0.0,0.0,0.0,0.0,0.0,0.0,0.0,0.0,0.0,0.0,0.0,0.0,0.0,0.0,0.0,0.0,0.0,0.0,0.0,0.0,0.0,0.0,0.0,0.0,0.0,0.0,0.0,0.0,0.0,0.0,0.0,0.0,0.0,0.0,0.0,0.0,0.0,0.0,-3.8785,-3.9605,-4.0045,-4.0577,-4.0903,-4.0903,-3.9302,-3.7783,-3.6591,0.0,0.0,0.0,0.0,0.0,0.0,0.0,0.0,0.0,0.0,0.0,0.0,0.0,0.0,0.0,0.0,0.0,0.0,0.0,0.0,0.0,0.0,0.0,0.0,0.0,0.0,0.0,0.0,0.0,0.0,0.0,0.0,0.0,0.0,0.0,0.0,0.0,0.0,0.0,0.0,0.0,0.0,0.0,0.0,0.0,0.0,0.0,0.0,0.0,0.0,0.0,0.0,0.0,0.0,0.0,0.0,0.0,0.0,0.0,0.0,0.0,0.0,0.0,0.0,0.0,0.0,0.0,0.0,0.0,0.0,0.0,0.0,0.0,0.0,0.0,0.0,0.0,0.0,0.0,0.0,0.0,0.0,0.0,0.0,0.0,0.0,0.0,0.0,0.0,0.0,0.0,0.0,0.0,0.0,0.0,0.0,0.0,0.0,0.0,0.0,0.0,0.0,-3.7652,-3.8751,-3.9529,-4.0045,-4.0577,-4.0816,-4.0574,-3.9197,-3.7731,-3.6244,0.0,0.0,0.0,0.0,0.0,0.0,0.0,0.0,0.0,0.0,0.0,0.0,0.0,0.0,0.0,0.0,0.0,0.0,0.0,0.0,0.0,0.0,0.0,0.0,0.0,0.0,0.0,0.0,0.0,0.0,0.0,0.0,0.0,0.0,0.0,0.0,0.0,0.0,0.0,0.0,0.0,0.0,0.0,0.0,0.0,0.0,0.0,0.0,0.0,0.0,0.0,0.0,0.0,0.0,0.0,0.0,0.0,0.0,0.0,0.0,0.0,0.0,0.0,0.0,0.0,0.0,0.0,0.0,0.0,0.0,0.0,0.0,0.0,0.0,0.0,0.0,0.0,0.0,0.0,0.0,0.0,0.0,0.0,0.0,0.0,0.0,0.0,0.0,0.0,0.0,0.0,0.0,0.0,0.0,0.0,0.0,0.0,0.0,0.0,0.0,0.0,0.0,-3.7702,-3.9174,-4.0096,-4.0096,-4.0577,-4.0591,-3.9863,-3.8452,-3.6967,0.0,0.0,0.0,0.0,0.0,0.0,0.0,0.0,0.0,0.0,0.0,0.0,0.0,0.0,0.0,0.0,0.0,0.0,0.0,0.0,0.0,0.0,0.0,0.0,0.0,0.0,0.0,0.0,0.0,0.0,0.0,0.0,0.0,0.0,0.0,0.0,0.0,0.0,0.0,0.0,0.0,0.0,0.0,0.0,0.0,0.0,0.0,0.0,0.0,0.0,0.0,0.0,0.0,0.0,0.0,0.0,0.0,0.0,0.0,0.0,0.0,0.0,0.0,0.0,0.0,0.0,0.0,0.0,0.0,0.0,0.0,0.0,0.0,0.0,0.0,0.0,0.0,0.0,0.0,0.0,0.0,0.0,0.0,0.0,0.0,0.0,0.0,0.0,0.0,0.0,0.0,0.0,0.0,0.0,0.0,0.0,0.0,0.0,0.0,0.0,0.0,0.0,0.0,-3.7702,-3.9174,-4.0096,-4.0096,-4.0254,-4.0189,-3.9841,-3.8563,-3.7112,-3.5494,0.0,0.0,0.0,0.0,0.0,0.0,0.0,0.0,0.0,0.0,0.0,0.0,0.0,0.0,0.0,0.0,0.0,0.0,0.0,0.0,0.0,0.0,0.0,0.0,0.0,0.0,0.0,0.0,0.0,0.0,0.0,0.0,0.0,0.0,0.0,0.0,0.0,0.0,0.0,0.0,0.0,0.0,0.0,0.0,0.0,0.0,0.0,0.0,0.0,0.0,0.0,0.0,0.0,0.0,0.0,0.0,0.0,0.0,0.0,0.0,0.0,0.0,0.0,0.0,0.0,0.0,0.0,0.0,0.0,0.0,0.0,0.0,0.0,0.0,0.0,0.0,0.0,0.0,0.0,0.0,0.0,0.0,0.0,0.0,0.0,0.0,0.0,0.0,0.0,0.0,0.0,0.0,0.0,0.0,0.0,0.0,0.0,0.0,0.0,0.0,0.0,0.0,-3.7702,-3.9174,-3.9994,-3.9706,-3.9673,-3.9363,-3.8671,-3.7904,-3.665,-3.4716,0.0,0.0,0.0,0.0,0.0,0.0,0.0,0.0,0.0,0.0,0.0,0.0,0.0,0.0,0.0,0.0,0.0,0.0,0.0,0.0,0.0,0.0,0.0,0.0,0.0,0.0,0.0,0.0,0.0,0.0,0.0,0.0,0.0,0.0,0.0,0.0,0.0,0.0,0.0,0.0,0.0,0.0,0.0,0.0,0.0,0.0,0.0,0.0,0.0,0.0,0.0,0.0,0.0,0.0,0.0,0.0,0.0,0.0,0.0,0.0,0.0,0.0,0.0,0.0,0.0,0.0,0.0,0.0,0.0,0.0,0.0,0.0,0.0,0.0,0.0,0.0,0.0,0.0,0.0,0.0,0.0,0.0,0.0,0.0,0.0,0.0,0.0,0.0,0.0,0.0,0.0,0.0,0.0,0.0,0.0,0.0,0.0,0.0,0.0,0.0,0.0,0.0,-3.7702,-3.9123,-3.974,-3.9056,-3.8937,-3.8328,-3.6931,-3.6795,-3.5864,-3.3643,0.0,0.0,0.0,0.0,0.0,0.0,0.0,0.0,0.0,0.0,0.0,0.0,0.0,0.0,0.0,0.0,0.0,0.0,0.0,0.0,0.0,0.0,0.0,0.0,0.0,0.0,0.0,0.0,0.0,0.0,0.0,0.0,0.0,0.0,0.0,0.0,0.0,0.0,0.0,0.0,0.0,0.0,0.0,0.0,0.0,0.0,0.0,0.0,0.0,0.0,0.0,0.0,0.0,0.0,0.0,0.0,0.0,0.0,0.0,0.0,-3.6728,0.0,0.0,0.0,0.0,0.0,0.0,0.0,0.0,0.0,0.0,0.0,0.0,0.0,0.0,0.0,0.0,0.0,0.0,0.0,0.0,0.0,0.0,0.0,0.0,0.0,0.0,0.0,0.0,0.0,0.0,0.0,0.0,0.0,0.0,0.0,0.0,0.0,0.0,0.0,0.0,0.0,-3.7702,-3.8684,-3.9157,-3.9005,-3.8481,-3.777,-3.688,-3.6795,-3.6084,-3.437,-3.3575,0.0,0.0,0.0,0.0,0.0,0.0,0.0,0.0,0.0,0.0,0.0,0.0,0.0,0.0,0.0,0.0,0.0,0.0,0.0,0.0,0.0,0.0,0.0,0.0,0.0,0.0,0.0,0.0,0.0,0.0,0.0,0.0,0.0,0.0,0.0,0.0,0.0,0.0,0.0,0.0,0.0,0.0,0.0,0.0,0.0,0.0,0.0,0.0,0.0,0.0,0.0,0.0,0.0,0.0,0.0,0.0,0.0,0.0,0.0,0.0,-3.8058,0.0,0.0,0.0,0.0,0.0,0.0,0.0,0.0,0.0,0.0,0.0,0.0,0.0,0.0,0.0,0.0,0.0,0.0,0.0,0.0,0.0,0.0,0.0,0.0,0.0,0.0,0.0,0.0,0.0,0.0,0.0,0.0,0.0,0.0,0.0,0.0,0.0,0.0,0.0,0.0,-3.7263,-3.8311,-3.8717,-3.8031,-3.7584,-3.706,-3.6282,-3.6214,-3.5723,-3.4556,-3.3474,0.0,0.0,0.0,0.0,0.0,0.0,0.0,0.0,0.0,0.0,0.0,0.0,0.0,0.0,0.0,0.0,0.0,0.0,0.0,0.0,0.0,0.0,0.0,0.0,0.0,0.0,0.0,0.0,0.0,0.0,0.0,0.0,0.0,0.0,0.0,0.0,0.0,0.0,0.0,0.0,0.0,0.0,0.0,0.0,0.0,0.0,0.0,0.0,0.0,0.0,0.0,0.0,0.0,-4.1128,-4.1119,-4.1576,-4.0941,-4.0924,-4.1339,-4.024,-3.9681,-3.9546,-3.9292,0.0,0.0,0.0,0.0,0.0,0.0,0.0,0.0,0.0,0.0,0.0,0.0,0.0,0.0,0.0,0.0,0.0,0.0,0.0,0.0,0.0,0.0,0.0,0.0,-3.8319,-3.8667,0.0,0.0,0.0,0.0,0.0,0.0,0.0,0.0,0.0,0.0,0.0,0.0,-3.6795,-3.7997,-3.8278,-3.6948,-3.6677,-3.6315,-3.565,-3.56,-3.5329,-3.4726,-3.3444,-3.2412,0.0,0.0,0.0,0.0,0.0,0.0,0.0,0.0,0.0,0.0,0.0,0.0,0.0,0.0,0.0,0.0,0.0,0.0,0.0,0.0,0.0,0.0,0.0,0.0,0.0,0.0,0.0,0.0,0.0,0.0,0.0,0.0,-3.0178,-3.1017,0.0,0.0,0.0,0.0,0.0,0.0,0.0,0.0,0.0,0.0,0.0,0.0,0.0,-4.0578,-4.1847,-4.2608,-4.3003,-4.3105,-4.3707,-4.369,-4.3105,-4.3003,-4.2675,-4.2168,-4.2642,0.0,-4.1762,-4.0485,0.0,0.0,0.0,0.0,0.0,0.0,0.0,0.0,0.0,0.0,0.0,0.0,0.0,0.0,0.0,0.0,0.0,0.0,0.0,0.0,0.0,0.0,-3.9673,-3.9673,-3.9808,-3.9876,0.0,-3.8082,-3.6745,-3.6541,-3.6011,0.0,0.0,0.0,0.0,0.0,0.0,0.0,-3.6795,-3.7533,-3.7736,-3.6897,-3.618,-3.5718,-3.56,-3.56,-3.5549,-3.5447,-3.4675,-3.4172,-3.4066,-3.2121,0.0,0.0,0.0,0.0,0.0,0.0,0.0,0.0,0.0,0.0,0.0,0.0,0.0,0.0,0.0,0.0,0.0,0.0,0.0,0.0,0.0,0.0,0.0,0.0,0.0,0.0,0.0,0.0,0.0,-2.9235,-3.1017,-3.0943,-3.16,-3.2019,0.0,0.0,0.0,0.0,0.0,0.0,0.0,0.0,0.0,-4.0127,-4.0946,-4.1847,-4.2912,-4.369,-4.4062,-4.4079,-4.4418,-4.4429,-4.4062,-4.4062,-4.3893,-4.3616,-4.3927,-4.3876,-4.3515,-4.2405,-4.1711,-4.1247,0.0,0.0,0.0,0.0,-3.9495,-3.9242,-4.0087,-4.0104,-3.9631,-3.8785,0.0,0.0,0.0,0.0,0.0,0.0,0.0,0.0,0.0,0.0,-3.9605,-4.0011,-4.0434,-4.0713,-4.0713,-3.9952,-3.9022,0.0,-3.8413,-3.8125,-3.6135,0.0,0.0,0.0,0.0,-3.7872,-3.7466,-3.7702,-3.7618,-3.688,-3.6079,-3.56,-3.56,-3.56,-3.56,-3.56,-3.4912,-3.4489,-3.4489,-3.3169,-3.2239,0.0,0.0,0.0,0.0,0.0,0.0,0.0,0.0,0.0,0.0,0.0,0.0,0.0,0.0,0.0,0.0,0.0,0.0,0.0,0.0,0.0,0.0,0.0,0.0,0.0,0.0,0.0,0.0,-3.0278,-3.163,-3.1315,-3.2302,-3.2766,0.0,0.0,0.0,0.0,0.0,0.0,-3.76,-3.7875,-3.8867,-4.0763,-4.1538,-4.23,-4.3034,-4.3647,-4.4064,-4.427,-4.427,-4.4384,-4.4615,-4.4615,-4.4615,-4.4615,-4.4615,-4.4615,-4.4547,-4.3741,-4.3081,-4.2506,-4.1779,-4.1474,-4.1474,-4.1474,-4.1001,-4.0553,-4.1627,-4.1542,-4.0764,-3.9851,-3.9428,-3.892,-3.7043,0.0,0.0,0.0,0.0,-3.8582,-3.914,-3.9276,-3.9436,-3.9977,-4.051,-4.0916,-4.0916,-4.1068,-4.0882,0.0,-4.029,-4.0155,-3.7777,0.0,0.0,0.0,0.0,-3.8717,-3.799,-3.8075,-3.7821,-3.6897,-3.6265,-3.5802,-3.5616,-3.56,-3.56,-3.56,-3.5081,-3.4776,-3.4776,-3.4066,-3.3423,-3.2869,0.0,0.0,0.0,0.0,0.0,0.0,0.0,0.0,0.0,0.0,0.0,0.0,0.0,0.0,0.0,0.0,0.0,0.0,0.0,0.0,0.0,0.0,0.0,0.0,0.0,0.0,0.0,0.0,0.0,-3.3275,-3.3979,0.0,0.0,0.0,0.0,-3.5359,-3.6019,-3.6697,-3.738,-3.8146,-3.8944,-3.9741,-4.0531,-4.1308,-4.2061,-4.2109,-4.2552,-4.3366,-4.3366,-4.3814,-4.4615,-4.4615,-4.4615,-4.4615,-4.4615,-4.4615,-4.4547,-4.3741,-4.3375,-4.3257,-4.2523,-4.2236,-4.2236,-4.2236,-4.1779,-4.117,-4.1238,-4.0764,-4.0265,-4.0882,-4.0612,-3.9893,-3.9073,-3.8853,0.0,0.0,-3.9453,-3.9994,-4.0045,-4.0045,-4.0045,-4.0096,-4.013,-4.0163,-4.0163,-4.0696,-4.1187,0.0,-4.0578,-3.9893,-3.9039,0.0,-3.8684,-3.7973,-3.8497,-3.8717,-3.799,-3.8514,-3.8379,-3.6948,-3.6761,-3.6417,-3.565,-3.56,-3.56,-3.56,-3.5566,-3.5532,-3.5532,-3.4844,-3.4421,-3.4387,-3.3021,0.0,0.0,0.0,0.0,0.0,0.0,0.0,0.0,0.0,0.0,0.0,0.0,0.0,0.0,0.0,0.0,0.0,0.0,0.0,0.0,0.0,0.0,0.0,0.0,0.0,0.0,0.0,0.0,-3.4129,-3.4726,0.0,-3.4816,-3.5385,-3.5911,-3.6118,-3.6716,-3.7617,-3.8831,-3.9162,-3.9885,-4.1148,-4.147,-4.1741,-4.1997,-4.1997,-4.2157,-4.2458,-4.3047,-4.3456,-4.3785,-4.4355,-4.4615,-4.4615,-4.4615,-4.4615,-4.4581,-4.4282,-4.4164,-4.4147,-4.3887,-4.3785,-4.3707,-4.32,-4.2844,-4.2557,-4.2066,-4.1728,-4.1474,-4.1271,-4.0696,-4.0045,-3.9791,-3.9723,-3.9723,-3.9723,-3.991,-4.0096,-4.0096,-4.0096,-4.0096,-4.0096,-4.0096,-4.0096,-4.0096,-4.0316,-4.0476,-4.0476,-4.0646,-4.0409,-3.9208,-3.9402,-3.9469,-3.8717,-3.9225,-3.9622,-3.9368,-3.9123,-3.8785,-3.8261,-3.7787,-3.7195,-3.6434,-3.6366,-3.6146,-3.5633,-3.56,-3.56,-3.56,-3.5346,-3.4979,-3.4506,-3.3986,-3.3021,0.0,0.0,0.0,0.0,0.0,0.0,0.0,0.0,0.0,0.0,0.0,0.0,0.0,0.0,0.0,0.0,0.0,0.0,0.0,0.0,0.0,0.0,0.0,0.0,0.0,-3.2681,-3.4228,-3.4754,-3.5429,-3.5833,-3.5833,-3.6626,-3.7135,-3.7135,-3.7719,-3.8536,-3.955,-3.9615,-4.0072,-4.108,-4.1129,-4.1129,-4.1129,-4.1129,-4.128,-4.1576,-4.2157,-4.2724,-4.3306,-4.3919,-4.4167,-4.4167,-4.4485,-4.444,-4.4196,-4.4485,-4.4445,-4.4215,-4.4496,-4.4418,-4.413,-4.3606,-4.3071,-4.2557,-4.1796,-4.1568,-4.1474,-4.0984,-4.0519,-4.0096,-4.0096,-4.0096,-4.0096,-4.0096,-4.0096,-4.0096,-4.0096,-4.0096,-4.0096,-4.0096,-4.0096,-4.0096,-4.0096,-4.0096,-4.0096,-4.0096,-4.0476,-4.051,-3.9529,-3.9791,-3.9943,-3.9453,-3.9791,-4.0096,-4.0096,-3.9673,-3.9276,-3.9022,-3.8565,-3.7973,-3.7212,-3.6948,-3.6694,-3.6377,-3.5887,-3.5718,-3.5994,-3.552,-3.5131,-3.4878,-3.4878,-3.415,-3.2679,0.0,0.0,0.0,0.0,0.0,0.0,0.0,0.0,0.0,0.0,0.0,0.0,0.0,0.0,0.0,0.0,0.0,0.0,0.0,0.0,0.0,0.0,0.0,-3.1585,-3.2566,-3.375,-3.5341,-3.6148,-3.6552,-3.6582,-3.7704,-3.8422,-3.8422,-3.9035,-3.9388,-3.9388,-3.9388,-3.9388,-3.9388,-3.9388,-3.9388,-3.9388,-3.9388,-3.9829,-4.0656,-4.069,-4.1609,-4.3276,-4.3276,-4.3306,-4.3396,-4.4224,-4.4121,-4.3363,-4.4219,-4.4079,-4.3443,-4.4231,-4.4062,-4.3358,-4.3325,-4.2395,-4.1068,-4.0367,-4.0096,-4.0096,-4.0096,-4.0096,-4.0096,-4.0096,-4.0096,-4.0096,-4.0096,-4.0096,-4.0096,-4.0096,-4.0096,-4.0096,-4.0096,-4.0096,-4.0096,-4.0096,-4.0096,-4.0096,-4.0096,-4.0096,-4.0096,-4.0096,-4.0096,-4.0096,-4.0096,-4.0096,0.0,-4.0096,-4.0096,-3.9842,-3.9106,-3.9022,-3.8734,-3.8007,-3.7263,-3.7168,-3.7821,-3.6462,-3.5994,-3.6778,-3.5374,-3.4912,-3.565,-3.565,-3.5633,-3.5633,0.0,0.0,0.0,0.0,0.0,0.0,0.0,0.0,0.0,0.0,0.0,0.0,0.0,0.0,0.0,0.0,0.0,0.0,0.0,0.0,0.0,-2.8809,-3.012,-3.1209,-3.3157,-3.4967,-3.6293,-3.7301,-3.8063,-3.8571,-3.8931,-3.914,-3.914,-3.932,-3.9388,-3.9388,-3.9388,-3.9388,-3.9388,-3.9388,-3.9388,-3.9388,-3.9388,-3.9502,-3.9773,-4.0397,-4.128,-4.2395,-4.3017,-4.3651,-4.4253,-4.4514,-4.412,-4.3401,-4.3641,-4.3284,-4.2675,-4.3436,-4.3267,-4.254,-4.1999,-4.1204,-4.0383,-4.018,-4.0096,-4.0096,-4.0096,-4.0096,-4.0096,-4.0096,-4.0096,-4.0096,-4.0096,-4.0096,-4.0096,-4.0096,-4.0096,-4.0096,-4.0096,-4.0096,-4.0096,-4.0096,-4.0096,-4.0096,-4.0096,-4.0096,-4.0096,-4.0096,-4.0096,-4.0096,-4.0096,-4.0096,0.0,-4.0096,-4.0096,-4.0028,-3.9825,-3.9808,-3.9503,-3.8751,-3.8497,-3.8024,-3.7168,-3.6688,-3.6575,-3.6795,-3.6389,-3.6502,-3.7263,-3.6738,-3.6468,0.0,0.0,0.0,0.0,0.0,0.0,0.0,0.0,0.0,0.0,0.0,0.0,0.0,0.0,0.0,0.0,0.0,0.0,0.0,0.0,0.0,0.0,-2.9741,-3.0757,-3.1525,-3.3414,-3.528,-3.6646,-3.7765,-3.8661,-3.9313,-3.9388,-3.9388,-3.9388,-3.9388,-3.9388,-3.9388,-3.9388,-3.9388,-3.9388,-3.9388,-3.9388,-3.9388,-3.9388,-3.9388,-3.9424,-3.992,-4.0792,-4.1997,-4.2157,-4.2909,-4.4064,-4.4064,-4.36,-4.2925,-4.3265,-4.2794,0.0,0.0,0.0,0.0,0.0,-4.0485,-4.0096,-4.0096,-4.0096,-4.0096,-4.0096,-4.0096,-4.0096,-4.0096,-4.0096,-4.0096,-4.0096,-4.0096,-4.0096,-4.0096,-4.0096,-4.0096,-4.0096,-4.0096,-4.0096,-4.0096,-4.0096,-4.0096,-4.0096,-4.0096,0.0,-4.0096,-4.0096,-4.0096,-4.0096,-4.0096,-4.0096,-4.0096,-4.0096,-4.0096,-4.0096,-4.0096,-3.9943,-3.9503,-3.9174,0.0,0.0,0.0,-3.711,-3.6812,-3.7117,0.0,0.0,0.0,0.0,0.0,0.0,0.0,0.0,-3.8193,-3.822,0.0,0.0,0.0,0.0,0.0,0.0,0.0,0.0,0.0,0.0,0.0,0.0,0.0,0.0,0.0,0.0,-3.0733,-3.1587,-3.2139,-3.3383,-3.4863,-3.643,-3.7585,-3.851,-3.9209,-3.9379,-3.9388,-3.9388,-3.9388,-3.9388,-3.9388,0.0,0.0,0.0,0.0,-3.9388,-3.9388,-3.9388,-3.9388,-3.9388,-3.9388,-4.0255,-4.1836,-4.1147,-4.1723,-4.3306,-4.3314,-4.2881,-4.2262,-4.2891,-4.2337,-4.1136,-4.1796,-4.1644,-4.1001,-4.035,-4.0096,-4.0096,-4.0096,0.0,0.0,-4.0096,-4.0096,-4.0096,-4.0096,-4.0096,-4.0096,-4.0096,-4.0096,-4.0096,-4.0096,-4.0096,-4.0096,-4.0096,-4.0096,-4.0096,-4.0096,-4.0096,-4.0096,-4.0096,-4.0096,-4.0096,-4.0096,-4.0096,-4.0096,-4.0096,-4.0096,-4.0096,-4.0096,-4.0096,-4.0096,-4.0096,0.0,0.0,-4.0096,-3.9503,-3.9385,-3.9943,-3.8751,-3.7736,-3.7083,-3.7753,-3.8159,-3.8159,-3.8785,-3.9453,-4.0096,-4.0096,-4.0096,-4.0079,-3.8836,-3.8963,0.0,0.0,0.0,0.0,0.0,0.0,0.0,0.0,0.0,0.0,0.0,0.0,0.0,0.0,0.0,-3.0357,-3.0984,-3.1587,-3.2139,-3.2826,-3.3836,-3.5426,-3.6568,-3.7622,-3.8501,-3.9095,-3.9388,-3.9388,-3.9388,-3.9388,-3.9388,-3.9388,-3.9388,-3.9388,-3.9388,-3.9388,-3.9388,-3.9388,-3.9388,-3.9388,0.0,0.0,-4.0979,-4.1511,-4.2332,-4.3303,-4.3354,-4.2964,-4.225,-4.1811,-4.1102,-4.0333,-4.0468,-4.0451,-4.0299,-4.0146,-4.0096,-4.0096,-4.0096,-4.0096,-4.0096,-4.0096,-4.0096,-4.0096,-4.0096,-4.0096,0.0,-4.0096,-4.0096,-4.0096,-4.0096,-4.0096,-4.0096,-4.0096,-4.0096,-4.0096,-4.0096,-4.0096,-4.0096,-4.0096,-4.0096,-4.0096,-4.0096,-4.0096,-4.0096,-4.0096,-4.0096,-4.0096,-4.0096,-4.0096,-4.0096,-4.0096,-4.0096,-4.0096,-4.0096,-3.9977,-3.9706,-3.9225,-3.8937,-3.8717,-3.8565,-3.9276,-3.9673,-3.9673,-3.9808,-3.996,-4.0096,-4.0096,-4.0096,-4.0113,-4.0409,-4.0713,0.0,0.0,0.0,0.0,0.0,0.0,0.0,0.0,0.0,0.0,0.0,-2.8285,-2.885,0.0,-3.0771,-3.1323,-3.1637,-3.1901,-3.2177,-3.1988,-3.2581,-3.4612,-3.5824,-3.7004,-3.8277,-3.8691,-3.905,-3.9358,-3.9388,-3.9388,-3.9388,-3.9388,-3.9388,-3.9388,-3.9388,-3.9388,-3.9388,-3.9388,-3.9388,-3.9388,-3.9388,-3.9864,-4.0709,-4.1147,-4.2062,-4.3273,-4.2957,-4.2607,-4.2202,-4.1102,-4.0434,-4.0096,-4.0096,-4.0096,-4.0096,-4.0096,-4.0096,-4.0096,-4.0096,-4.0096,-4.0096,-4.0096,-4.0096,-4.0096,-4.0096,-4.0096,-4.0096,-4.0096,-4.0096,-4.0096,-4.0096,-4.0096,-4.0096,-4.0096,-4.0096,-4.0096,-4.0096,-4.0096,-4.0096,-4.0096,-4.0096,-4.0096,-4.0096,-4.0096,-4.0096,-4.0096,-4.0096,-4.0096,-4.0096,-4.0096,-4.0096,-4.0096,-4.0096,-4.0096,-4.0096,-4.0096,-3.9943,-3.9571,-3.9554,-3.9554,-3.9554,-3.991,-4.0096,-4.0096,-4.0096,-4.0096,-4.0096,-4.0096,-4.0096,-4.013,-4.0849,-4.1407,0.0,0.0,0.0,0.0,0.0,0.0,0.0,-2.5302,-2.6251,-2.8075,-2.8787,-2.9402,-3.0432,-3.1035,-3.1574,-3.2127,-3.2127,-3.2051,-3.2051,-3.1135,-3.1345,-3.3779,-3.4941,-3.6236,-3.8018,-3.8317,-3.8676,-3.9364,-3.9388,-3.9388,-3.9388,-3.9388,-3.9388,-3.9388,-3.9388,-3.9388,-3.9388,-3.9388,-3.9388,-3.9388,-3.9388,-3.9773,-4.0466,-4.0792,-4.1627,-4.2785,-4.2257,-4.1961,-4.1788,-4.0603,-4.0096,-4.0096,-4.0096,-4.0096,-4.0096,-4.0096,-4.0096,-4.0096,-4.0096,-4.0096,-4.0096,-4.0096,-4.0096,-4.0096,-4.0096,-4.0096,-4.0096,-4.0096,-4.0096,-4.0096,-4.0096,-4.0096,-4.0096,-4.0096,-4.0096,-4.0096,-4.0096,-4.0096,-4.0096,-4.0096,-4.0096,-4.0096,-4.0096,-4.0096,-4.0096,-4.0096,-4.0096,-4.0096,-4.0096,-4.0096,-4.0096,-4.0096,-4.0096,-4.0096,-4.0096,-4.0096,-4.0096,-4.0096,-4.0096,-4.0096,-4.0096,-4.0096,-4.0096,-4.0096,-4.0096,-4.0096,-4.0096,-4.0096,-4.0096,-4.013,-4.0849,-4.1593,-2.0665,-2.1353,-2.2036,-2.2974,-2.4009,-2.5206,0.0,-2.7736,-2.8675,-2.9427,-2.9654,-2.988,-3.0507,-3.1035,-3.1574,-3.2127,-3.18,-3.1486,-3.1486,-3.057,-3.0611,-3.2585,-3.3415,-3.4832,-3.7262,-3.8048,-3.8676,-3.9364,-3.9388,-3.9388,-3.9388,-3.9388,-3.9388,-3.9388,-3.9388,-3.9388,-3.9388,-3.9388,-3.9388,-3.9388,-3.9388,-3.9445,-3.961,-4.1162,-4.1598,-4.1178,-4.1266,-4.094,-4.0333,-4.018,-4.0096,-4.0096,-4.0096,-4.0096,-4.0096,-4.0096,-4.0096,-4.0096,-4.0096,-4.0096,-4.0096,-4.0096,-4.0096,-4.0096,-4.0096,-4.0096,-4.0096,-4.0096,-4.0096,-4.0096,-4.0096,-4.0096,-4.0096,-4.0096,-4.0096,-4.0096,-4.0096,-4.0096,-4.0096,-4.0096,-4.0096,-4.0096,-4.0096,-4.0096,-4.0096,-4.0096,-4.0096,-4.0096,-4.0096,-4.0096,-4.0096,-4.0096,-4.0096,-4.0096,-4.0096,-4.0096,-4.0096,-4.0096,-4.0096,-4.0096,-4.0096,-4.0096,-4.0096,-4.0096,-4.0096,-4.0096,-4.0096,-4.0096,-4.0096,-4.013,-4.0849,-4.1593,-2.0041,-2.0825,-2.1388,-2.1936,-2.2898,-2.4073,-2.5727,-2.6593,-2.769,-2.9833,-3.0269,-3.0532,-3.1386,-3.1725,-3.2051,-3.2616,-3.1964,-3.1386,-3.1386,-3.047,-3.0495,-3.2393,-3.3204,-3.4611,-3.7158,-3.7659,-3.8257,-3.9298,-3.9388,-3.9388,-3.9388,-3.9388,-3.9388,-3.9388,-3.9388,-3.9388,-3.9388,-3.9388,-3.9388,-3.9388,-3.9388,-3.9388,-3.9445,-4.1196,-4.1889,-4.1711,-4.1335,-4.0781,-4.0096,-4.0096,-4.0096,-4.0096,-4.0096,-4.0096,-4.0096,-4.0096,-4.0096,-4.0096,-4.0096,-4.0096,-4.0096,-4.0096,-4.0096,-4.0096,-4.0096,-4.0096,-4.0096,-4.0096,-4.0096,-4.0096,-4.0096,-4.0096,-4.0096,-4.0096,-4.0096,-4.0096,-4.0096,-4.0096,-4.0096,-4.0096,-4.0096,-4.0096,-4.0096,-4.0096,-4.0096,-4.0096,-4.0096,-4.0096,-4.0096,-4.0096,-4.0096,-4.0096,-4.0096,-4.0096,-4.0096,-4.0096,-4.0096,-4.0096,-4.0096,-4.0096,-4.0096,-4.0096,-4.0096,-4.0096,-4.0096,-4.0096,-4.0096,-4.0096,-4.0096,-4.0113,-4.0434,-4.117,-1.9386,-2.0128,-2.0659,-2.1087,-2.198,-2.3122,-2.4601,-2.5356,-2.6582,-2.934,-2.9908,-3.0273,-3.1517,-3.1775,-3.2001,-3.2717,-3.1901,-3.1223,-3.1373,-3.047,-3.0559,-3.2612,-3.3301,-3.4682,-3.7411,-3.7689,-3.8167,-3.9298,-3.9388,-3.9388,-3.9388,-3.9388,-3.9388,-3.9388,-3.9388,-3.9388,-3.9388,-3.9388,-3.9388,-3.9388,-3.9388,-3.9388,-3.9445,-4.077,-4.1602,-4.1948,-4.1221,-4.0578,-4.0096,-4.0096,-4.0096,-4.0096,-4.0096,-4.0096,-4.0096,-4.0096,-4.0096,-4.0096,-4.0096,-4.0096,-4.0096,-4.0096,-4.0096,-4.0096,-4.0096,-4.0096,-4.0096,-4.0096,-4.0096,-4.0096,-4.0096,-4.0096,-4.0096,-4.0096,-4.0096,-4.0096,-4.0096,-4.0096,-4.0096,-4.0096,-4.0096,-4.0096,-4.0096,-4.0096,-4.0096,-4.0096,-4.0096,-4.0096,-4.0096,-4.0096,-4.0096,-4.0096,-4.0096,-4.0096,-4.0096,-4.0096,-4.0096,-4.0096,-4.0096,-4.0096,-4.0096,-4.0096,-4.0096,-4.0096,-4.0096,-4.0096,-4.0096,-4.0096,-4.0096,-4.0113,-4.05,-4.1358,-1.9177,-1.9617,-2.0136,-2.0977,-2.2046,-2.3139,-2.4018,-2.5036,-2.6228,-2.7841,-2.8199,-2.8659,-3.0333,-3.067,-3.1009,-3.2077,-3.1336,-3.0821,-3.1323,-3.047,-3.0739,-3.3262,-3.36,-3.4866,-3.8052,-3.8362,-3.8661,-3.9364,-3.9388,-3.9388,-3.9388,-3.9388,-3.9388,-3.9388,-3.9388,-3.9388,-3.9388,-3.9388,-3.9388,-3.9388,-3.9388,-3.9388,-3.94,-3.9718,-4.0381,-4.1187,-4.0468,-4.013,-4.0096,-4.0096,-4.0096,-4.0096,-4.0096,-4.0096,-4.0096,-4.0096,-4.0096,-4.0096,-4.0096,-4.0096,-4.0096,-4.0096,-4.0096,-4.0096,-4.0096,-4.0096,-4.0096,-4.0096,-4.0096,-4.0096,-4.0096,-4.0096,-4.0096,-4.0096,-4.0096,-4.0096,-4.0096,-4.0096,-4.0096,-4.0096,-4.0096,-4.0096,-4.0096,-4.0096,-4.0096,-4.0096,-4.0096,-4.0096,-4.0096,-4.0096,-4.0096,-4.0096,-4.0096,-4.0096,-4.0096,-4.0096,-4.0096,-4.0096,-4.0096,-4.0096,-4.0096,-4.0096,-4.0096,-4.0096,-4.0096,-4.0096,-4.0096,-4.0096,-4.0096,-4.0138,-4.1488,-4.2521,-1.9092,-1.9394,-1.9707,-2.0576,-2.1273,-2.2039,-2.31,-2.3833,-2.4937,-2.7231,-2.7702,-2.8316,-3.0234,-3.062,-3.0972,-3.2039,-3.1311,-3.0796,-3.1323,-3.0783,-3.1126,-3.3331,-3.4311,-3.575,-3.8156,-3.8392,-3.8676,-3.9364,-3.9388,-3.9388,-3.9388,-3.9388,-3.9388,-3.9388,-3.9388,-3.9388,-3.9388,-3.9388,-3.9388,-3.9373,-3.896,-3.9078,-3.9719,-3.931,-3.9875,-4.117,-4.0434,-4.0096,-4.0096,-4.0096,-4.0096,-4.0096,-4.0096,-4.0096,-4.0096,-4.0096,-4.0096,-4.0096,-4.0096,-4.0096,-4.0096,-4.0096,-4.0096,-4.0096,-4.0096,-4.0096,-4.0096,-4.0096,-4.0096,-4.0096,-4.0096,-4.0096,-4.0096,-4.0096,-4.0096,-4.0096,-4.0096,-4.0096,-4.0096,-4.0096,-4.0096,-4.0096,-4.0096,-4.0096,-4.0096,-4.0096,-4.0096,-4.0096,-4.0096,-4.0096,-4.0096,-4.0096,-4.0096,-4.0096,-4.0096,-4.0096,-4.0096,-4.0096,-4.0096,-4.0096,-4.0096,-4.0096,-4.0096,-4.0096,-4.0096,-4.0096,-4.0096,-4.0096,-4.0096,-4.0138,-4.1547,-4.2604,-1.875,-1.9053,-1.9228,-1.9969,-2.0439,-2.0987,-2.1859,-2.2395,-2.3307,-2.5588,-2.6193,-2.6974,-2.9086,-2.9631,-3.0193,-3.1655,-3.1185,-3.0859,-3.1587,-3.1223,-3.1705,-3.3991,-3.4948,-3.6278,-3.8543,-3.8751,-3.8945,-3.9394,-3.9388,-3.9388,-3.9388,-3.9388,-3.9388,-3.9388,-3.9388,-3.9388,-3.9388,-3.9388,-3.929,-3.905,-3.8601,-3.8806,-3.9502,-3.901,-3.9544,-4.0781,-4.0316,-4.0096,-4.0096,-4.0096,-4.0096,-4.0096,-4.0096,-4.0096,-4.0096,-4.0096,-4.0096,-4.0096,-4.0096,-4.0096,-4.0096,-4.0096,-4.0096,-4.0096,-4.0096,-4.0096,-4.0096,-4.0096,-4.0096,-4.0096,-4.0096,-4.0096,-4.0096,-4.0096,-4.0096,-4.0096,-4.0096,-4.0096,-4.0096,-4.0096,-4.0096,-4.0096,-4.0096,-4.0096,-4.0096,-4.0096,-4.0096,-4.0096,-4.0096,-4.0096,-4.0096,-4.0096,-4.0096,-4.0096,-4.0096,-4.0096,-4.0096,-4.0096,-4.0096,-4.0096,-4.0096,-4.0096,-4.0096,-4.0096,-4.0096,-4.0096,-4.0096,-4.0096,-4.0204,-4.041,-4.213,-4.3284,-1.8261,-1.8598,-1.8705,-1.918,-1.96,-2.0019,-2.0478,-2.0879,-2.163,-2.3168,-2.385,-2.4862,-2.7113,-2.7866,-2.8839,-3.1035,-3.0972,-3.1022,-3.2064,-3.1763,-3.2441,-3.5079,-3.5408,-3.6476,-3.9118,-3.9388,-3.9388,-3.9388,-3.9388,-3.9388,-3.9388,-3.9388,-3.9388,-3.9388,-3.9388,-3.9388,-3.9388,-3.9388,-3.905,-3.8347,-3.8347,-3.8478,-3.8695,-3.8724,-3.9222,-4.0045,-4.007,-4.0096,-4.0096,-4.0096,-4.0096,-4.0096,-4.0096,-4.0096,-4.0096,-4.0096,-4.0096,-4.0096,-4.0096,-4.0096,-4.0096,-4.0096,-4.0096,-4.0096,-4.0096,-4.0096,-4.0096,-4.0096,-4.0096,-4.0096,-4.0096,-4.0096,-4.0096,-4.0096,-4.0096,-4.0096,-4.0096,-4.0096,-4.0096,-4.0096,-4.0096,-4.0096,-4.0096,-4.0096,-4.0096,-4.0096,-4.0096,-4.0096,-4.0096,-4.0096,-4.0096,-4.0096,-4.0096,-4.0096,-4.0096,-4.0096,-4.0096,-4.0096,-4.0096,-4.0096,-4.0096,-4.0096,-4.0096,-4.0096,-4.0121,-4.0146,-4.0146,-4.0171,-4.0466,-4.1007,-4.3208,-4.4546,-1.8411,-1.8598,-1.8705,-1.918,-1.96,-1.9941,-2.0059,-2.042,-2.1292,-2.3135,-2.3587,-2.4559,-2.7422,-2.8362,-2.9313,-3.1098,-3.1286,-3.1436,-3.2114,-3.2089,-3.2838,-3.5134,-3.5767,-3.6876,-3.9162,-3.9388,-3.9388,-3.9388,-3.9388,-3.9388,-3.9388,-3.9388,-3.9388,-3.9388,-3.9388,-3.9388,-3.9388,-3.9388,-3.8826,-3.7659,-3.7659,-3.7494,-3.7169,-3.7785,-3.848,-3.9236,-3.9833,-4.0096,-4.0096,-4.0096,-4.0096,-4.0096,-4.0096,-4.0096,-4.0096,-4.0096,-4.0096,-4.0096,-4.0096,-4.0096,-4.0096,-4.0096,-4.0096,-4.0096,-4.0096,-4.0096,-4.0096,-4.0096,-4.0096,-4.0096,-4.0096,-4.0096,-4.0096,-4.0096,-4.0096,-4.0096,-4.0096,-4.0096,-4.0096,-4.0096,-4.0096,-4.0096,-4.0096,-4.0096,-4.0096,-4.0096,-4.0096,-4.0096,-4.0096,-4.0096,-4.0096,-4.0096,-4.0096,-4.0096,-4.0096,-4.0096,-4.0096,-4.0096,-4.0096,-4.0096,-4.0096,-4.0096,-4.0096,-4.0096,-4.0497,-4.0703,-4.0703,-4.115,-4.1442,-4.1613,-4.3835,-4.496,-1.8153,-1.8325,-1.8383,-1.8662,-1.9189,-1.9639,-1.9639,-2.0117,-2.0927,-2.1986,-2.2522,-2.3631,-2.6319,-2.7569,-2.8881,-3.1041,-3.1599,-3.1951,-3.2516,-3.2591,-3.3379,-3.5494,-3.6004,-3.7046,-3.9177,-3.9388,-3.9388,-3.9388,-3.9388,-3.9388,-3.9388,-3.9388,-3.9388,-3.9388,-3.9388,-3.9388,-3.9388,-3.9125,-3.8452,-3.7404,-3.7446,-3.7368,-3.7144,-3.7933,-3.8707,-3.9463,0.0,-4.0096,-4.0096,-4.0096,-4.0096,-4.0096,-4.0096,-4.0096,-4.0096,-4.0096,-4.0096,-4.0096,-4.0096,-4.0096,-4.0096,-4.0096,-4.0096,-4.0096,-4.0096,-4.0096,-4.0096,-4.0096,-4.0096,-4.0096,-4.0096,-4.0096,-4.0096,-4.0096,-4.0096,-4.0096,-4.0096,-4.0096,-4.0096,-4.0096,-4.0096,-4.0096,-4.0096,-4.0096,-4.0096,-4.0096,-4.0096,-4.0096,-4.0096,-4.0096,-4.0096,-4.0096,-4.0096,-4.0096,-4.0096,-4.0311,-4.0343,-4.0121,-4.0587,-4.072,-4.0449,-4.0696,-4.0861,-4.0861,-4.115,-4.1273,-4.1291,-4.1621,-4.1937,-4.2239,-4.418,-4.5238,-1.7794,-1.8008,-1.8008,-1.8008,-1.8652,-1.9287,-1.9287,-1.9989,-2.0625,-2.0683,-2.1309,-2.2574,-2.4859,-2.6382,-2.8214,-3.0947,-3.1851,-3.2416,-3.3006,-3.3124,-3.3856,-3.5974,-3.6198,-3.7046,-3.9177,-3.9388,-3.9343,-3.9254,-3.929,-3.929,-3.929,-3.929,-3.929,-3.929,-3.92,-3.9155,-3.9155,-3.8556,-3.7928,-3.727,-3.7483,-3.7606,-3.7661,-3.8525,-3.9289,-3.9952,-4.0045,0.0,-4.0096,-4.0096,-4.0096,-4.0096,-4.0096,-4.0096,-4.0096,-4.0096,-4.0096,-4.0096,-4.0096,-4.0096,-4.0096,-4.0096,-4.0096,-4.0096,-4.0096,-4.0096,-4.0096,-4.0096,-4.0096,-4.0096,-4.0096,-4.0096,-4.0096,-4.0096,-4.0096,-4.0096,-4.0096,-4.0096,-4.0096,-4.0096,-4.0096,-4.0096,-4.0096,-4.0096,-4.0096,-4.0096,-4.0096,-4.0096,-4.0096,-4.0171,-4.0204,-4.0204,-4.0204,-4.0204,-4.0204,-4.0631,-4.0703,-4.0254,-4.1196,-4.1556,-4.1041,-4.1512,-4.181,-4.181,-4.1874,-4.1916,-4.1916,-4.2,-4.2358,-4.3006,-4.451,-4.5526,-1.7974,-1.8008,-1.8008,-1.8008,-1.8652,-1.9287,-1.9287,-1.9989,-2.0713,-2.1045,-2.1523,-2.2664,-2.5212,-2.6565,-2.8214,-3.0947,-3.1851,-3.2416,-3.3006,-3.3124,-3.3856,-3.5974,-3.6198,-3.7046,-3.9177,-3.9388,-3.9185,-3.8616,-3.8571,-3.8571,-3.8571,-3.8571,-3.8571,-3.8571,-3.8048,-3.7764,-3.7764,-3.7644,-3.727,-3.6675,-3.7316,-3.7328,-3.6843,-3.8241,-3.8962,-3.9139,-3.9808,0.0,-4.0096,-4.0096,-4.0096,-4.0096,-4.0096,-4.0096,-4.0096,-4.0096,-4.0096,-4.0096,-4.0096,-4.0096,-4.0096,-4.0096,-4.0096,-4.0096,-4.0096,-4.0096,-4.0096,-4.0096,-4.0096,-4.0096,-4.0096,-4.0096,-4.0096,-4.0096,-4.0096,-4.0096,-4.0096,-4.0096,-4.0096,-4.0096,-4.0096,-4.0096,-4.0096,-4.0096,-4.0096,-4.0096,-4.0096,-4.0096,-4.0096,-4.0497,-4.0756,-4.0756,-4.0756,-4.0756,-4.0756,-4.085,-4.0856,-4.0756,-4.1424,-4.175,-4.1643,-4.1729,-4.181,-4.181,-4.2302,-4.2539,-4.2539,-4.2995,-4.3597,-4.4382,-4.5315,-4.6176,-1.8008,-1.8008,-1.8057,-1.8247,-1.8818,-1.9346,-1.9561,-2.0107,-2.0664,-2.084,-2.187,-2.3305,-2.516,-2.6943,-2.8757,-3.068,-3.1675,-3.2303,-3.2591,-3.288,-3.3856,-3.5974,-3.6198,-3.7046,-3.9177,-3.9388,-3.929,-3.8945,-3.8272,-3.7883,-3.7883,-3.7883,-3.7883,-3.7883,-3.7569,-3.7404,-3.7404,-3.709,-3.6776,-3.651,-3.6903,-3.714,-3.7263,-3.8398,-3.9139,-3.9542,-3.9927,0.0,-4.0096,-4.0096,-4.0096,-4.0096,-4.0096,-4.0096,-4.0096,-4.0096,-4.0096,-4.0096,-4.0096,-4.0096,-4.0096,-4.0096,-4.0096,-4.0096,-4.0096,-4.0096,-4.0096,-4.0096,-4.0096,-4.0096,-4.0096,-4.0096,-4.0096,-4.0096,-4.0096,-4.0096,-4.0096,-4.0096,-4.0096,-4.0096,-4.0096,-4.0096,-4.0096,-4.0096,-4.0096,-4.0096,-4.0096,-4.0096,-4.0096,-4.0844,-4.1246,-4.0926,-4.1178,-4.138,-4.138,-4.1643,-4.1707,-4.1402,-4.2188,-4.2562,-4.2282,-4.2541,-4.2678,-4.2678,-4.2958,-4.3124,-4.3124,-4.3375,-4.3901,-4.4709,-4.5535,-4.6342,-1.8144,-1.8076,-1.8115,-1.85,-1.8965,-1.9394,-1.9814,-2.0254,-2.0644,-2.0867,-2.2284,-2.3891,-2.5237,-2.7292,-2.9128,-3.0383,-3.1411,-3.2077,-3.219,-3.2717,-3.3856,-3.5974,-3.6198,-3.7046,-3.9177,-3.9388,-3.9328,-3.9215,-3.7958,-3.721,-3.721,-3.7075,-3.706,-3.721,-3.7075,-3.7,-3.7,-3.6522,-3.6282,-3.6301,-3.6504,-3.7024,-3.7822,-3.8553,-3.9342,-4.0096,-4.0096,0.0,0.0,-4.0096,-4.0096,-4.0096,-4.0096,-4.0096,-4.0096,-4.0096,-4.0096,-4.0096,-4.0096,-4.0096,-4.0096,-4.0096,-4.0096,-4.0096,-4.0096,-4.0096,-4.0096,-4.0096,-4.0096,-4.0096,-4.0096,-4.0096,-4.0096,-4.0096,-4.0096,-4.0096,-4.0096,-4.0096,-4.0096,-4.0096,-4.0096,-4.0096,-4.0096,-4.0096,-4.0096,-4.0096,-4.0204,-4.0262,-4.0262,-4.1263,-4.181,-4.1335,-4.1707,-4.1979,-4.1979,-4.244,-4.25,-4.2021,-4.294,-4.3395,-4.3137,-4.3524,-4.3754,-4.3754,-4.3754,-4.3663,-4.3515,-4.3515,-4.3993,-4.4984,-4.5608,-4.6416,-1.8539,-1.8266,-1.8115,-1.85,-1.8965,-1.9394,-1.9814,-2.0254,-2.0828,-2.1707,-2.2733,-2.4119,-2.6098,-2.7379,-2.8707,-3.0361,-3.1097,-3.1637,-3.2139,-3.2717,-3.3856,-3.5974,-3.6198,-3.7046,-3.9177,-3.9388,-3.9155,-3.8527,-3.73,-3.6567,-3.6567,-3.6013,-3.5953,-3.6552,-3.5983,-3.5684,-3.5684,-3.5624,-3.5594,-3.5594,-3.629,-3.7024,-3.7822,-3.8553,-3.9342,-4.0096,-4.0096,0.0,0.0,-4.0096,-4.0096,-4.0096,-4.0096,-4.0096,-4.0096,-4.0096,-4.0096,-4.0096,-4.0096,-4.0096,-4.0096,-4.0096,-4.0096,-4.0096,-4.0096,-4.0096,-4.0096,-4.0096,-4.0096,-4.0096,-4.0096,-4.0096,-4.0096,-4.0096,-4.0096,-4.0096,-4.0096,-4.0096,-4.0096,-4.0096,-4.0096,-4.0096,-4.0096,-4.0096,-4.0096,-4.0096,-4.0504,-4.0827,-4.0827,-4.1874,-4.2596,-4.2539,-4.2578,-4.2616,-4.2616,-4.2655,-4.2692,-4.2616,-4.3178,-4.381,-4.4491,-4.4563,-4.4599,-4.4599,-4.4599,-4.4232,-4.3515,-4.3515,-4.4287,-4.5792,-4.5865,-4.6728,-1.9023,-1.8906,-1.8877,-1.926,-1.9531,-1.9775,-2.0205,-2.0478,-2.0857,-2.1811,-2.3354,-2.4954,-2.6325,-2.7999,-2.9349,-3.0002,-3.0834,-3.1461,-3.1687,-3.2503,-3.3856,-3.5974,-3.6198,-3.7046,-3.9177,-3.9388,-3.894,-3.7883,-3.733,-3.6701,-3.5938,-3.5654,-3.5624,-3.5893,-3.5639,-3.5504,-3.5504,-3.5504,-3.5504,-3.5504,-3.5814,-3.6585,-3.7806,-3.8121,-3.8914,-4.0096,-4.0096,0.0,0.0,-4.0096,-4.0096,-4.0096,-4.0096,-4.0096,-4.0096,-4.0096,-4.0096,-4.0096,-4.0096,-4.0096,-4.0096,-4.0096,-4.0096,-4.0096,-4.0096,-4.0096,-4.0096,-4.0096,-4.0096,-4.0096,-4.0096,-4.0096,-4.0096,-4.0096,-4.0096,-4.0096,-4.0096,-4.0096,-4.0096,-4.0096,-4.0096,-4.0096,-4.0096,-4.0096,-4.0096,-4.0096,-4.0552,-4.0903,-4.0903,-4.1958,-4.2711,-4.2711,-4.2995,-4.3178,-4.3178,-4.3178,-4.3178,-4.3178,-4.3832,-4.4378,-4.469,-4.5168,-4.5186,-4.4727,-4.4691,-4.4544,-4.4213,-4.4213,-4.5057,-4.6617,-4.6617,-4.7204,-1.9473,-1.9385,-1.9394,-1.9814,-1.9912,-2.0029,-2.0507,-2.0605,-2.1012,-2.2395,-2.4029,-2.5631,-2.7006,-2.8645,-2.9792,0.0,-3.0696,-3.1386,-3.1386,-3.2365,-3.3742,-3.5547,-3.5734,-3.6579,-3.8745,-3.9228,-3.882,-3.7509,-3.7404,-3.6851,-3.5579,-3.5504,-3.5504,-3.5504,-3.5504,-3.5504,-3.5504,-3.5504,-3.5504,-3.5504,-3.5733,-3.6508,-3.7822,-3.8035,-3.8859,-4.0096,-4.0096,0.0,0.0,-4.0096,-4.0096,-4.0096,-4.0096,-4.0096,-4.0096,-4.0096,-4.0096,-4.0096,-4.0096,-4.0096,-4.0096,-4.0096,-4.0096,-4.0096,-4.0096,-4.0096,-4.0096,-4.0096,-4.0096,-4.0096,-4.0096,-4.0096,-4.0096,-4.0096,-4.0096,-4.0096,-4.0096,-4.0096,-4.0096,-4.0096,-4.0096,-4.0096,-4.0096,-4.0229,-4.0336,-4.0336,-4.0943,-4.1424,-4.1424,-4.2324,-4.2939,-4.2939,-4.3268,-4.3515,-4.3515,-4.3515,-4.3515,-4.3515,-4.4268,-4.4801,-4.5057,-4.5828,-4.5993,-4.5406,-4.5406,-4.5278,-4.5057,-4.5057,-4.5755,-4.7094,-4.7094,-4.7516,-1.9902,-1.9609,-1.9394,-1.9814,-1.9912,-2.0029,-2.0507,-2.0605,-2.1286,-2.3764,-2.4772,-2.5939,-2.8424,-2.9402,-2.9792,-2.9792,-3.0696,-3.1386,-3.1386,-3.2365,-3.3513,-3.4594,-3.4705,-3.5534,-3.7601,-3.8782,-3.882,-3.7509,-3.7404,0.0,-3.5579,-3.5504,-3.5504,-3.5504,-3.5504,-3.5504,-3.5504,-3.5504,-3.5504,-3.5504,-3.6259,-3.6994,-3.7806,-3.8553,-3.9342,-4.0096,-4.0096,0.0,0.0,-4.0096,-4.0096,-4.0096,-4.0096,-4.0096,-4.0096,-4.0096,-4.0096,-4.0096,-4.0096,-4.0096,-4.0096,-4.0096,-4.0096,-4.0096,-4.0096,-4.0096,-4.0096,-4.0096,-4.0096,-4.0096,-4.0096,-4.0096,-4.0096,-4.0096,-4.0096,-4.0096,-4.0096,-4.0096,-4.0096,-4.0096,-4.0096,-4.0096,-4.0096,-4.0528,-4.088,-4.088,-4.1916,-4.2674,-4.2674,-4.316,-4.3479,-4.3479,-4.3497,-4.3515,-4.3515,-4.3515,-4.3515,-4.3515,-4.4268,-4.5057,-4.5847,-4.6654,-4.7076,-4.7076,-4.7076,-4.6672,-4.5883,-4.5883,-4.6305,-4.7094,-4.7094,-4.7516,-2.0273,-2.0302,-2.0233,-2.0361,-2.04,-2.0429,-2.0576,-2.1078,-2.2098,-2.3916,-2.5294,-2.6743,-2.8549,-2.9402,-2.9917,-3.0294,-3.0934,0.0,-3.1901,-3.2604,-3.3742,-3.5507,-3.7021,-3.797,-3.8184,-3.8513,-3.8182,-3.6881,-3.6776,-3.6402,-3.5549,-3.5504,-3.5504,-3.5504,-3.5504,-3.5504,-3.5504,-3.5504,-3.5504,-3.5504,-3.6244,-3.7024,-3.7822,-3.8553,-3.9342,-4.0096,0.0,0.0,0.0,-4.0096,-4.0096,-4.0096,-4.0096,-4.0096,-4.0096,-4.0096,-4.0096,-4.0096,-4.0096,-4.0096,-4.0096,-4.0096,-4.0096,-4.0096,-4.0096,-4.0096,-4.0096,-4.0096,-4.0096,-4.0096,-4.0096,-4.0096,-4.0096,-4.0096,-4.0096,-4.0096,-4.0096,-4.0096,-4.0096,-4.0096,-4.0096,-4.0096,-4.0096,-4.0528,-4.0903,-4.0903,-4.1916,-4.2711,-4.2711,-4.3178,-4.3515,-4.3515,-4.3515,-4.3515,-4.3515,-4.3515,-4.3718,-4.4287,-4.5076,-4.5883,-4.6691,-4.748,-4.7663,-4.7113,-4.7094,-4.6966,-4.6709,-4.6709,-4.7131,-4.7921,-4.7921,-4.8067,-2.0467,-2.0605,-2.0605,-2.0605,-2.0605,-2.0605,-2.0605,-2.1336,-2.2418,-2.3991,-2.5521,-2.7071,-2.8625,-2.9402,-2.998,-3.052,-3.1047,-3.1587,-3.2139,-3.2717,-3.3742,-3.5426,-3.7137,-3.8105,-3.7839,-3.815,-3.7868,-3.6582,-3.6492,-3.6207,-3.5549,-3.5504,-3.5504,-3.5504,-3.5504,-3.5504,-3.5504,-3.5504,-3.5504,-3.5504,-3.6554,-3.7308,-3.7851,-3.887,-3.9636,-4.0096,0.0,0.0,0.0,-4.0096,-4.0096,-4.0096,-4.0096,-4.0096,-4.0096,-4.0096,-4.0096,-4.0096,-4.0096,-4.0096,-4.0096,-4.0096,-4.0096,-4.0096,-4.0096,-4.0096,-4.0096,-4.0096,-4.0096,-4.0096,-4.0096,-4.0096,-4.0096,-4.0096,-4.0096,-4.0096,-4.0096,-4.0096,-4.0171,-4.0368,-4.0417,-4.0473,-4.0696,-4.1218,-4.1578,-4.1578,-4.2384,-4.2995,-4.2995,-4.3286,-4.3515,-4.3515,-4.3515,-4.3515,-4.3515,-4.3515,-4.3828,-4.4636,-4.5461,-4.6269,-4.7076,-4.7865,-4.8067,-4.7553,-4.7553,-4.7553,-4.7553,-4.7553,-4.781,-4.8306,-4.8306,-4.8306,0.0,-2.074,-2.074,-2.0672,-2.0731,-2.0828,-2.0828,-2.1527,0.0,-2.4104,-2.5622,-2.717,-2.8675,-2.9428,-2.998,-3.057,-3.1072,-3.1587,-3.2139,-3.2751,-3.3534,-3.4528,-3.5559,-3.6305,-3.6653,-3.7632,-3.7749,-3.6507,-3.6417,-3.6148,-3.5534,-3.5504,-3.5504,-3.5504,-3.5504,-3.5504,-3.5504,-3.5504,-3.5504,-3.5537,-3.7071,-3.7793,-3.7835,-3.9401,-4.0096,0.0,0.0,0.0,0.0,-4.0096,-4.0096,-4.0096,-4.0096,-4.0096,-4.0096,-4.0096,-4.0096,-4.0096,-4.0096,-4.0096,-4.0096,-4.0096,-4.0096,-4.0096,-4.0096,-4.0096,-4.0096,-4.0096,-4.0096,-4.0096,-4.0096,-4.0096,-4.0096,-4.0096,-4.0096,-4.0096,-4.0096,-4.0121,-4.0311,-4.0803,-4.0926,-4.1155,-4.1707,-4.2302,-4.2711,-4.2711,-4.316,-4.3515,-4.3515,-4.3515,-4.3515,-4.3515,-4.3515,-4.3515,-4.3515,-4.3515,-4.3828,-4.4636,-4.5461,-4.6269,-4.7076,-4.7865,-4.8306,-4.8306,-4.8251,-4.8251,-4.8306,-4.8196,-4.8196,-4.8306,-4.8251,-4.8251,-2.1987,0.0,-2.2063,-2.1376,-2.1999,-2.2824,0.0,-2.3599,-2.4512,-2.5305,-2.6663,-2.8126,-2.9364,-2.9691,-3.0105,-3.1047,-3.1311,-3.1587,-3.2139,-3.3026,-3.3747,-3.3964,-3.5221,-3.5869,-3.5467,-3.6355,-3.6596,-3.5804,-3.5744,-3.5669,-3.5519,-3.5504,-3.5504,-3.5504,-3.5504,-3.5504,-3.5504,-3.5504,-3.5504,-3.5537,-3.7071,-3.7793,-3.7835,-3.9401,-4.0096,0.0,0.0,0.0,-4.0096,-4.0096,-4.0096,-4.0096,-4.0096,-4.0096,-4.0096,-4.0096,-4.0096,-4.0096,-4.0096,-4.0096,-4.0096,-4.0096,-4.0096,-4.0096,-4.0096,-4.0096,-4.0096,-4.0096,-4.0096,-4.0096,-4.0096,-4.0096,-4.0096,-4.0096,-4.0096,-4.0096,-4.0096,-4.0424,-4.0733,-4.0897,-4.1251,-4.1621,-4.1789,-4.2302,-4.2711,-4.2711,-4.316,-4.3515,-4.3515,-4.3515,-4.3515,-4.3515,-4.3515,-4.3515,-4.3515,-4.3515,-4.3828,-4.4636,-4.5461,-4.6269,-4.7076,-4.7865,-4.8306,-4.8306,-4.77,-4.7681,-4.8306,-4.7058,-4.7095,-4.8306,-4.7663,-4.77,-2.2003,-2.2572,-2.2997,-2.2779,-2.329,-2.385,-2.385,-2.4462,-2.5088,-2.5385,-2.6858,-2.8298,-2.8913,-2.9654,-3.0444,-3.126,-3.1599,-3.1876,-3.2177,-3.2718,-3.3162,-3.341,-3.4534,-3.5209,-3.5021,-3.5912,-3.6207,-3.5549,-3.5504,-3.537,-3.5055,-3.504,-3.504,-3.504,-3.504,-3.519,-3.5504,-3.5504,-3.5504,-3.5537,-3.7071,-3.7793,-3.7835,-3.9401,-4.0096,0.0,0.0,0.0,-4.0096,-4.0096,-4.0096,-4.0096,-4.0096,-4.0096,-4.0096,-4.0096,-4.0096,-4.0096,-4.0096,-4.0096,-4.0096,-4.0096,-4.0096,-4.0096,-4.0096,-4.0096,-4.0096,-4.0096,-4.0096,-4.0096,-4.0096,-4.0096,-4.0096,-4.0096,-4.0096,-4.0171,-4.04,-4.0703,-4.1064,-4.1621,-4.1979,-4.2284,-4.2542,-4.2847,-4.3087,-4.3087,-4.3303,-4.3515,-4.3515,-4.3515,-4.3515,-4.3515,-4.3515,-4.3515,-4.3515,-4.3515,-4.3828,-4.4636,-4.5112,-4.5883,-4.7058,-4.7516,-4.7921,-4.8306,-4.7865,-4.7846,-4.8306,-4.7425,-4.7462,-4.8306,-4.7846,-4.7865,-2.2035,-2.2971,-2.3995,-2.4237,-2.4516,-2.472,-2.464,-2.494,-2.5253,-2.5325,-2.6831,-2.816,-2.8335,-2.9603,-3.0783,-3.1298,-3.1788,-3.2114,-3.2202,-3.2077,-3.2104,-3.2568,-3.3531,-3.4264,-3.4617,-3.5682,-3.6103,-3.5549,-3.5415,-3.51,-3.4533,-3.4414,-3.4399,-3.4503,-3.4503,-3.4801,-3.5489,-3.5504,-3.5504,-3.5537,-3.7071,-3.7793,-3.7835,-3.9401,-4.0096,-4.0096,0.0,0.0,-4.0096,-4.0096,-4.0096,-4.0096,-4.0096,-4.0096,-4.0096,-4.0096,-4.0096,-4.0096,-4.0096,-4.0096,-4.0096,-4.0096,-4.0096,-4.0096,-4.0096,-4.0096,-4.0096,-4.0096,-4.0096,-4.0096,-4.0096,-4.0096,-4.0096,-4.0096,-4.0171,-4.036,-4.0803,-4.1041,-4.1468,-4.25,-4.2769,-4.2958,-4.3427,-4.3515,-4.3515,-4.3515,-4.3515,-4.3515,-4.3515,-4.3515,-4.3515,-4.3515,-4.3515,-4.3515,-4.3515,-4.3515,-4.3791,-4.447,-4.4635,-4.537,-4.6856,-4.7021,-4.7424,-4.8104,-4.8122,-4.8196,-4.8306,-4.8049,-4.8067,-4.8306,-4.8177,-4.8196,-2.4595,-2.549,-2.5775,-2.4575,-2.5573,-2.6705,-2.6282,-2.6226,-2.6405,-2.6831,-2.7549,-2.8398,-2.9352,-3.0131,-3.0783,-3.1298,-3.1461,-3.1675,-3.2152,-3.1436,-3.0874,-3.0972,-3.2086,-3.2913,-3.2959,-3.4588,-3.5609,-3.5519,-3.4966,-3.4623,-3.4518,-3.3948,-3.3903,-3.4488,-3.4503,-3.4801,-3.5489,-3.5504,-3.5504,-3.5537,-3.7071,-3.7793,-3.7835,-3.9401,-4.0096,-4.0096,0.0,-4.0096,-4.0096,-4.0096,-4.0096,-4.0096,-4.0096,-4.0096,-4.0096,-4.0096,-4.0096,-4.0096,-4.0096,-4.0096,-4.0096,-4.0096,-4.0096,-4.0096,-4.0096,-4.0096,-4.0096,-4.0096,-4.0096,-4.0096,-4.0096,-4.0096,-4.0096,-4.0096,-4.0449,-4.0803,-4.088,-4.1707,-4.248,-4.2655,-4.3087,-4.341,-4.3497,-4.3515,-4.3515,-4.3515,-4.3515,-4.3515,-4.3515,-4.3515,-4.3515,-4.3515,-4.3515,-4.3515,-4.3515,-4.3515,-4.3551,-4.368,-4.4323,-4.5131,-4.6049,-4.6727,-4.7168,-4.7278,-4.7278,-4.7608,-4.8306,-4.6929,-4.6966,-4.8288,-4.759,-4.7645,-2.4808,-2.5206,-2.5367,-2.5802,-2.7033,-2.8109,-2.7846,-2.7557,-2.7419,-2.767,-2.816,-2.8675,-2.9239,-3.0269,-3.121,-3.175,-3.1838,-3.1725,-3.1399,-3.0922,-3.0507,-3.0206,-3.1612,-3.2593,-3.2593,-3.4375,-3.5355,-3.4981,-3.4651,-3.4158,-3.3455,-3.3125,-3.326,-3.3918,-3.3948,-3.4457,-3.5489,-3.5504,-3.5504,-3.5537,-3.7071,-3.7793,-3.7835,-3.9401,-4.0096,-4.0096,0.0,-4.0096,-4.0096,-4.0096,-4.0096,-4.0096,-4.0096,-4.0096,-4.0096,-4.0096,-4.0096,-4.0096,-4.0096,-4.0096,-4.0096,-4.0096,-4.0096,-4.0096,-4.0096,-4.0096,-4.0096,-4.0096,-4.0096,-4.0096,-4.0096,-4.0096,-4.0096,-4.0096,-4.0521,-4.0995,-4.1313,-4.208,-4.2788,-4.3087,-4.3321,-4.3515,-4.3515,-4.3515,-4.3515,-4.3515,-4.3515,-4.3515,-4.3515,-4.3515,-4.3515,-4.3515,-4.3515,-4.3515,-4.3515,-4.3515,-4.3515,-4.3515,-4.4654,-4.5516,-4.5883,-4.7095,-4.7736,-4.7736,-4.7736,-4.792,-4.8306,-4.7572,-4.759,-4.8306,-4.7921,-4.7957,-2.4625,-2.4755,-2.5002,-2.6978,-2.7814,-2.8288,-2.8787,-2.8398,-2.8021,-2.8423,-2.8725,-2.8938,-2.9063,-3.0269,-3.1386,-3.1938,-3.1926,-3.1549,-3.0733,-3.0507,-3.0269,-2.9842,-3.1439,-3.2593,-3.2593,-3.423,-3.504,-3.4548,-3.4219,-3.3574,-3.2557,-3.2333,-3.2557,-3.3245,-3.326,-3.3829,-3.5026,-3.504,-3.519,-3.5537,-3.7071,-3.7793,-3.7835,-3.9401,-4.0096,-4.0096,-4.0096,-4.0096,-4.0096,-4.0096,-4.0096,-4.0096,-4.0096,-4.0096,-4.0096,-4.0096,-4.0096,-4.0096,-4.0096,-4.0096,-4.0096,-4.0096,-4.0096,-4.0096,-4.0096,-4.0096,-4.0096,-4.0096,-4.0096,-4.0096,-4.0096,-4.0096,-4.0121,-4.0254,-4.0703,-4.1291,-4.1874,-4.2462,-4.2995,-4.3427,-4.3515,-4.3515,-4.3515,-4.3515,-4.3515,-4.3515,-4.3515,-4.3515,-4.3515,-4.3515,-4.3515,-4.3515,-4.3515,-4.3588,-4.3754,-4.3938,-4.4048,-4.4048,-4.5223,-4.5902,-4.5902,-4.726,-4.8012,-4.8012,-4.8214,-4.8306,-4.8306,-4.8306,-4.8306,-4.8306,-4.8306,-4.8306,-2.5109,-2.554,-2.592,-2.7632,-2.7017,-2.6529,-2.845,-2.8109,-2.7783,-2.9352,-2.9277,-2.9051,-2.9628,-3.0244,-3.0834,-3.1361,-3.1047,-3.0708,-3.062,-3.0168,-2.9829,-2.9792,-3.1439,-3.2593,-3.2593,-3.3823,-3.4563,-3.4503,-3.335,-3.2617,-3.2527,-3.1914,-3.1869,-3.2557,-3.2557,-3.2931,-3.3634,-3.3634,-3.4262,-3.5537,-3.7071,-3.7793,-3.7835,-3.9401,-4.0096,-4.0096,-4.0096,-4.0096,-4.0096,-4.0096,-4.0096,-4.0096,-4.0096,-4.0096,-4.0096,-4.0096,-4.0096,-4.0096,-4.0096,-4.0096,-4.0096,-4.0096,-4.0096,-4.0096,-4.0096,-4.0096,-4.0096,-4.0096,-4.0096,-4.0096,-4.0096,-4.0096,-4.0229,-4.0709,-4.1291,-4.1895,-4.25,-4.305,-4.3444,-4.3479,-4.3515,-4.3515,-4.3515,-4.3515,-4.3515,-4.3515,-4.3515,-4.3515,-4.3515,-4.3515,-4.3515,-4.3515,-4.3515,-4.3791,-4.4562,-4.5296,-4.5736,-4.5736,-4.5847,-4.5902,-4.5902,-4.6727,-4.7186,-4.7186,-4.7921,-4.8306,-4.8306,-4.8306,-4.8306,-4.8306,-4.8306,-4.8306,-2.4757,-2.4916,-2.5186,-2.7114,-2.6699,-2.6322,-2.8438,-2.8612,-2.8586,-2.9591,-2.9616,-2.9641,-3.0206,-3.047,-3.0683,-3.0871,-3.0746,-3.0495,-3.0156,-2.993,-2.9666,-2.9302,-3.0422,-3.1284,-3.1447,-3.2434,-3.312,-3.3259,-3.2796,-3.2303,-3.1899,-3.1645,-3.1809,-3.2497,-3.2512,-3.2826,-3.3484,-3.3499,-3.3754,-3.4279,-3.577,-3.6706,-3.7178,-3.8718,-3.9436,-3.9453,-3.991,-4.0096,-4.0096,-4.0096,-4.0096,-4.0096,-4.0096,-4.0096,-4.0096,-4.0096,-4.0096,-4.0096,-4.0096,-4.0096,-4.0096,-4.0096,-4.0096,-4.0096,-4.0096,-4.0096,-4.0096,-4.0096,-4.0096,-4.0096,-4.0096,-4.0096,-4.0229,-4.078,-4.1358,-4.1958,-4.2577,-4.3124,-4.3515,-4.3515,-4.3515,-4.3515,-4.3515,-4.3515,-4.3515,-4.3515,-4.3515,-4.3515,-4.3515,-4.3515,-4.3681,-4.4195,-4.469,-4.5112,-4.5424,-4.6195,-4.6636,-4.6636,-4.6636,-4.6636,-4.6636,-4.7406,-4.7846,-4.7846,-4.8159,-4.8306,-4.8306,-4.8306,-4.8306,-4.8306,-4.8306,-4.8306,-2.4738,-2.4982,-2.5336,-2.7114,-2.6903,-2.6712,-2.8512,-2.8762,-2.8925,-2.9867,-2.9917,-2.9905,-3.0281,-3.0357,-3.0357,-3.0357,-3.0357,-3.0218,-2.9842,-2.9641,-2.9365,-2.8938,-2.9624,-3.0289,-3.0738,-3.1456,-3.2057,-3.2482,-3.2288,-3.1974,-3.1525,-3.1511,-3.1705,-3.2168,-3.2168,-3.2392,-3.2871,-3.2871,-3.2976,-3.3216,-3.4438,-3.5518,-3.6442,-3.7944,-3.8768,-3.9022,-3.9537,-3.9893,-4.0096,-4.0096,-4.0096,-4.0096,-4.0096,-4.0096,-4.0096,-4.0096,-4.0096,-4.0096,-4.0096,-4.0096,-4.0096,-4.0096,-4.0096,-4.0096,-4.0096,-4.0096,-4.0096,-4.0096,-4.0096,-4.0096,-4.0096,-4.0096,-4.0286,-4.1013,-4.1512,-4.2021,-4.2789,-4.3232,-4.3515,-4.3515,-4.3515,-4.3515,-4.3515,-4.3515,-4.3589,-4.3828,-4.3883,-4.3883,-4.3883,-4.4085,-4.447,-4.5021,-4.581,-4.6287,-4.6287,-4.7021,-4.748,-4.748,-4.748,-4.748,-4.748,-4.8012,-4.8306,-4.8306,-4.8306,-4.8306,-4.8306,-4.8306,-4.8306,-4.8306,-4.8306,-4.8306,-2.531,-2.6047,-2.6763,-2.7821,-2.7695,-2.7582,-2.8637,-2.8499,-2.8586,-3.0269,-3.0168,-2.9779,-2.9792,-2.9792,-2.9779,-2.9792,-2.9792,-2.9779,-2.9779,-2.9289,-2.8888,-2.8875,-2.9248,-2.9822,-3.0683,-3.1013,-3.1547,-3.2408,-3.1869,-3.1511,-3.1511,-3.1511,-3.1511,-3.1511,-3.1511,-3.1511,-3.1511,-3.1511,-3.1824,-3.2497,-3.3246,-3.4334,-3.5764,-3.7228,-3.8311,-3.8988,-3.9005,-3.9436,-4.0096,-4.0096,-4.0096,-4.0096,-4.0096,-4.0096,-4.0096,-4.0096,-4.0096,-4.0096,-4.0096,-4.0096,-4.0096,-4.0096,-4.0096,-4.0096,-4.0096,-4.0096,-4.0096,-4.0113,-4.0096,-4.0096,-4.0121,-4.0138,-4.041,-4.153,-4.1793,-4.2124,-4.3249,-4.3515,-4.3515,-4.3515,-4.3515,-4.3515,-4.3515,-4.3515,-4.3773,-4.458,-4.4727,-4.4727,-4.4727,-4.5406,-4.5902,-4.5902,-4.6636,-4.7113,-4.7113,-4.7828,-4.8306,-4.8306,-4.8306,-4.8306,-4.8306,-4.8306,-4.8306,-4.8306,-4.8306,-4.8306,-4.8306,-4.8306,-4.8306,-4.8306,-4.8306,-4.8306,-2.5511,-2.6047,-2.6663,-2.7344,-2.7695,-2.7946,-2.8273,-2.8524,-2.89,-2.9854,-2.9578,-2.9315,-2.9716,-2.9453,-2.9315,-2.9729,-2.9453,-2.9189,-2.9189,-2.9001,-2.8599,-2.7858,-2.7893,-2.8127,-2.8579,-2.9233,-3.0021,-3.0905,-3.1294,-3.1511,-3.1511,-3.1511,-3.1511,-3.1511,-3.1511,-3.1511,-3.1511,-3.1511,-3.16,-3.1824,-3.3011,-3.4334,-3.5764,-3.7228,-3.8311,-3.9022,-3.9554,-3.991,-4.0096,-4.0096,-4.0096,-4.0096,-4.0096,-4.0096,-4.0096,-4.0096,-4.0096,-4.0096,-4.0096,-4.0096,-4.0096,-4.0096,-4.0096,-4.0096,-4.0096,-4.0096,-4.0179,-4.0552,-4.0655,-4.0774,-4.1173,-4.1286,-4.1375,-4.1725,-4.2121,-4.2637,-4.3357,-4.3515,-4.3515,-4.3515,-4.3515,-4.3515,-4.3515,-4.3975,-4.4433,-4.4654,-4.5186,-4.5535,-4.5535,-4.625,-4.6727,-4.6727,-4.7461,-4.7938,-4.7938,-4.8159,-4.8306,-4.8306,-4.8306,-4.8306,-4.8306,-4.8306,-4.8306,-4.8306,-4.8306,-4.8306,-4.8306,-4.8306,-4.8306,-4.8306,-4.8306,-4.8306,-2.5908,-2.6386,-2.7002,-2.7745,-2.8021,-2.816,-2.8386,-2.8511,-2.8699,-2.9051,-2.885,-2.8675,-2.9063,-2.8837,-2.8712,-2.9063,-2.8837,-2.8562,-2.8562,-2.8411,-2.8034,-2.7369,-2.7115,-2.7185,-2.7643,-2.8492,-2.9348,-3.0238,-3.1058,-3.1511,-3.1511,-3.1511,-3.1511,-3.1511,-3.1511,-3.1511,-3.1511,-3.1511,-3.1511,-3.1511,-3.2917,-3.419,-3.5332,-3.6463,-3.7567,-3.8616,-3.9656,-4.0096,-4.0096,-4.0096,-4.0096,-4.0096,-4.0096,-4.0096,-4.0096,-4.0096,-4.0096,-4.0096,-4.0096,-4.0096,-4.0096,-4.0096,-4.0096,-4.0096,-4.0096,-4.0096,-4.0204,-4.0733,-4.0903,-4.1041,-4.1643,-4.1979,-4.2162,-4.2162,-4.244,-4.2845,-4.3392,-4.3515,-4.3515,-4.3515,-4.3515,-4.3606,-4.392,-4.4378,-4.4911,-4.5553,-4.6067,-4.6489,-4.6819,-4.6984,-4.7223,-4.7535,-4.8012,-4.8306,-4.8306,-4.8306,-4.8306,-4.8306,-4.8306,-4.8306,-4.8306,-4.8306,-4.8306,-4.8306,-4.8306,-4.8306,-4.8306,-4.8306,-4.8306,-4.8306,-4.8306,-4.8306,-2.6458,-2.6939,-2.7544,-2.8549,-2.8436,-2.816,-2.8624,-2.8348,-2.7984,-2.8084,-2.8059,-2.8047,-2.8097,-2.8059,-2.8047,-2.8097,-2.8059,-2.8034,-2.8034,-2.7595,-2.7268,-2.7218,-2.6801,-2.6816,-2.7604,-2.8492,-2.9348,-3.0238,-3.1058,-3.1511,-3.1511,-3.1511,-3.1511,-3.1511,-3.1511,-3.1511,-3.1511,-3.1511,-3.1511,-3.1511,-3.2917,-3.3944,-3.4621,-3.5364,-3.6546,-3.8075,-3.9436,-4.0045,-4.0096,-4.0096,-4.0096,-4.0096,-4.0096,-4.0096,-4.0096,-4.0096,-4.0096,-4.0096,-4.0096,-4.0096,-4.0096,-4.0096,-4.0096,-4.0096,-4.0096,-4.0096,-4.0229,-4.0803,-4.0972,-4.1133,-4.1793,-4.2362,-4.2769,-4.2769,-4.2769,-4.2902,-4.3392,-4.3515,-4.3515,-4.3515,-4.3515,-4.3754,-4.4562,-4.4746,-4.5351,-4.6966,-4.7204,-4.7461,-4.8214,-4.7663,-4.748,-4.8233,-4.8306,-4.8306,-4.8306,-4.8306,-4.8306,-4.8306,-4.8306,-4.8306,-4.8306,-4.8306,-4.8306,-4.8306,-4.8306,-4.8306,-4.8306,-4.8306,-4.8306,-4.8306,-4.8306,-4.8306,-2.7265,-2.7228,-2.7444,-2.8109,-2.7871,-2.7494,-2.7607,-2.7241,-2.709,-2.7921,-2.7758,-2.7595,-2.8021,-2.7758,-2.7607,-2.8034,-2.7745,-2.7457,-2.7457,-2.7356,-2.7153,-2.6725,-2.6562,-2.6816,-2.7604,-2.8492,-2.9348,-3.0238,-3.1058,-3.1511,-3.1511,-3.1511,-3.1511,-3.1511,-3.1511,-3.1511,-3.1511,-3.1511,-3.1511,0.0,-3.2917,-3.3688,-3.3915,-3.5704,-3.7347,-3.8768,-3.9089,-3.9571,-4.0096,-4.0096,-4.0096,-4.0096,-4.0096,-4.0096,-4.0096,-4.0096,-4.0096,-4.0096,-4.0096,-4.0096,-4.0096,-4.0096,-4.0096,-4.0096,-4.0096,-4.0096,-4.0311,-4.1313,-4.1599,-4.1835,-4.2866,-4.3232,-4.3339,-4.3339,-4.3339,-4.3375,-4.348,-4.3515,-4.3515,-4.3515,-4.3515,-4.3754,-4.4562,-4.5223,-4.6195,-4.781,-4.8049,-4.8104,-4.8288,-4.8159,-4.8122,-4.8288,-4.8306,-4.8306,-4.8306,-4.8306,-4.8306,-4.8306,-4.8306,-4.8306,-4.8306,-4.8306,-4.8306,-4.8306,-4.8306,-4.8306,-4.8306,-4.8306,-4.8306,-4.8306,-4.8306,-4.8306,-2.7145,-2.6927,-2.7052,-2.757,-2.7494,-2.7281,-2.7281,-2.6889,-2.6663,-2.7241,-2.7115,-2.7014,-2.7268,-2.7115,-2.7014,-2.7268,-2.7115,-2.6927,-2.6927,-2.6927,-2.6813,-2.6524,-2.6499,-2.6658,-2.7061,-2.8279,-2.9192,-2.9628,-3.0807,-3.1511,-3.1511,-3.1511,-3.1511,-3.1511,-3.1511,-3.1511,-3.1511,-3.1511,-3.1511,-3.1496,-3.2598,-3.3469,-3.4144,-3.5971,-3.7218,-3.7997,-3.8684,-3.9005,-3.9056,-3.9436,-3.9571,-3.9571,-3.9571,-3.9791,-4.0096,-4.0096,-4.0096,-4.0096,-4.0096,-4.0096,-4.0096,-4.0096,-4.0096,-4.0096,-4.0096,-4.0096,-4.0336,-4.1486,-4.181,-4.2062,-4.3214,-4.3515,-4.3515,-4.3515,-4.3515,-4.3515,-4.3515,-4.3515,-4.3515,-4.3515,-4.3515,-4.3754,-4.4562,-4.5682,-4.6893,-4.8122,-4.8306,-4.8306,-4.8306,-4.8306,-4.8306,-4.8306,-4.8306,-4.8306,-4.8306,-4.8306,-4.8306,-4.8306,-4.8306,-4.8306,-4.8306,-4.8306,-4.8306,-4.8306,-4.8306,-4.8306,-4.8306,-4.8306,-4.8306,-4.8306,-4.8306,-4.8306,-2.7062,-2.6728,-2.6751,-2.7203,-2.7241,-2.7178,-2.7178,-2.6826,-2.6499,-2.6499,-2.6499,-2.6499,-2.6499,-2.6499,-2.6499,-2.6499,-2.6499,-2.6499,-2.6499,-2.6499,-2.6499,-2.6499,-2.6499,-2.6555,-2.6679,-2.7953,-2.8907,-2.9192,-3.0524,-3.1351,-3.1511,-3.1511,-3.1511,-3.1511,-3.1511,-3.1511,-3.1511,-3.1511,-3.1511,-3.1511,-3.2367,-3.3417,-3.4657,-3.5994,-3.6677,-3.688,-3.8099,-3.8345,-3.7956,-3.8565,-3.8802,-3.8802,-3.8802,-3.9174,-3.974,-3.9859,-3.991,-3.9943,-4.0062,-4.0028,-3.9943,-4.0062,-4.0011,-3.9952,-4.0187,-4.0254,-4.049,-4.1639,-4.1958,-4.2185,-4.3232,-4.3515,-4.3515,-4.3515,-4.3515,-4.3515,-4.3515,-4.3515,-4.3515,-4.3515,-4.3608,-4.3956,-4.4782,-4.6122,-4.7369,-4.8196,-4.8306,-4.8306,-4.8306,-4.8306,-4.8306,-4.8306,-4.8306,-4.8306,-4.8306,-4.8306,-4.8306,-4.8306,-4.8306,-4.8306,-4.8306,-4.8306,-4.8306,-4.8306,-4.8306,-4.8306,-4.8306,-4.8306,-4.8306,-4.8306,-4.8306,-4.8306,-2.8405,-2.7712,-2.7228,-2.7268,-2.6952,-2.66,-2.66,-2.6549,-2.6499,-2.6499,-2.6499,-2.6499,-2.6499,-2.6499,-2.6499,-2.6499,-2.6499,-2.6499,-2.6499,-2.6499,-2.6499,-2.6499,-2.6499,-2.6782,-2.7484,-2.7736,-2.8492,-3.0011,-3.0329,-3.0777,-3.1467,-3.1511,-3.1511,-3.1511,-3.1511,-3.1511,-3.1511,-3.1511,-3.1511,-3.1511,-3.2853,-3.3862,-3.464,-3.5417,-3.6146,-3.6812,-3.7015,-3.7398,-3.7922,-3.8024,-3.8058,-3.8058,-3.8058,-3.8108,-3.8278,-3.8903,-3.914,-3.9225,-3.9893,-3.969,-3.9242,-3.9893,-3.9673,-3.9365,-4.0517,-4.0838,-4.1041,-4.2223,-4.2577,-4.2732,-4.3339,-4.3515,-4.3515,-4.3515,-4.3515,-4.3515,-4.3515,-4.3515,-4.3515,-4.3515,-4.4066,-4.48,-4.5608,-4.6507,-4.7369,-4.8196,-4.8306,-4.8306,-4.8306,-4.8306,-4.8306,-4.8306,-4.8306,-4.8306,-4.8306,-4.8306,-4.8306,-4.8306,-4.8306,-4.8306,-4.8306,-4.8306,-4.8306,-4.8306,-4.8306,-4.8306,-4.8306,-4.8306,-4.8306,-4.8306,-4.8306,-4.8306,-2.8329,-2.7888,-2.7537,-2.7537,-2.7028,-2.6499,-2.6499,-2.6499,-2.6499,-2.6499,-2.6499,-2.6499,-2.6499,-2.6499,-2.6499,-2.6499,-2.6499,-2.6499,-2.6499,-2.6499,-2.6499,-2.6499,-2.6499,-2.6658,-2.7007,-2.7451,-2.8214,-2.9473,-3.0011,-3.0644,-3.1467,-3.1511,-3.1511,-3.1511,-3.1511,-3.1511,-3.1511,-3.1511,-3.1511,-3.1511,-3.2917,-3.3761,-3.4087,-3.5121,-3.5785,-3.6146,-3.6609,-3.6721,-3.6648,-3.7094,-3.728,-3.728,-3.728,-3.7533,-3.7939,-3.8261,-3.8379,-3.8481,-3.9249,-3.9259,-3.9106,-3.9859,-3.9893,-3.978,-4.0664,-4.092,-4.1155,-4.2362,-4.2711,-4.2826,-4.3375,-4.3515,-4.3515,-4.3515,-4.3515,-4.3515,-4.3515,-4.3515,-4.3515,-4.3515,-4.3791,-4.4433,-4.5681,-4.6195,-4.6856,-4.8122,-4.8306,-4.8306,-4.8306,-4.8306,-4.8306,-4.8306,-4.8306,-4.8306,-4.8306,-4.8306,-4.8306,-4.8306,-4.8306,-4.8306,-4.8306,-4.8306,-4.8306,-4.8306,-4.8306,-4.8306,-4.8306,-4.8306,-4.8306,-4.8306,-4.8306,-4.8306,-2.8332,-2.7904,-2.7512,-2.7835,-2.7198,-2.6524,-2.6675,-2.66,-2.6499,-2.6499,-2.6499,-2.6499,-2.6499,-2.6499,-2.6499,-2.6499,-2.6499,-2.6499,-2.6499,-2.6499,-2.6499,-2.6499,-2.6499,-2.6499,-2.6499,-2.704,-2.7835,-2.8907,-2.9597,-3.0419,-3.1438,-3.1511,-3.1511,-3.1511,-3.1511,-3.1511,-3.1511,-3.1511,-3.1582,-3.1796,-3.3024,-3.3684,-3.3887,-3.5068,-3.56,-3.5633,-3.6231,-3.6146,-3.565,-3.6248,-3.6485,-3.6485,-3.6485,-3.6823,-3.7347,-3.755,-3.7618,-3.7736,-3.8464,-3.8717,-3.8836,-3.9588,-3.9908,-4.0161,-4.0897,-4.1246,-4.1578,-4.2617,-4.2902,-4.2995,-4.3392,-4.3515,-4.3515,-4.3515,-4.3515,-4.3515,-4.3515,-4.3515,-4.3552,-4.3754,-4.3791,-4.4323,-4.5938,-4.6214,-4.6691,-4.8104,-4.8306,-4.8306,-4.8306,-4.8306,-4.8306,-4.8306,-4.8306,-4.8306,-4.8306,-4.8306,-4.8306,-4.8306,-4.8306,-4.8306,-4.8306,-4.8306,-4.8306,-4.8306,-4.8306,-4.8306,-4.8306,-4.8306,-4.8306,-4.8306,-4.8306,-4.8306,-2.9058,-2.8013,-2.7045,-2.817,-2.7468,-2.6637,-2.7153,-2.6876,-2.6499,-2.6499,-2.6499,-2.6499,-2.6499,-2.6499,-2.6499,-2.6499,-2.6499,-2.6499,-2.6499,-2.6499,-2.6499,-2.6499,-2.6499,-2.6499,-2.6499,-2.6521,-2.7229,-2.8876,-2.9034,-2.9797,-3.1409,-3.1511,-3.1511,-3.1511,-3.1511,-3.1511,-3.1511,-3.1511,-3.1853,-3.2547,-3.3261,-3.3937,-3.4576,-3.5276,-3.56,-3.56,-3.5633,-3.5633,-3.56,-3.565,-3.565,-3.565,-3.565,-3.5684,-3.5802,-3.6569,-3.6863,-3.6965,-3.7702,-3.7973,-3.8091,-3.8819,-3.9382,-4.0053,-4.1366,-4.2162,-4.2732,-4.3303,-4.3444,-4.3462,-4.3479,-4.3515,-4.3515,-4.3515,-4.3515,-4.3515,-4.3515,-4.3515,-4.3718,-4.4488,-4.4654,-4.515,-4.6764,-4.7039,-4.7314,-4.8177,-4.8306,-4.8306,-4.8306,-4.8306,-4.8306,-4.8306,-4.8306,-4.8306,-4.8306,-4.8306,-4.8306,-4.8306,-4.8306,-4.8306,-4.8306,-4.8306,-4.8306,-4.8306,-4.8306,-4.8306,-4.8306,-4.8306,-4.8306,-4.8306,-4.8306,-4.8306,-2.8801,-2.8283,-2.7945,-2.8812,-2.7803,-2.6782,-2.7419,-2.7024,-2.6499,-2.6499,-2.6499,-2.6499,-2.6499,-2.6499,-2.6499,-2.6499,-2.6499,-2.6499,-2.6499,-2.6499,-2.6499,-2.6499,-2.6499,-2.6499,-2.6499,-2.6973,-2.7769,-2.8907,0.0,-3.0329,-3.1438,-3.1511,-3.1511,-3.1511,-3.1511,-3.1511,-3.1511,-3.1951,-3.2327,-3.2614,-3.371,-3.4358,-3.4624,-3.5276,-3.56,-3.56,-3.56,-3.56,-3.56,-3.56,-3.56,-3.56,-3.56,-3.56,-3.5633,-3.5926,-3.6028,-3.6146,-3.6907,-3.7178,-3.7313,-3.8058,-3.8428,-3.8803,-3.9965,-4.0842,-4.1592,-4.2483,-4.3094,-4.3515,-4.3515,-4.3515,-4.3515,-4.3515,-4.3515,-4.3515,-4.3515,-4.3515,-4.3589,-4.3864,-4.436,-4.5057,-4.614,-4.6746,-4.7369,-4.8196,-4.8306,-4.8306,-4.8306,-4.8306,-4.8306,-4.8306,-4.8306,-4.8306,-4.8306,-4.8306,-4.8306,-4.8306,-4.8306,-4.8306,-4.8306,-4.8306,-4.8306,-4.8306,-4.8306,-4.8306,-4.8306,-4.8306,-4.8306,-4.8306,-4.8306,-4.8306,-2.8584,-2.8299,-2.8225,-2.9317,-2.8352,-2.741,-2.8511,-2.7923,-2.7173,-2.722,-2.7005,-2.6713,-2.6524,-2.6499,-2.6499,-2.6499,-2.6499,-2.6499,-2.6499,-2.6499,-2.6499,-2.6499,-2.6499,-2.6499,-2.6499,-2.7229,-2.8051,-2.8939,0.0,0.0,-3.1467,-3.1511,-3.1511,-3.1511,-3.1511,-3.1511,-3.1511,-3.2216,-3.2722,-3.2949,-3.4062,-3.4712,-3.4941,-3.5385,-3.56,-3.56,-3.56,-3.56,-3.56,-3.56,-3.56,-3.56,-3.56,-3.56,-3.56,-3.56,-3.56,-3.5667,-3.6214,-3.6552,-3.6931,-3.7669,-3.8138,-3.8674,-3.9884,-4.0731,-4.1427,-4.2444,-4.3075,-4.3515,-4.3515,-4.3515,-4.3515,-4.3515,-4.3515,-4.3515,-4.3515,-4.3515,-4.3588,-4.3846,-4.4342,-4.5057,-4.6122,-4.6746,-4.7369,-4.8196,-4.8306,-4.8306,-4.8306,-4.8306,-4.8306,-4.8306,-4.8306,-4.8306,-4.8306,-4.8306,-4.8306,-4.8306,-4.8306,-4.8306,-4.8306,-4.8306,-4.8306,-4.8306,-4.8306,-4.8306,-4.8306,-4.8306,-4.8306,-4.8306,-4.8306,-4.8306,0.0,0.0,0.0,-2.9618,-2.9015,-2.8488,-3.0347,-2.9565,-2.8488,-2.8677,-2.7976,-2.7198,-2.6656,-2.6602,-2.658,-2.6521,-2.6521,-2.6499,-2.6499,-2.6499,-2.6499,-2.6499,-2.6499,-2.6499,-2.6521,-2.7263,-2.8117,0.0,-2.9858,-3.0673,-3.1467,-3.1511,-3.1511,-3.1511,-3.1511,-3.1511,-3.1511,-3.2244,-3.2975,-3.3608,-3.4309,-3.4965,-3.56,-3.56,-3.56,-3.56,-3.56,-3.56,-3.56,-3.56,-3.56,-3.56,-3.56,-3.56,-3.56,-3.56,-3.56,-3.56,-3.56,-3.6113,-3.6897,-3.7601,-3.8563,-3.9719,-4.1244,-4.1967,-4.2434,-4.324,-4.3478,-4.3515,-4.3515,-4.3515,-4.3515,-4.3515,-4.3515,-4.3515,-4.3515,-4.3515,-4.3718,-4.4525,-4.4673,-4.5186,-4.6782,-4.7076,-4.7369,-4.8196,-4.8306,-4.8306,-4.8306,-4.8306,-4.8306,-4.8306,-4.8306,-4.8306,-4.8306,-4.8306,-4.8306,-4.8306,-4.8306,-4.8306,-4.8306,-4.8306,-4.8306,-4.8306,-4.8306,-4.8306,-4.8306,-4.8306,-4.8306,-4.8306,-4.8306,-4.8306,-2.8786,0.0,0.0,0.0,0.0,0.0,-2.9375,-2.8507,-2.7695,-2.8707,-2.8704,-2.85,-2.8338,-2.8714,-2.8678,-2.7549,-2.6871,-2.6499,-2.6499,-2.6499,-2.6499,-2.6499,-2.6499,-2.6714,-2.7317,-2.8149,0.0,0.0,-3.0703,-3.1278,-3.1511,-3.1511,-3.1511,-3.1511,-3.1511,-3.1511,-3.1511,-3.2718,-3.3417,-3.3608,-3.4776,-3.5407,-3.56,-3.56,-3.56,-3.56,-3.56,-3.56,-3.56,-3.56,-3.56,-3.56,-3.56,-3.56,-3.56,-3.56,-3.56,-3.56,-3.56,-3.5735,-3.5977,-3.6157,-3.7092,-3.8283,-3.9093,-4.0446,-4.185,-4.2458,-4.3039,-4.3515,-4.3515,-4.3515,-4.3515,-4.3515,-4.3515,-4.3515,-4.3515,-4.3515,-4.357,-4.3791,-4.4305,-4.5039,-4.6049,-4.6709,-4.7369,-4.8196,-4.8306,-4.8306,-4.8306,-4.8306,-4.8306,-4.8306,-4.8306,-4.8306,-4.8306,-4.8306,-4.8306,-4.8306,-4.8306,-4.8306,-4.8306,-4.8306,-4.8306,-4.8306,-4.8306,-4.8306,-4.8306,-4.8306,-4.8306,-4.8306,-4.8306,-4.8306,-2.9626,-2.9435,-2.9531,-2.9449,0.0,0.0,-2.9914,-2.9212,-2.8598,-2.969,-2.9599,-2.9343,-2.9407,-2.973,-2.9807,-2.9185,-2.8685,-2.7931,-2.6687,-2.7095,-2.7496,-2.7417,-2.7735,-2.8126,-2.861,-2.9425,-3.0021,-3.0283,-3.1058,-3.1376,-3.1092,-3.1346,-3.1376,-3.1077,-3.1346,-3.1511,-3.1511,-3.2906,-3.3582,-3.3624,-3.4958,-3.56,-3.56,-3.56,-3.56,-3.56,-3.56,-3.56,-3.56,-3.56,-3.56,-3.56,-3.56,-3.56,-3.56,-3.56,-3.56,-3.56,-3.56,-3.56,-3.5701,-3.6343,-3.7192,-3.8158,-3.9449,-4.0753,-4.1976,-4.2622,-4.313,-4.3515,-4.3515,-4.3515,-4.3515,-4.3515,-4.3515,-4.3515,-4.3515,-4.3515,-4.3515,-4.3515,-4.4158,-4.4966,-4.5755,-4.6562,-4.7369,-4.8196,-4.8306,-4.8306,-4.8306,-4.8306,-4.8306,-4.8306,-4.8306,-4.8306,-4.8306,-4.8306,-4.8306,-4.8306,-4.8306,-4.8306,-4.8306,-4.8306,-4.8306,-4.8306,-4.8306,-4.8306,-4.8306,-4.8306,-4.8306,-4.8306,-4.8306,-4.8306,-3.092,-3.0363,-3.0067,-3.0479,-3.0211,0.0,-3.1054,-3.0646,-3.023,-3.0883,-3.0361,-2.9835,-3.0033,-3.0117,-3.0313,-3.0722,-3.1016,-3.019,-2.7383,-2.8271,-2.9177,-2.8993,-2.9635,-3.016,-3.0225,-3.0813,-3.1007,-3.0579,-3.1132,-3.1241,-3.0657,-3.1182,-3.1227,-3.0642,-3.1182,-3.1511,-3.1511,-3.2906,-3.3582,-3.3624,-3.4958,-3.56,-3.56,-3.56,-3.56,-3.56,-3.56,-3.56,-3.56,-3.56,-3.56,-3.56,-3.56,-3.56,-3.56,-3.56,-3.56,-3.56,-3.56,-3.5644,-3.5932,-3.739,-3.8205,-3.9008,-4.1135,-4.208,-4.258,-4.3313,-4.3515,-4.3515,-4.3515,-4.3515,-4.3515,-4.3515,-4.3515,-4.3515,-4.3515,-4.3515,-4.3515,-4.3515,-4.4085,-4.4856,-4.5755,-4.6489,-4.7259,-4.8177,-4.8306,-4.8306,-4.8306,-4.8306,-4.8306,-4.8306,-4.8306,-4.8306,-4.8306,-4.8306,-4.8306,-4.8306,-4.8306,-4.8306,-4.8306,-4.8306,-4.8306,-4.8306,-4.8306,-4.8306,-4.8306,-4.8306,-4.8306,-4.8306,-4.8306,-4.8306,-3.243,-3.2443,-3.242,-3.0902,-3.0879,0.0,-3.0083,-2.9802,-2.9737,-2.9886,-2.9757,-2.9792,-3.0306,-3.0852,-3.0866,-2.9817,-3.108,-3.1712,-3.0311,-3.0405,-3.0594,-3.0571,-3.0685,-3.1063,-3.1697,-3.1432,-3.1442,-3.2035,-3.1707,-3.1451,-3.1316,-3.1436,-3.1451,-3.1316,-3.1436,-3.1511,-3.1511,-3.2906,-3.3582,-3.3624,-3.4958,-3.56,-3.56,-3.56,-3.56,-3.56,-3.56,-3.56,-3.56,-3.56,-3.56,-3.56,-3.56,-3.56,-3.56,-3.56,-3.56,-3.56,-3.56,-3.5876,-3.6383,-3.7344,-3.8692,-4.0129,-4.1228,-4.2359,-4.3313,-4.346,-4.3515,-4.3515,-4.3515,-4.3515,-4.3515,-4.3515,-4.3515,-4.3515,-4.3515,-4.3515,-4.3515,-4.3515,-4.3643,-4.4195,-4.5645,-4.603,-4.6636,-4.8086,-4.8306,-4.8306,-4.8306,-4.8306,-4.8306,-4.8306,-4.8306,-4.8306,-4.8306,-4.8306,-4.8306,-4.8306,-4.8306,-4.8306,-4.8306,-4.8306,-4.8306,-4.8306,-4.8306,-4.8306,-4.8306,-4.8306,-4.8306,-4.8306,-4.8306,-4.8306,-3.3689,-3.3532,-3.3317,-3.2301,-3.1796,0.0,0.0,-3.025,-3.02,-3.0887,-3.0763,-3.0695,-3.1402,-3.1475,-3.133,-3.0955,-3.2064,-3.2821,-3.2304,-3.2251,-3.2224,-3.2099,-3.2471,-3.2922,-3.3304,-3.3027,-3.2757,-3.2527,-3.1869,-3.1346,-3.1017,-3.1316,-3.1346,-3.1002,-3.1331,-3.1511,-3.1511,-3.2906,-3.3582,-3.3624,-3.4958,-3.56,-3.56,-3.56,-3.56,-3.56,-3.56,-3.56,-3.56,-3.56,-3.56,-3.56,-3.56,-3.56,-3.56,-3.56,-3.56,-3.5644,-3.5898,-3.6182,-3.6558,-3.7615,-3.903,-4.0438,-4.1214,-4.2414,-4.3515,-4.3515,-4.3515,-4.3515,-4.3515,-4.3515,-4.3515,-4.3515,-4.3515,-4.3515,-4.3515,-4.3515,-4.3515,-4.3515,-4.3515,-4.401,-4.5626,-4.6232,-4.6911,-4.8122,-4.8306,-4.8306,-4.8306,-4.8306,-4.8306,-4.8306,-4.8306,-4.8306,-4.8306,-4.8306,-4.8306,-4.8306,-4.8306,-4.8306,-4.8306,-4.8306,-4.8306,-4.8306,-4.8306,-4.8306,-4.8306,-4.8306,-4.8306,-4.8306,-4.8306,-4.8104,-3.4709,-3.432,-3.3832,-3.362,-3.2823,-3.194,0.0,0.0,0.0,-3.1718,-3.143,-3.1244,-3.2029,-3.1649,-3.1407,-3.1996,0.0,0.0,0.0,-3.3531,0.0,-3.3477,-3.4179,-3.4698,-3.4698,-3.4593,-3.3978,-3.2796,-3.2064,-3.1451,-3.0911,-3.1271,-3.1256,-3.0717,-3.1212,-3.1553,-3.171,-3.2971,-3.3595,-3.3593,-3.4805,-3.538,-3.538,-3.538,-3.5464,-3.56,-3.56,-3.56,-3.56,-3.56,-3.56,-3.56,-3.56,-3.56,-3.56,-3.56,-3.56,-3.5689,-3.6224,-3.6457,-3.6745,-3.8054,-3.9478,-4.0836,-4.1578,-4.2595,-4.3515,-4.3515,-4.3515,-4.3515,-4.3515,-4.3515,-4.3515,-4.3515,-4.3515,-4.3515,-4.3515,-4.3515,-4.3515,-4.3515,-4.3515,-4.401,-4.5626,-4.6452,-4.7186,-4.8159,-4.8306,-4.8306,-4.8306,-4.8306,-4.8306,-4.8306,-4.8306,-4.8306,-4.8306,-4.8306,-4.8306,-4.8306,-4.8306,-4.8306,-4.8306,-4.8306,-4.8306,-4.8306,-4.8306,-4.8306,-4.8306,-4.8306,-4.8306,-4.8306,-4.8141,-4.7718,-3.5481,-3.5419,-3.5054,-3.3739,-3.378,-3.351,-3.1006,0.0,-3.0997,-2.9968,0.0,-2.984,-3.0529,0.0,0.0,-3.0608,0.0,0.0,-3.2596,-3.3599,-3.4319,-3.4355,-3.4978,-3.5385,0.0,-3.4863,-3.4204,-3.344,-3.2781,-3.2333,-3.2287,-3.178,-3.1466,-3.1391,-3.1466,-3.1824,-3.2465,-3.3209,-3.358,-3.3536,-3.4281,-3.4624,-3.4624,-3.4624,-3.4979,-3.56,-3.56,-3.56,-3.56,-3.56,-3.56,-3.56,-3.56,-3.56,-3.56,-3.56,-3.56,-3.5689,-3.6224,-3.6704,-3.7316,-3.86,-4.0398,-4.2219,-4.3025,-4.3371,-4.3515,-4.3515,-4.3515,-4.3515,-4.3515,-4.3515,-4.3515,-4.3515,-4.3515,-4.3515,-4.3515,-4.3515,-4.3515,-4.3515,-4.3515,-4.401,-4.5626,-4.5975,-4.6544,-4.8067,-4.8306,-4.8306,-4.8306,-4.8306,-4.8306,-4.8306,-4.8306,-4.8306,-4.8306,-4.8306,-4.8306,-4.8306,-4.8306,-4.8306,-4.8306,-4.8306,-4.8306,-4.8306,-4.8306,-4.8306,-4.8306,-4.8306,-4.8306,-4.8288,-4.7571,-4.7186,-3.56,-3.5301,-3.481,-3.4184,-3.3647,-3.2908,-3.1737,-3.1374,-3.1245,-3.1115,0.0,0.0,0.0,0.0,0.0,0.0,-3.1198,0.0,0.0,0.0,-3.4093,-3.4988,0.0,0.0,0.0,0.0,0.0,0.0,-3.3455,-3.2916,-3.2512,-3.2228,-3.1899,-3.1511,-3.1938,-3.2072,-3.1913,-3.2999,-3.3297,-3.2866,-3.3527,-3.3863,-3.388,-3.4303,-3.4675,-3.4962,-3.4962,-3.5194,-3.5566,-3.5148,-3.5397,-3.6054,-3.6054,-3.5876,-3.5672,-3.6312,-3.6316,-3.6165,-3.6983,-3.7433,-3.79,-3.9671,-4.0871,-4.1846,-4.3112,-4.3515,-4.3515,-4.3515,-4.3515,-4.3515,-4.3515,-4.3515,-4.3515,-4.3515,-4.3515,-4.3515,-4.3515,-4.3515,-4.3515,-4.3515,-4.3515,-4.3846,-4.5021,-4.559,-4.6287,-4.7424,-4.8012,-4.8306,-4.8306,-4.8306,-4.8306,-4.8306,-4.8306,-4.8306,-4.8306,-4.8306,-4.8306,-4.8306,-4.8306,-4.8306,-4.8306,-4.7846,-4.759,-4.759,-4.759,-4.759,-4.759,-4.8086,-4.8306,-4.8288,-4.7461,-4.6856,-3.5431,0.0,-3.4438,-3.4252,0.0,-3.2513,-3.209,-3.1752,-3.1667,-3.2192,0.0,0.0,0.0,0.0,-3.1108,-3.0945,0.0,-3.166,0.0,-3.2441,0.0,0.0,0.0,0.0,0.0,0.0,0.0,0.0,0.0,-3.3366,-3.3064,-3.2691,-3.2301,-3.1811,-3.2327,-3.2326,-3.1727,-3.2894,-3.3123,-3.2387,-3.2874,-3.3102,-3.3119,-3.3643,-3.402,-3.4201,-3.4404,-3.4793,-3.5261,-3.4945,-3.5446,-3.6416,-3.656,-3.6395,-3.6122,-3.6904,-3.6943,-3.6744,-3.7596,-3.7997,-3.8437,-4.0447,-4.1095,-4.1389,-4.3002,-4.3515,-4.3515,-4.3515,-4.3515,-4.3515,-4.3515,-4.3515,-4.3515,-4.3515,-4.3515,-4.3515,-4.3515,-4.3515,-4.3515,-4.3515,-4.3515,-4.3681,-4.4268,-4.5039,-4.592,-4.6947,-4.759,-4.7957,-4.7957,-4.8159,-4.8233,-4.7975,-4.8177,-4.8306,-4.8306,-4.8306,-4.8214,-4.7975,-4.7957,-4.7884,-4.7664,-4.7278,-4.7003,-4.6764,-4.6984,-4.7094,-4.7094,-4.7901,-4.8306,-4.8288,-4.7241,-4.6471,0.0,0.0,0.0,-3.3609,0.0,0.0,0.0,0.0,-3.2276,0.0,0.0,0.0,-3.3351,-3.3334,-3.306,-3.235,-3.2249,0.0,0.0,-3.2317,-3.2635,0.0,0.0,0.0,0.0,-3.4514,-3.4482,0.0,-3.3858,0.0,-3.4394,-3.3198,-3.2504,-3.2563,-3.2602,-3.2567,-3.2474,-3.3144,-3.3101,-3.2307,-3.2307,-3.2344,-3.2344,-3.2361,-3.2767,-3.3491,-3.4184,-3.4506,-3.459,-3.5278,-3.5885,-3.6457,-3.698,-3.7154,-3.7135,-3.719,-3.7173,-3.7229,-3.7737,-3.8251,-3.8933,-4.0563,-4.1095,-4.1389,-4.3002,-4.3515,-4.3515,-4.3515,-4.3515,-4.3515,-4.3515,-4.3515,-4.3515,-4.3515,-4.3515,-4.3515,-4.3515,-4.3515,-4.3515,-4.3515,-4.3515,-4.3515,-4.3533,-4.4213,-4.5278,-4.6856,-4.7113,-4.7131,-4.7131,-4.781,-4.8012,-4.7223,-4.7828,-4.8306,-4.8306,-4.8306,-4.7957,-4.7186,-4.7131,-4.6782,-4.6012,-4.6691,-4.6727,-4.5957,-4.6691,-4.7094,-4.7094,-4.7901,-4.8306,-4.8269,-4.6673,-4.592,0.0,0.0,-3.3972,-3.4273,0.0,0.0,0.0,0.0,0.0,0.0,0.0,0.0,0.0,-3.4148,-3.3859,-3.3604,-3.2841,-3.2293,0.0,-3.2293,0.0,-3.2674,-3.3946,-3.4732,0.0,0.0,0.0,0.0,-3.5743,0.0,0.0,-3.4864,-3.4191,-3.3293,-3.3684,-3.3672,-3.3168,-3.335,-3.3064,-3.2293,-3.1819,-3.1582,-3.1599,-3.209,-3.2446,-3.2699,-3.2936,-3.3305,-3.3766,-3.3847,-3.4775,-3.617,-3.6684,-3.7409,-3.8185,-3.8185,-3.7964,-3.7755,-3.8251,-3.8546,-3.8891,-3.9955,-4.0304,-4.0616,-4.2213,-4.2708,-4.2818,-4.3349,-4.3515,-4.3515,-4.3515,-4.3515,-4.3515,-4.3515,-4.3515,-4.3515,-4.3515,-4.3515,-4.3515,-4.3515,-4.3515,-4.3515,-4.3515,-4.3718,-4.4268,-4.5351,-4.5957,-4.6305,-4.6305,-4.6544,-4.6617,-4.6342,-4.7021,-4.7278,-4.6764,-4.6709,-4.6599,-4.6324,-4.6305,-4.6177,-4.5902,-4.5663,-4.5645,-4.5883,-4.6177,-4.6562,-4.7094,-4.7901,-4.8306,-4.8269,-4.6654,-4.5902,-3.4358,-3.4074,0.0,-3.4235,-3.3633,0.0,-3.3578,0.0,-3.3473,0.0,0.0,0.0,0.0,-3.5078,-3.4993,-3.4136,-3.3542,-3.2943,0.0,-3.211,-3.2171,-3.228,-3.3555,-3.4379,-3.4219,-3.483,-3.5546,-3.6302,-3.6354,0.0,0.0,0.0,-3.5273,-3.4383,-3.4513,-3.4246,-3.3515,-3.3443,-3.3034,-3.2293,-3.1565,-3.119,-3.1207,-3.1701,-3.1921,-3.1921,-3.2192,-3.2666,-3.329,-3.3665,-3.4774,-3.631,-3.6892,-3.778,-3.8707,-3.8707,-3.8481,-3.8232,-3.8578,-3.8707,-3.8836,-3.9643,-3.99,-4.0139,-4.1479,-4.2066,-4.2415,-4.2928,-4.3277,-4.3515,-4.3515,-4.3515,-4.3515,-4.3515,-4.3515,-4.3515,-4.3515,-4.3515,-4.3515,-4.3515,-4.3515,-4.3515,-4.3515,-4.3515,-4.3754,-4.458,-4.5149,-4.548,-4.548,-4.5718,-4.5792,-4.5498,-4.6195,-4.6471,-4.5938,-4.5645,-4.548,-4.548,-4.548,-4.5333,-4.5057,-4.4819,-4.4947,-4.5461,-4.5755,-4.6305,-4.7094,-4.7608,-4.8012,-4.8251,-4.6361,-4.5773]},{"header":{"parameterUnit":"m.s-1","parameterCategory":1,"la1":30.6,"la2":29.2853,"lo1":-89.7004,"lo2":-87.6739,"dy":0.0162,"dx":0.0183,"nx":112,"ny":82,"refTime":"2024-06-28T12:00:00:Z","depth":0,"parameterNumber":3,"parameterNumberName":"V-component_of_WINDS"},"data":[0.0,0.0,0.0,0.0,0.0,0.0,0.0,0.0,0.0,0.0,0.0,0.0,0.0,0.0,0.0,0.0,0.0,0.0,0.0,0.0,0.0,0.0,0.0,0.0,0.0,0.0,0.0,0.0,0.0,0.0,0.0,0.0,0.0,0.0,0.0,0.0,0.0,0.0,0.0,0.0,0.0,0.0,0.0,0.0,0.0,0.0,0.0,0.0,0.0,0.0,0.0,0.0,0.0,0.0,0.0,0.0,0.0,0.0,0.0,0.0,0.0,0.0,0.0,0.0,0.0,0.0,0.0,0.0,0.0,0.0,0.0,0.0,0.0,0.0,0.0,0.0,0.0,0.0,0.0,0.0,0.0,0.0,0.0,0.0,0.0,0.0,0.0,0.0,0.0,0.0,2.207,2.2559,2.2886,2.3091,2.3091,2.2974,2.2295,2.0801,0.0,0.0,0.0,0.0,0.0,0.0,0.0,0.0,0.0,0.0,0.0,0.0,0.0,0.0,0.0,0.0,0.0,0.0,0.0,0.0,0.0,0.0,0.0,0.0,0.0,0.0,0.0,0.0,0.0,0.0,0.0,0.0,0.0,0.0,0.0,0.0,0.0,0.0,0.0,0.0,0.0,0.0,0.0,0.0,0.0,0.0,0.0,0.0,0.0,0.0,0.0,0.0,0.0,0.0,0.0,0.0,0.0,0.0,0.0,0.0,0.0,0.0,0.0,0.0,0.0,0.0,0.0,0.0,0.0,0.0,0.0,0.0,0.0,0.0,0.0,0.0,0.0,0.0,0.0,0.0,0.0,0.0,0.0,0.0,0.0,0.0,0.0,0.0,0.0,0.0,0.0,0.0,0.0,0.0,0.0,0.0,0.0,0.0,0.0,0.0,0.0,0.0,0.0,0.0,2.2178,2.2916,2.3052,2.3091,2.3091,2.248,2.1807,2.1132,0.0,0.0,0.0,0.0,0.0,0.0,0.0,0.0,0.0,0.0,0.0,0.0,0.0,0.0,0.0,0.0,0.0,0.0,0.0,0.0,0.0,0.0,0.0,0.0,0.0,0.0,0.0,0.0,0.0,0.0,0.0,0.0,0.0,0.0,0.0,0.0,0.0,0.0,0.0,0.0,0.0,0.0,0.0,0.0,0.0,0.0,0.0,0.0,0.0,0.0,0.0,0.0,0.0,0.0,0.0,0.0,0.0,0.0,0.0,0.0,0.0,0.0,0.0,0.0,0.0,0.0,0.0,0.0,0.0,0.0,0.0,0.0,0.0,0.0,0.0,0.0,0.0,0.0,0.0,0.0,0.0,0.0,0.0,0.0,0.0,0.0,0.0,0.0,0.0,0.0,0.0,0.0,0.0,0.0,0.0,0.0,0.0,0.0,0.0,0.0,0.0,0.0,0.0,2.1973,2.2461,2.3033,2.2492,2.2403,2.3047,2.195,2.1135,2.0888,2.0459,0.0,0.0,0.0,0.0,0.0,0.0,0.0,0.0,0.0,0.0,0.0,0.0,0.0,0.0,0.0,0.0,0.0,0.0,0.0,0.0,0.0,0.0,0.0,0.0,0.0,0.0,0.0,0.0,0.0,0.0,0.0,0.0,0.0,0.0,0.0,0.0,0.0,0.0,0.0,0.0,0.0,0.0,0.0,0.0,0.0,0.0,0.0,0.0,0.0,0.0,0.0,0.0,0.0,0.0,0.0,0.0,0.0,0.0,0.0,0.0,0.0,0.0,0.0,0.0,0.0,0.0,0.0,0.0,0.0,0.0,0.0,0.0,0.0,0.0,0.0,0.0,0.0,0.0,0.0,0.0,0.0,0.0,0.0,0.0,0.0,0.0,0.0,0.0,0.0,0.0,0.0,0.0,0.0,0.0,0.0,0.0,0.0,0.0,0.0,0.0,0.0,0.0,2.2539,2.274,2.3062,2.2031,2.1658,2.2589,2.1265,2.0305,2.0146,1.981,0.0,0.0,0.0,0.0,0.0,0.0,0.0,0.0,0.0,0.0,0.0,0.0,0.0,0.0,0.0,0.0,0.0,0.0,0.0,0.0,0.0,0.0,0.0,0.0,0.0,0.0,0.0,0.0,0.0,0.0,0.0,0.0,0.0,0.0,0.0,0.0,0.0,0.0,0.0,0.0,0.0,0.0,0.0,0.0,0.0,0.0,0.0,0.0,0.0,0.0,0.0,0.0,0.0,0.0,0.0,0.0,0.0,0.0,0.0,0.0,0.0,0.0,0.0,0.0,0.0,0.0,0.0,0.0,0.0,0.0,0.0,0.0,0.0,0.0,0.0,0.0,0.0,0.0,0.0,0.0,0.0,0.0,0.0,0.0,0.0,0.0,0.0,0.0,0.0,0.0,0.0,0.0,0.0,0.0,0.0,0.0,0.0,0.0,0.0,0.0,0.0,0.0,2.2607,2.3062,2.3091,2.2031,2.1337,2.1436,2.0222,1.9304,1.8847,1.8759,0.0,0.0,0.0,0.0,0.0,0.0,0.0,0.0,0.0,0.0,0.0,0.0,0.0,0.0,0.0,0.0,0.0,0.0,0.0,0.0,0.0,0.0,0.0,0.0,0.0,0.0,0.0,0.0,0.0,0.0,0.0,0.0,0.0,0.0,0.0,0.0,0.0,0.0,0.0,0.0,0.0,0.0,0.0,0.0,0.0,0.0,0.0,0.0,0.0,0.0,0.0,0.0,0.0,0.0,0.0,0.0,0.0,0.0,0.0,0.0,0.0,0.0,0.0,0.0,0.0,0.0,0.0,0.0,0.0,0.0,0.0,0.0,0.0,0.0,0.0,0.0,0.0,0.0,0.0,0.0,0.0,0.0,0.0,0.0,0.0,0.0,0.0,0.0,0.0,0.0,0.0,0.0,0.0,0.0,0.0,0.0,0.0,0.0,0.0,0.0,0.0,0.0,2.2393,2.2808,2.3062,2.2031,2.1293,2.1293,2.035,1.946,1.8745,0.0,0.0,0.0,0.0,0.0,0.0,0.0,0.0,0.0,0.0,0.0,0.0,0.0,0.0,0.0,0.0,0.0,0.0,0.0,0.0,0.0,0.0,0.0,0.0,0.0,0.0,0.0,0.0,0.0,0.0,0.0,0.0,0.0,0.0,0.0,0.0,0.0,0.0,0.0,0.0,0.0,0.0,0.0,0.0,0.0,0.0,0.0,0.0,0.0,0.0,0.0,0.0,0.0,0.0,0.0,0.0,0.0,0.0,0.0,0.0,0.0,0.0,0.0,0.0,0.0,0.0,0.0,0.0,0.0,0.0,0.0,0.0,0.0,0.0,0.0,0.0,0.0,0.0,0.0,0.0,0.0,0.0,0.0,0.0,0.0,0.0,0.0,0.0,0.0,0.0,0.0,0.0,0.0,0.0,0.0,0.0,0.0,0.0,0.0,0.0,0.0,0.0,2.1738,2.2373,2.2822,2.3062,2.2031,2.1248,2.1121,2.0296,1.9433,1.8567,0.0,0.0,0.0,0.0,0.0,0.0,0.0,0.0,0.0,0.0,0.0,0.0,0.0,0.0,0.0,0.0,0.0,0.0,0.0,0.0,0.0,0.0,0.0,0.0,0.0,0.0,0.0,0.0,0.0,0.0,0.0,0.0,0.0,0.0,0.0,0.0,0.0,0.0,0.0,0.0,0.0,0.0,0.0,0.0,0.0,0.0,0.0,0.0,0.0,0.0,0.0,0.0,0.0,0.0,0.0,0.0,0.0,0.0,0.0,0.0,0.0,0.0,0.0,0.0,0.0,0.0,0.0,0.0,0.0,0.0,0.0,0.0,0.0,0.0,0.0,0.0,0.0,0.0,0.0,0.0,0.0,0.0,0.0,0.0,0.0,0.0,0.0,0.0,0.0,0.0,0.0,0.0,0.0,0.0,0.0,0.0,0.0,0.0,0.0,0.0,0.0,0.0,2.1768,2.2617,2.3091,2.3091,2.2031,2.113,2.0752,1.991,1.9039,0.0,0.0,0.0,0.0,0.0,0.0,0.0,0.0,0.0,0.0,0.0,0.0,0.0,0.0,0.0,0.0,0.0,0.0,0.0,0.0,0.0,0.0,0.0,0.0,0.0,0.0,0.0,0.0,0.0,0.0,0.0,0.0,0.0,0.0,0.0,0.0,0.0,0.0,0.0,0.0,0.0,0.0,0.0,0.0,0.0,0.0,0.0,0.0,0.0,0.0,0.0,0.0,0.0,0.0,0.0,0.0,0.0,0.0,0.0,0.0,0.0,0.0,0.0,0.0,0.0,0.0,0.0,0.0,0.0,0.0,0.0,0.0,0.0,0.0,0.0,0.0,0.0,0.0,0.0,0.0,0.0,0.0,0.0,0.0,0.0,0.0,0.0,0.0,0.0,0.0,0.0,0.0,0.0,0.0,0.0,0.0,0.0,0.0,0.0,0.0,0.0,0.0,0.0,2.1768,2.2617,2.3091,2.3091,2.2775,2.2048,2.0795,2.0992,2.0308,1.8231,0.0,0.0,0.0,0.0,0.0,0.0,0.0,0.0,0.0,0.0,0.0,0.0,0.0,0.0,0.0,0.0,0.0,0.0,0.0,0.0,0.0,0.0,0.0,0.0,0.0,0.0,0.0,0.0,0.0,0.0,0.0,0.0,0.0,0.0,0.0,0.0,0.0,0.0,0.0,0.0,0.0,0.0,0.0,0.0,0.0,0.0,0.0,0.0,0.0,0.0,0.0,0.0,0.0,0.0,0.0,0.0,0.0,0.0,0.0,0.0,0.0,0.0,0.0,0.0,0.0,0.0,0.0,0.0,0.0,0.0,0.0,0.0,0.0,0.0,0.0,0.0,0.0,0.0,0.0,0.0,0.0,0.0,0.0,0.0,0.0,0.0,0.0,0.0,0.0,0.0,0.0,0.0,0.0,0.0,0.0,0.0,0.0,0.0,0.0,0.0,0.0,0.0,2.1768,2.2617,2.3033,2.2867,2.2847,2.2327,2.0997,2.1336,2.0736,1.8703,0.0,0.0,0.0,0.0,0.0,0.0,0.0,0.0,0.0,0.0,0.0,0.0,0.0,0.0,0.0,0.0,0.0,0.0,0.0,0.0,0.0,0.0,0.0,0.0,0.0,0.0,0.0,0.0,0.0,0.0,0.0,0.0,0.0,0.0,0.0,0.0,0.0,0.0,0.0,0.0,0.0,0.0,0.0,0.0,0.0,0.0,0.0,0.0,0.0,0.0,0.0,0.0,0.0,0.0,0.0,0.0,0.0,0.0,0.0,0.0,0.0,0.0,0.0,0.0,0.0,0.0,0.0,0.0,0.0,0.0,0.0,0.0,0.0,0.0,0.0,0.0,0.0,0.0,0.0,0.0,0.0,0.0,0.0,0.0,0.0,0.0,0.0,0.0,0.0,0.0,0.0,0.0,0.0,0.0,0.0,0.0,0.0,0.0,0.0,0.0,0.0,0.0,2.1768,2.2588,2.2886,2.2549,2.248,2.2129,2.1268,2.119,2.0654,1.9424,0.0,0.0,0.0,0.0,0.0,0.0,0.0,0.0,0.0,0.0,0.0,0.0,0.0,0.0,0.0,0.0,0.0,0.0,0.0,0.0,0.0,0.0,0.0,0.0,0.0,0.0,0.0,0.0,0.0,0.0,0.0,0.0,0.0,0.0,0.0,0.0,0.0,0.0,0.0,0.0,0.0,0.0,0.0,0.0,0.0,0.0,0.0,0.0,0.0,0.0,0.0,0.0,0.0,0.0,0.0,0.0,0.0,0.0,0.0,0.0,2.1151,0.0,0.0,0.0,0.0,0.0,0.0,0.0,0.0,0.0,0.0,0.0,0.0,0.0,0.0,0.0,0.0,0.0,0.0,0.0,0.0,0.0,0.0,0.0,0.0,0.0,0.0,0.0,0.0,0.0,0.0,0.0,0.0,0.0,0.0,0.0,0.0,0.0,0.0,0.0,0.0,0.0,2.1768,2.2334,2.2607,2.2519,2.2217,2.1807,2.1239,2.119,2.0781,1.9844,1.9385,0.0,0.0,0.0,0.0,0.0,0.0,0.0,0.0,0.0,0.0,0.0,0.0,0.0,0.0,0.0,0.0,0.0,0.0,0.0,0.0,0.0,0.0,0.0,0.0,0.0,0.0,0.0,0.0,0.0,0.0,0.0,0.0,0.0,0.0,0.0,0.0,0.0,0.0,0.0,0.0,0.0,0.0,0.0,0.0,0.0,0.0,0.0,0.0,0.0,0.0,0.0,0.0,0.0,0.0,0.0,0.0,0.0,0.0,0.0,0.0,2.1973,0.0,0.0,0.0,0.0,0.0,0.0,0.0,0.0,0.0,0.0,0.0,0.0,0.0,0.0,0.0,0.0,0.0,0.0,0.0,0.0,0.0,0.0,0.0,0.0,0.0,0.0,0.0,0.0,0.0,0.0,0.0,0.0,0.0,0.0,0.0,0.0,0.0,0.0,0.0,0.0,2.1514,2.2119,2.2353,2.1902,2.1699,2.1396,2.0947,2.0908,2.0625,1.9951,1.9326,0.0,0.0,0.0,0.0,0.0,0.0,0.0,0.0,0.0,0.0,0.0,0.0,0.0,0.0,0.0,0.0,0.0,0.0,0.0,0.0,0.0,0.0,0.0,0.0,0.0,0.0,0.0,0.0,0.0,0.0,0.0,0.0,0.0,0.0,0.0,0.0,0.0,0.0,0.0,0.0,0.0,0.0,0.0,0.0,0.0,0.0,0.0,0.0,0.0,0.0,0.0,0.0,0.0,2.3686,2.374,2.4004,2.3697,2.3687,2.3867,2.3232,2.291,2.2832,2.2685,0.0,0.0,0.0,0.0,0.0,0.0,0.0,0.0,0.0,0.0,0.0,0.0,0.0,0.0,0.0,0.0,0.0,0.0,0.0,0.0,0.0,0.0,0.0,0.0,2.2068,2.2324,0.0,0.0,0.0,0.0,0.0,0.0,0.0,0.0,0.0,0.0,0.0,0.0,2.119,2.1882,2.21,2.1278,2.1122,2.0967,2.0635,2.0605,2.0449,2.0049,1.926,1.8666,0.0,0.0,0.0,0.0,0.0,0.0,0.0,0.0,0.0,0.0,0.0,0.0,0.0,0.0,0.0,0.0,0.0,0.0,0.0,0.0,0.0,0.0,0.0,0.0,0.0,0.0,0.0,0.0,0.0,0.0,0.0,0.0,2.5322,2.6084,0.0,0.0,0.0,0.0,0.0,0.0,0.0,0.0,0.0,0.0,0.0,0.0,0.0,2.3428,2.416,2.46,2.4891,2.4949,2.5234,2.5225,2.4949,2.4891,2.4639,2.4346,2.4619,0.0,2.4111,2.3315,0.0,0.0,0.0,0.0,0.0,0.0,0.0,0.0,0.0,0.0,0.0,0.0,0.0,0.0,0.0,0.0,0.0,0.0,0.0,0.0,0.0,0.0,2.2847,2.2847,2.2925,2.2964,0.0,2.1931,2.1161,2.1044,2.0791,0.0,0.0,0.0,0.0,0.0,0.0,0.0,2.119,2.167,2.1787,2.1249,2.0889,2.0674,2.0605,2.0605,2.0576,2.0517,2.0019,1.9679,1.9668,1.8545,0.0,0.0,0.0,0.0,0.0,0.0,0.0,0.0,0.0,0.0,0.0,0.0,0.0,0.0,0.0,0.0,0.0,0.0,0.0,0.0,0.0,0.0,0.0,0.0,0.0,0.0,0.0,0.0,0.0,2.4531,2.6084,2.6021,2.6575,2.6927,0.0,0.0,0.0,0.0,0.0,0.0,0.0,0.0,0.0,2.423,2.3999,2.416,2.4775,2.5225,2.5439,2.5449,2.5644,2.5586,2.5439,2.5439,2.5342,2.5118,2.5361,2.5332,2.506,2.4482,2.4082,2.3754,0.0,0.0,0.0,0.0,2.2803,2.2656,2.3144,2.3154,2.2881,2.2393,0.0,0.0,0.0,0.0,0.0,0.0,0.0,0.0,0.0,0.0,2.2808,2.3042,2.3286,2.3506,2.3506,2.3066,2.2529,0.0,2.2178,2.2012,2.081,0.0,0.0,0.0,0.0,2.1865,2.1631,2.1768,2.1719,2.1239,2.083,2.0605,2.0605,2.0605,2.0605,2.0605,2.0156,1.9912,1.9912,1.915,1.8613,0.0,0.0,0.0,0.0,0.0,0.0,0.0,0.0,0.0,0.0,0.0,0.0,0.0,0.0,0.0,0.0,0.0,0.0,0.0,0.0,0.0,0.0,0.0,0.0,0.0,0.0,0.0,0.0,2.5689,2.66,2.6276,2.7105,2.7494,0.0,0.0,0.0,0.0,0.0,0.0,2.6084,2.5788,2.5604,2.5471,2.5517,2.5731,2.6178,2.6486,2.6476,2.6207,2.6207,2.6014,2.5693,2.5693,2.5693,2.5693,2.5693,2.5693,2.5654,2.5254,2.4873,2.4541,2.4121,2.3945,2.3945,2.3945,2.3672,2.3354,2.4033,2.3984,2.3535,2.3008,2.2764,2.2471,2.1387,0.0,0.0,0.0,0.0,2.2275,2.2598,2.2676,2.2711,2.3023,2.3389,2.3623,2.3623,2.3711,2.3603,0.0,2.3262,2.3184,2.1756,0.0,0.0,0.0,0.0,2.2353,2.1934,2.1982,2.1836,2.1249,2.0937,2.0723,2.0615,2.0605,2.0605,2.0605,2.0254,2.0078,2.0078,1.9668,1.9297,1.8929,0.0,0.0,0.0,0.0,0.0,0.0,0.0,0.0,0.0,0.0,0.0,0.0,0.0,0.0,0.0,0.0,0.0,0.0,0.0,0.0,0.0,0.0,0.0,0.0,0.0,0.0,0.0,0.0,0.0,2.7921,2.8449,0.0,0.0,0.0,0.0,2.9539,3.009,3.0588,3.1019,3.0072,2.9681,3.0083,2.9111,2.879,2.9179,2.9212,2.8634,2.7494,2.7494,2.6849,2.5693,2.5693,2.5693,2.5693,2.5693,2.5693,2.5654,2.5254,2.5106,2.5037,2.4551,2.4385,2.4385,2.4385,2.4121,2.3769,2.3809,2.3535,2.3188,2.3603,2.3447,2.2974,2.2559,2.2432,0.0,0.0,2.2721,2.3033,2.3062,2.3062,2.3062,2.3091,2.311,2.313,2.313,2.3496,2.3779,0.0,2.3428,2.2974,2.2539,0.0,2.2334,2.1924,2.2227,2.2353,2.1934,2.2236,2.2158,2.1278,2.1171,2.1025,2.0635,2.0605,2.0605,2.0605,2.0586,2.0566,2.0566,2.0117,1.9873,1.9853,1.9017,0.0,0.0,0.0,0.0,0.0,0.0,0.0,0.0,0.0,0.0,0.0,0.0,0.0,0.0,0.0,0.0,0.0,0.0,0.0,0.0,0.0,0.0,0.0,0.0,0.0,0.0,0.0,0.0,2.8574,2.9139,0.0,2.9214,2.9691,3.0066,3.0306,3.0809,3.1009,3.0749,3.039,3.0055,2.9759,2.9376,2.9228,2.9407,2.9407,2.9177,2.8773,2.7955,2.7352,2.6897,2.6062,2.5693,2.5693,2.5693,2.5693,2.5674,2.5566,2.5498,2.5488,2.5274,2.5216,2.5234,2.4941,2.4736,2.457,2.4287,2.4092,2.3945,2.3828,2.3496,2.3062,2.2916,2.2877,2.2877,2.2877,2.2984,2.3091,2.3091,2.3091,2.3091,2.3091,2.3091,2.3091,2.3091,2.3218,2.3369,2.3369,2.3467,2.333,2.2637,2.2691,2.273,2.2353,2.2646,2.2818,2.2672,2.2588,2.2393,2.209,2.1816,2.1475,2.1035,2.0996,2.0869,2.0625,2.0605,2.0605,2.0605,2.0458,2.0195,1.9922,1.9572,1.9017,0.0,0.0,0.0,0.0,0.0,0.0,0.0,0.0,0.0,0.0,0.0,0.0,0.0,0.0,0.0,0.0,0.0,0.0,0.0,0.0,0.0,0.0,0.0,0.0,0.0,2.9233,2.9363,2.9227,2.9729,3.0068,3.0068,3.0733,3.116,3.116,3.165,3.1767,3.1319,3.13,3.1097,3.0676,3.0643,3.0643,3.0643,3.0643,3.0406,3.0,2.9177,2.8412,2.7589,2.6716,2.6342,2.6342,2.5878,2.5917,2.6294,2.5878,2.5596,2.5527,2.5625,2.5644,2.5478,2.5176,2.493,2.457,2.4131,2.3939,2.3945,2.3662,2.3335,2.3091,2.3091,2.3091,2.3091,2.3091,2.3091,2.3091,2.3091,2.3091,2.3091,2.3091,2.3091,2.3091,2.3091,2.3091,2.3091,2.3091,2.3369,2.3389,2.2822,2.2916,2.3003,2.2721,2.2916,2.3091,2.3091,2.2847,2.2676,2.2529,2.2266,2.1924,2.1484,2.1278,2.1132,2.1055,2.0772,2.0674,2.0781,2.0508,2.0283,2.0137,2.0137,1.9717,1.8867,0.0,0.0,0.0,0.0,0.0,0.0,0.0,0.0,0.0,0.0,0.0,0.0,0.0,0.0,0.0,0.0,0.0,0.0,0.0,0.0,0.0,0.0,0.0,3.1723,3.0971,3.0322,2.9985,3.0331,3.067,3.0696,3.1637,3.224,3.224,3.2754,3.3124,3.3124,3.3124,3.3124,3.3124,3.3124,3.3124,3.3124,3.3124,3.2469,3.1267,3.1223,2.9954,2.7636,2.7636,2.7589,2.7447,2.6245,2.638,2.7426,2.6177,2.5449,2.5145,2.5537,2.5439,2.5096,2.5077,2.4538,2.3711,2.3247,2.3091,2.3091,2.3091,2.3091,2.3091,2.3091,2.3091,2.3091,2.3091,2.3091,2.3091,2.3091,2.3091,2.3091,2.3091,2.3091,2.3091,2.3091,2.3091,2.3091,2.3091,2.3091,2.3091,2.3091,2.3091,2.3091,2.3091,2.3091,0.0,2.3091,2.3091,2.2945,2.2578,2.2529,2.2363,2.1943,2.1514,2.1405,2.1836,2.1104,2.0781,2.1181,2.0372,2.0156,2.0635,2.0635,2.0625,2.0625,0.0,0.0,0.0,0.0,0.0,0.0,0.0,0.0,0.0,0.0,0.0,0.0,0.0,0.0,0.0,0.0,0.0,0.0,0.0,0.0,0.0,3.388,3.427,3.3468,3.23,3.1831,3.2607,3.2141,3.1938,3.2365,3.2667,3.2842,3.2842,3.2993,3.3124,3.3124,3.3124,3.3124,3.3124,3.3124,3.3124,3.3124,3.3124,3.2927,3.2568,3.1633,3.0406,2.8866,2.8002,2.7078,2.6197,2.583,2.573,2.5757,2.5387,2.499,2.4639,2.5078,2.498,2.456,2.4248,2.3789,2.3257,2.314,2.3091,2.3091,2.3091,2.3091,2.3091,2.3091,2.3091,2.3091,2.3091,2.3091,2.3091,2.3091,2.3091,2.3091,2.3091,2.3091,2.3091,2.3091,2.3091,2.3091,2.3091,2.3091,2.3091,2.3091,2.3091,2.3091,2.3091,2.3091,0.0,2.3091,2.3091,2.3052,2.2935,2.2925,2.275,2.2373,2.2227,2.1953,2.1405,2.1182,2.1064,2.119,2.0956,2.1074,2.1514,2.1211,2.1055,0.0,0.0,0.0,0.0,0.0,0.0,0.0,0.0,0.0,0.0,0.0,0.0,0.0,0.0,0.0,0.0,0.0,0.0,0.0,0.0,0.0,0.0,3.5444,3.6172,3.5869,3.4226,3.3188,3.3728,3.2829,3.2441,3.3061,3.3124,3.3124,3.3124,3.3124,3.3124,3.3124,3.3124,3.3124,3.3124,3.3124,3.3124,3.3124,3.3124,3.3124,3.3081,3.2326,3.1089,2.9407,2.9177,2.8132,2.6476,2.6476,2.6262,2.5792,2.5295,2.4707,0.0,0.0,0.0,0.0,0.0,2.3315,2.3091,2.3091,2.3091,2.3091,2.3091,2.3091,2.3091,2.3091,2.3091,2.3091,2.3091,2.3091,2.3091,2.3091,2.3091,2.3091,2.3091,2.3091,2.3091,2.3091,2.3091,2.3091,2.3091,2.3091,0.0,2.3091,2.3091,2.3091,2.3091,2.3091,2.3091,2.3091,2.3091,2.3091,2.3091,2.3091,2.3003,2.275,2.2617,0.0,0.0,0.0,2.1426,2.12,2.1375,0.0,0.0,0.0,0.0,0.0,0.0,0.0,0.0,2.2051,2.2122,0.0,0.0,0.0,0.0,0.0,0.0,0.0,0.0,0.0,0.0,0.0,0.0,0.0,0.0,0.0,0.0,3.6626,3.7644,3.8302,3.6193,3.441,3.4046,3.3034,3.2529,3.2973,3.3043,3.3124,3.3124,3.3124,3.3124,3.3124,0.0,0.0,0.0,0.0,3.3124,3.3124,3.3124,3.3124,3.3124,3.3124,3.1877,2.9636,3.0586,2.9761,2.7589,2.7395,2.7056,2.6536,2.5391,2.4443,2.375,2.4131,2.4043,2.3672,2.3237,2.3091,2.3091,2.3091,0.0,0.0,2.3091,2.3091,2.3091,2.3091,2.3091,2.3091,2.3091,2.3091,2.3091,2.3091,2.3091,2.3091,2.3091,2.3091,2.3091,2.3091,2.3091,2.3091,2.3091,2.3091,2.3091,2.3091,2.3091,2.3091,2.3091,2.3091,2.3091,2.3091,2.3091,2.3091,2.3091,0.0,0.0,2.3091,2.275,2.2682,2.3003,2.2373,2.1787,2.1356,2.1797,2.2031,2.2031,2.2393,2.2721,2.3091,2.3091,2.3091,2.3081,2.2422,2.2552,0.0,0.0,0.0,0.0,0.0,0.0,0.0,0.0,0.0,0.0,0.0,0.0,0.0,0.0,0.0,3.6178,3.6926,3.7644,3.8302,3.6778,3.5501,3.5118,3.41,3.314,3.2449,3.2805,3.3124,3.3124,3.3124,3.3124,3.3124,3.3124,3.3124,3.3124,3.3124,3.3124,3.3124,3.3124,3.3124,3.3124,0.0,0.0,3.081,3.009,2.8958,2.7521,2.6178,2.5307,2.4825,2.4261,2.373,2.3227,2.3305,2.3296,2.3208,2.312,2.3091,2.3091,2.3091,2.3091,2.3091,2.3091,2.3091,2.3091,2.3091,2.3091,0.0,2.3091,2.3091,2.3091,2.3091,2.3091,2.3091,2.3091,2.3091,2.3091,2.3091,2.3091,2.3091,2.3091,2.3091,2.3091,2.3091,2.3091,2.3091,2.3091,2.3091,2.3091,2.3091,2.3091,2.3091,2.3091,2.3091,2.3091,2.3091,2.3023,2.2867,2.2646,2.248,2.2353,2.2266,2.2676,2.2847,2.2847,2.2925,2.3013,2.3091,2.3091,2.3091,2.3101,2.333,2.3506,0.0,0.0,0.0,0.0,0.0,0.0,0.0,0.0,0.0,0.0,0.0,3.3709,3.4382,0.0,3.6671,3.733,3.7704,3.8018,3.8347,3.7124,3.5869,3.4992,3.3921,3.2955,3.2261,3.2466,3.2767,3.3099,3.3124,3.3124,3.3124,3.3124,3.3124,3.3124,3.3124,3.3124,3.3124,3.3124,3.3124,3.3124,3.3124,3.2426,3.1166,3.0586,2.9315,2.7568,2.6453,2.5411,2.4365,2.373,2.3286,2.3091,2.3091,2.3091,2.3091,2.3091,2.3091,2.3091,2.3091,2.3091,2.3091,2.3091,2.3091,2.3091,2.3091,2.3091,2.3091,2.3091,2.3091,2.3091,2.3091,2.3091,2.3091,2.3091,2.3091,2.3091,2.3091,2.3091,2.3091,2.3091,2.3091,2.3091,2.3091,2.3091,2.3091,2.3091,2.3091,2.3091,2.3091,2.3091,2.3091,2.3091,2.3091,2.3091,2.3091,2.3091,2.3003,2.2789,2.2779,2.2779,2.2779,2.2984,2.3091,2.3091,2.3091,2.3091,2.3091,2.3091,2.3091,2.311,2.3584,2.3906,0.0,0.0,0.0,0.0,0.0,0.0,0.0,3.2678,3.315,3.3757,3.4307,3.504,3.6267,3.6985,3.7629,3.8287,3.8287,3.8197,3.8197,3.7105,3.5742,3.4224,3.3376,3.2699,3.2113,3.2152,3.2453,3.3031,3.3124,3.3124,3.3124,3.3124,3.3124,3.3124,3.3124,3.3124,3.3124,3.3124,3.3124,3.3124,3.3124,3.2568,3.1545,3.1089,2.9761,2.7785,2.6727,2.5462,2.4066,2.3383,2.3091,2.3091,2.3091,2.3091,2.3091,2.3091,2.3091,2.3091,2.3091,2.3091,2.3091,2.3091,2.3091,2.3091,2.3091,2.3091,2.3091,2.3091,2.3091,2.3091,2.3091,2.3091,2.3091,2.3091,2.3091,2.3091,2.3091,2.3091,2.3091,2.3091,2.3091,2.3091,2.3091,2.3091,2.3091,2.3091,2.3091,2.3091,2.3091,2.3091,2.3091,2.3091,2.3091,2.3091,2.3091,2.3091,2.3091,2.3091,2.3091,2.3091,2.3091,2.3091,2.3091,2.3091,2.3091,2.3091,2.3091,2.3091,2.3091,2.311,2.3584,2.4014,3.0139,3.0637,3.147,3.2887,3.2819,3.285,0.0,3.4714,3.4478,3.5147,3.534,3.5609,3.6357,3.6985,3.7629,3.8287,3.7898,3.7524,3.7524,3.6432,3.4905,3.3014,3.3124,3.2838,3.1615,3.1926,3.2453,3.3031,3.3124,3.3124,3.3124,3.3124,3.3124,3.3124,3.3124,3.3124,3.3124,3.3124,3.3124,3.3124,3.3124,3.3025,3.2797,3.0598,2.9262,2.8499,2.5474,2.3816,2.3227,2.314,2.3091,2.3091,2.3091,2.3091,2.3091,2.3091,2.3091,2.3091,2.3091,2.3091,2.3091,2.3091,2.3091,2.3091,2.3091,2.3091,2.3091,2.3091,2.3091,2.3091,2.3091,2.3091,2.3091,2.3091,2.3091,2.3091,2.3091,2.3091,2.3091,2.3091,2.3091,2.3091,2.3091,2.3091,2.3091,2.3091,2.3091,2.3091,2.3091,2.3091,2.3091,2.3091,2.3091,2.3091,2.3091,2.3091,2.3091,2.3091,2.3091,2.3091,2.3091,2.3091,2.3091,2.3091,2.3091,2.3091,2.3091,2.3091,2.3091,2.311,2.3584,2.4014,3.086,3.1538,3.2313,3.3378,3.4028,3.4621,3.541,3.5694,3.5843,3.6029,3.6073,3.6387,3.7404,3.7808,3.8197,3.8871,3.8093,3.7404,3.7404,3.6312,3.4773,3.282,3.3059,3.2845,3.1526,3.1599,3.2102,3.3048,3.3124,3.3124,3.3124,3.3124,3.3124,3.3124,3.3124,3.3124,3.3124,3.3124,3.3124,3.3124,3.3124,3.3124,3.3025,3.0553,2.8254,2.6127,2.4531,2.3545,2.3091,2.3091,2.3091,2.3091,2.3091,2.3091,2.3091,2.3091,2.3091,2.3091,2.3091,2.3091,2.3091,2.3091,2.3091,2.3091,2.3091,2.3091,2.3091,2.3091,2.3091,2.3091,2.3091,2.3091,2.3091,2.3091,2.3091,2.3091,2.3091,2.3091,2.3091,2.3091,2.3091,2.3091,2.3091,2.3091,2.3091,2.3091,2.3091,2.3091,2.3091,2.3091,2.3091,2.3091,2.3091,2.3091,2.3091,2.3091,2.3091,2.3091,2.3091,2.3091,2.3091,2.3091,2.3091,2.3091,2.3091,2.3091,2.3091,2.3091,2.3091,2.3101,2.3286,2.3769,3.1712,3.2447,3.3222,3.4243,3.509,3.5776,3.6131,3.6465,3.6672,3.6557,3.6524,3.6806,3.7728,3.7868,3.8138,3.899,3.8018,3.721,3.7389,3.6312,3.4846,3.3042,3.3156,3.2912,3.1741,3.1625,3.2026,3.3048,3.3124,3.3124,3.3124,3.3124,3.3124,3.3124,3.3124,3.3124,3.3124,3.3124,3.3124,3.3124,3.3124,3.3124,3.3025,3.0306,2.7275,2.4219,2.3799,2.3428,2.3091,2.3091,2.3091,2.3091,2.3091,2.3091,2.3091,2.3091,2.3091,2.3091,2.3091,2.3091,2.3091,2.3091,2.3091,2.3091,2.3091,2.3091,2.3091,2.3091,2.3091,2.3091,2.3091,2.3091,2.3091,2.3091,2.3091,2.3091,2.3091,2.3091,2.3091,2.3091,2.3091,2.3091,2.3091,2.3091,2.3091,2.3091,2.3091,2.3091,2.3091,2.3091,2.3091,2.3091,2.3091,2.3091,2.3091,2.3091,2.3091,2.3091,2.3091,2.3091,2.3091,2.3091,2.3091,2.3091,2.3091,2.3091,2.3091,2.3091,2.3091,2.3101,2.2855,2.3162,3.3132,3.3892,3.4788,3.6332,3.6152,3.5974,3.7429,3.7204,3.6686,3.6613,3.6585,3.6599,3.6553,3.6552,3.6956,3.8227,3.7345,3.6731,3.733,3.6312,3.4974,3.3553,3.3381,3.3087,3.2285,3.219,3.2441,3.3031,3.3124,3.3124,3.3124,3.3124,3.3124,3.3124,3.3124,3.3124,3.3124,3.3124,3.3124,3.3124,3.3124,3.3124,3.2988,2.9659,2.6538,2.3779,2.3305,2.311,2.3091,2.3091,2.3091,2.3091,2.3091,2.3091,2.3091,2.3091,2.3091,2.3091,2.3091,2.3091,2.3091,2.3091,2.3091,2.3091,2.3091,2.3091,2.3091,2.3091,2.3091,2.3091,2.3091,2.3091,2.3091,2.3091,2.3091,2.3091,2.3091,2.3091,2.3091,2.3091,2.3091,2.3091,2.3091,2.3091,2.3091,2.3091,2.3091,2.3091,2.3091,2.3091,2.3091,2.3091,2.3091,2.3091,2.3091,2.3091,2.3091,2.3091,2.3091,2.3091,2.3091,2.3091,2.3091,2.3091,2.3091,2.3091,2.3091,2.3091,2.3091,2.3057,2.2234,2.2076,3.3068,3.3592,3.4134,3.5639,3.6205,3.6408,3.6347,3.6525,3.654,3.5973,3.5858,3.5999,3.6433,3.6492,3.6911,3.8182,3.7315,3.6701,3.733,3.6686,3.5492,3.3623,3.4162,3.4,3.2373,3.2215,3.2453,3.3031,3.3124,3.3124,3.3124,3.3124,3.3124,3.3124,3.3124,3.3124,3.3124,3.3124,3.3124,3.3111,3.2692,3.1504,2.9592,2.8234,2.6205,2.3769,2.3286,2.3091,2.3091,2.3091,2.3091,2.3091,2.3091,2.3091,2.3091,2.3091,2.3091,2.3091,2.3091,2.3091,2.3091,2.3091,2.3091,2.3091,2.3091,2.3091,2.3091,2.3091,2.3091,2.3091,2.3091,2.3091,2.3091,2.3091,2.3091,2.3091,2.3091,2.3091,2.3091,2.3091,2.3091,2.3091,2.3091,2.3091,2.3091,2.3091,2.3091,2.3091,2.3091,2.3091,2.3091,2.3091,2.3091,2.3091,2.3091,2.3091,2.3091,2.3091,2.3091,2.3091,2.3091,2.3091,2.3091,2.3091,2.3091,2.3091,2.3091,2.3091,2.3091,2.3057,2.2207,2.2001,3.2723,3.3,3.3305,3.4501,3.5402,3.5897,3.5671,3.619,3.6585,3.6039,3.6134,3.6287,3.616,3.6347,3.6872,3.7893,3.7165,3.6776,3.7644,3.721,3.6153,3.4289,3.4796,3.4578,3.2702,3.2516,3.2679,3.3056,3.3124,3.3124,3.3124,3.3124,3.3124,3.3124,3.3124,3.3124,3.3124,3.3124,3.2968,3.2767,3.239,3.0592,2.7659,2.7442,2.5926,2.3545,2.3218,2.3091,2.3091,2.3091,2.3091,2.3091,2.3091,2.3091,2.3091,2.3091,2.3091,2.3091,2.3091,2.3091,2.3091,2.3091,2.3091,2.3091,2.3091,2.3091,2.3091,2.3091,2.3091,2.3091,2.3091,2.3091,2.3091,2.3091,2.3091,2.3091,2.3091,2.3091,2.3091,2.3091,2.3091,2.3091,2.3091,2.3091,2.3091,2.3091,2.3091,2.3091,2.3091,2.3091,2.3091,2.3091,2.3091,2.3091,2.3091,2.3091,2.3091,2.3091,2.3091,2.3091,2.3091,2.3091,2.3091,2.3091,2.3091,2.3091,2.3091,2.3091,2.2862,2.2457,2.164,2.1169,3.2193,3.2293,3.2479,3.322,3.3947,3.4675,3.538,3.6163,3.672,3.672,3.7258,3.7297,3.5817,3.6151,3.683,3.7316,3.6911,3.6971,3.8212,3.7853,3.691,3.5464,3.533,3.4766,3.3262,3.3124,3.3124,3.3124,3.3124,3.3124,3.3124,3.3124,3.3124,3.3124,3.3124,3.3124,3.3124,3.3124,3.2767,3.2177,3.2177,3.047,2.7347,2.7304,2.5776,2.3178,2.3135,2.3091,2.3091,2.3091,2.3091,2.3091,2.3091,2.3091,2.3091,2.3091,2.3091,2.3091,2.3091,2.3091,2.3091,2.3091,2.3091,2.3091,2.3091,2.3091,2.3091,2.3091,2.3091,2.3091,2.3091,2.3091,2.3091,2.3091,2.3091,2.3091,2.3091,2.3091,2.3091,2.3091,2.3091,2.3091,2.3091,2.3091,2.3091,2.3091,2.3091,2.3091,2.3091,2.3091,2.3091,2.3091,2.3091,2.3091,2.3091,2.3091,2.3091,2.3091,2.3091,2.3091,2.3091,2.3091,2.3091,2.3091,2.3047,2.3003,2.3003,2.296,2.2315,2.1177,2.0609,1.9659,3.213,3.2293,3.2479,3.322,3.3947,3.4539,3.4742,3.5368,3.6057,3.6579,3.6847,3.6842,3.6391,3.6879,3.7351,3.7391,3.7285,3.7464,3.8272,3.8242,3.7445,3.552,3.5689,3.5224,3.33,3.3124,3.3124,3.3124,3.3124,3.3124,3.3124,3.3124,3.3124,3.3124,3.3124,3.3124,3.3124,3.3124,3.2579,3.1599,3.1599,3.0294,2.7882,2.7076,2.5833,2.4339,2.3464,2.3091,2.3091,2.3091,2.3091,2.3091,2.3091,2.3091,2.3091,2.3091,2.3091,2.3091,2.3091,2.3091,2.3091,2.3091,2.3091,2.3091,2.3091,2.3091,2.3091,2.3091,2.3091,2.3091,2.3091,2.3091,2.3091,2.3091,2.3091,2.3091,2.3091,2.3091,2.3091,2.3091,2.3091,2.3091,2.3091,2.3091,2.3091,2.3091,2.3091,2.3091,2.3091,2.3091,2.3091,2.3091,2.3091,2.3091,2.3091,2.3091,2.3091,2.3091,2.3091,2.3091,2.3091,2.3091,2.3091,2.3091,2.2217,2.1756,2.1756,2.0854,2.0268,1.996,1.9288,1.8796,3.176,3.1819,3.1921,3.2324,3.3237,3.4015,3.4015,3.4844,3.5706,3.6143,3.6753,3.7004,3.6308,3.7257,3.7981,3.7489,3.7659,3.8078,3.8751,3.8841,3.8062,3.5961,3.6004,3.5386,3.3313,3.3124,3.3124,3.3124,3.3124,3.3124,3.3124,3.3124,3.3124,3.3124,3.3124,3.3124,3.3124,3.283,3.2265,3.1386,3.0663,2.9261,2.736,2.6254,2.5136,2.4006,0.0,2.3091,2.3091,2.3091,2.3091,2.3091,2.3091,2.3091,2.3091,2.3091,2.3091,2.3091,2.3091,2.3091,2.3091,2.3091,2.3091,2.3091,2.3091,2.3091,2.3091,2.3091,2.3091,2.3091,2.3091,2.3091,2.3091,2.3091,2.3091,2.3091,2.3091,2.3091,2.3091,2.3091,2.3091,2.3091,2.3091,2.3091,2.3091,2.3091,2.3091,2.3091,2.3091,2.3091,2.3091,2.3091,2.3091,2.3091,2.3091,2.2633,2.2536,2.3047,2.2094,2.1765,2.2306,2.181,2.1498,2.1498,2.0854,2.0522,2.0531,1.9852,1.9222,1.8696,1.8583,1.822,3.1291,3.119,3.119,3.119,3.2307,3.3406,3.3406,3.4535,3.5633,3.5735,3.6907,3.7476,3.6001,3.7416,3.8479,3.7541,3.7958,3.8631,3.9334,3.9388,3.8605,3.6448,3.6198,3.5386,3.3313,3.3124,3.3086,3.3011,3.2968,3.2968,3.2968,3.2968,3.2968,3.2968,3.2893,3.2855,3.2855,3.2353,3.1825,3.1273,2.9682,2.8146,2.6678,2.5378,2.4253,2.3299,2.3178,0.0,2.3091,2.3091,2.3091,2.3091,2.3091,2.3091,2.3091,2.3091,2.3091,2.3091,2.3091,2.3091,2.3091,2.3091,2.3091,2.3091,2.3091,2.3091,2.3091,2.3091,2.3091,2.3091,2.3091,2.3091,2.3091,2.3091,2.3091,2.3091,2.3091,2.3091,2.3091,2.3091,2.3091,2.3091,2.3091,2.3091,2.3091,2.3091,2.3091,2.3091,2.3091,2.296,2.2862,2.2862,2.2862,2.2862,2.2862,2.1889,2.1756,2.2775,2.0764,1.9988,2.1025,2.0079,1.9497,1.9497,1.936,1.9268,1.9268,1.9085,1.8473,1.754,1.804,1.7704,3.121,3.119,3.119,3.119,3.2307,3.3406,3.3406,3.4535,3.5785,3.6451,3.728,3.7627,3.6683,3.7764,3.8479,3.7541,3.7958,3.8631,3.9334,3.9388,3.8605,3.6448,3.6198,3.5386,3.3313,3.3124,3.288,3.2403,3.2365,3.2365,3.2365,3.2365,3.2365,3.2365,3.1926,3.1687,3.1687,3.1587,3.1273,3.0706,2.9484,2.8514,2.7763,2.5734,2.4702,2.4457,2.3507,0.0,2.3091,2.3091,2.3091,2.3091,2.3091,2.3091,2.3091,2.3091,2.3091,2.3091,2.3091,2.3091,2.3091,2.3091,2.3091,2.3091,2.3091,2.3091,2.3091,2.3091,2.3091,2.3091,2.3091,2.3091,2.3091,2.3091,2.3091,2.3091,2.3091,2.3091,2.3091,2.3091,2.3091,2.3091,2.3091,2.3091,2.3091,2.3091,2.3091,2.3091,2.3091,2.2217,2.1614,2.1614,2.1614,2.1614,2.1614,2.1436,2.1382,2.1614,2.026,1.9579,1.9807,1.9625,1.9497,1.9497,1.8503,1.8002,1.8002,1.6936,1.6463,1.6539,1.6886,1.7035,3.119,3.119,3.1275,3.1684,3.2594,3.3508,3.388,3.4827,3.5701,3.6096,3.676,3.7026,3.6268,3.7255,3.7904,3.7052,3.7749,3.8497,3.8841,3.9185,3.8605,3.6448,3.6198,3.5386,3.3313,3.3124,3.2968,3.2679,3.2114,3.1788,3.1788,3.1788,3.1788,3.1788,3.1524,3.1386,3.1386,3.1122,3.0859,3.0568,2.9157,2.8051,2.7197,2.5535,2.4457,2.3877,2.3343,0.0,2.3091,2.3091,2.3091,2.3091,2.3091,2.3091,2.3091,2.3091,2.3091,2.3091,2.3091,2.3091,2.3091,2.3091,2.3091,2.3091,2.3091,2.3091,2.3091,2.3091,2.3091,2.3091,2.3091,2.3091,2.3091,2.3091,2.3091,2.3091,2.3091,2.3091,2.3091,2.3091,2.3091,2.3091,2.3091,2.3091,2.3091,2.3091,2.3091,2.3091,2.3091,2.1489,2.0621,2.1248,2.0755,2.035,2.035,1.9807,1.967,2.0305,1.8618,1.7848,1.8549,1.7948,1.7569,1.7569,1.703,1.6716,1.6716,1.6109,1.5979,1.6328,1.6573,1.6867,3.1427,3.1309,3.1376,3.2124,3.2848,3.3592,3.432,3.5081,3.5577,3.5424,3.6098,3.644,3.5545,3.6465,3.7199,3.6613,3.7434,3.8227,3.8362,3.899,3.8605,3.6448,3.6198,3.5386,3.3313,3.3124,3.3074,3.2905,3.1851,3.1223,3.1223,3.111,3.1097,3.1223,3.111,3.1047,3.1047,3.0645,3.0444,3.0392,2.8842,2.7522,2.6483,2.5336,2.4168,2.3091,2.3091,0.0,0.0,2.3091,2.3091,2.3091,2.3091,2.3091,2.3091,2.3091,2.3091,2.3091,2.3091,2.3091,2.3091,2.3091,2.3091,2.3091,2.3091,2.3091,2.3091,2.3091,2.3091,2.3091,2.3091,2.3091,2.3091,2.3091,2.3091,2.3091,2.3091,2.3091,2.3091,2.3091,2.3091,2.3091,2.3091,2.3091,2.3091,2.3091,2.2862,2.2721,2.2721,2.0629,1.9497,2.044,1.967,1.9131,1.9131,1.8234,1.8095,1.9039,1.7023,1.6279,1.7374,1.6435,1.5925,1.5925,1.5925,1.5892,1.5784,1.5784,1.6012,1.6373,1.66,1.6894,3.2192,3.1718,3.1376,3.2124,3.2848,3.3592,3.432,3.5081,3.5447,3.4823,3.577,3.6267,3.487,3.5762,3.666,3.6505,3.706,3.7704,3.8302,3.899,3.8605,3.6448,3.6198,3.5386,3.3313,3.3124,3.2855,3.2328,3.1298,3.0683,3.0683,3.0218,3.0168,3.067,3.0193,2.9942,2.9942,2.9892,2.9867,2.9867,2.8673,2.7522,2.6483,2.5336,2.4168,2.3091,2.3091,0.0,0.0,2.3091,2.3091,2.3091,2.3091,2.3091,2.3091,2.3091,2.3091,2.3091,2.3091,2.3091,2.3091,2.3091,2.3091,2.3091,2.3091,2.3091,2.3091,2.3091,2.3091,2.3091,2.3091,2.3091,2.3091,2.3091,2.3091,2.3091,2.3091,2.3091,2.3091,2.3091,2.3091,2.3091,2.3091,2.3091,2.3091,2.3091,2.2164,2.148,2.148,1.936,1.7917,1.8002,1.7909,1.787,1.787,1.7777,1.7738,1.787,1.6574,1.6,1.6413,1.633,1.6233,1.6233,1.6233,1.6099,1.5784,1.5784,1.6119,1.6667,1.6693,1.7007,3.2949,3.2747,3.2696,3.3444,3.3829,3.4252,3.4996,3.538,3.5407,3.4736,3.5368,3.5721,3.4698,3.5278,3.5921,3.5914,3.6746,3.7494,3.7764,3.8736,3.8605,3.6448,3.6198,3.5386,3.3313,3.3124,3.2747,3.1788,3.1323,3.0796,3.0156,2.9917,2.9892,3.0118,2.9905,2.9792,2.9792,2.9792,2.9792,2.9792,2.9326,2.8199,2.6472,2.6016,2.4851,2.3091,2.3091,0.0,0.0,2.3091,2.3091,2.3091,2.3091,2.3091,2.3091,2.3091,2.3091,2.3091,2.3091,2.3091,2.3091,2.3091,2.3091,2.3091,2.3091,2.3091,2.3091,2.3091,2.3091,2.3091,2.3091,2.3091,2.3091,2.3091,2.3091,2.3091,2.3091,2.3091,2.3091,2.3091,2.3091,2.3091,2.3091,2.3091,2.3091,2.3091,2.2076,2.1293,2.1293,1.9177,1.7692,1.7692,1.699,1.6574,1.6574,1.6574,1.6574,1.6574,1.6279,1.6152,1.6266,1.644,1.6446,1.6279,1.6321,1.6213,1.6092,1.6092,1.64,1.7025,1.7025,1.7239,3.3728,3.3575,3.3592,3.432,3.4489,3.4692,3.543,3.56,3.5406,3.4734,3.5126,3.5359,3.4643,3.5059,3.5504,0.0,3.6582,3.7404,3.7404,3.8571,3.873,3.6891,3.6682,3.5868,3.3755,3.3283,3.2646,3.1474,3.1386,3.0922,2.9854,2.9792,2.9792,2.9792,2.9792,2.9792,2.9792,2.9792,2.9792,2.9792,2.9456,2.8331,2.6483,2.6141,2.4935,2.3091,2.3091,0.0,0.0,2.3091,2.3091,2.3091,2.3091,2.3091,2.3091,2.3091,2.3091,2.3091,2.3091,2.3091,2.3091,2.3091,2.3091,2.3091,2.3091,2.3091,2.3091,2.3091,2.3091,2.3091,2.3091,2.3091,2.3091,2.3091,2.3091,2.3091,2.3091,2.3091,2.3091,2.3091,2.3091,2.3091,2.3091,2.2818,2.2589,2.2589,2.1257,2.026,2.026,1.8403,1.7131,1.7131,1.6339,1.5784,1.5784,1.5784,1.5784,1.5784,1.6112,1.6362,1.64,1.668,1.674,1.6583,1.6583,1.6536,1.64,1.64,1.671,1.7199,1.7199,1.7353,3.4472,3.3964,3.3592,3.432,3.4489,3.4692,3.543,3.56,3.5425,3.4739,3.5133,3.5376,3.4634,3.504,3.5504,3.5504,3.6582,3.7404,3.7404,3.8571,3.898,3.7919,3.7791,3.6958,3.491,3.3713,3.2646,3.1474,3.1386,0.0,2.9854,2.9792,2.9792,2.9792,2.9792,2.9792,2.9792,2.9792,2.9792,2.9792,2.8648,2.7562,2.6472,2.5336,2.4168,2.3091,2.3091,0.0,0.0,2.3091,2.3091,2.3091,2.3091,2.3091,2.3091,2.3091,2.3091,2.3091,2.3091,2.3091,2.3091,2.3091,2.3091,2.3091,2.3091,2.3091,2.3091,2.3091,2.3091,2.3091,2.3091,2.3091,2.3091,2.3091,2.3091,2.3091,2.3091,2.3091,2.3091,2.3091,2.3091,2.3091,2.3091,2.212,2.1337,2.1337,1.9268,1.7731,1.7731,1.6622,1.5825,1.5825,1.5832,1.5784,1.5784,1.5784,1.5784,1.5784,1.6112,1.64,1.6687,1.7038,1.7192,1.7192,1.7192,1.7045,1.67,1.67,1.6854,1.7199,1.7199,1.7353,3.5115,3.5076,3.4957,3.5177,3.5245,3.5295,3.5549,3.5253,3.4855,3.4635,3.4735,3.4773,3.4556,3.504,3.5654,3.6103,3.6866,0.0,3.8018,3.8856,3.873,3.693,3.544,3.4188,3.312,3.2676,3.2039,3.0947,3.0859,3.0545,2.9829,2.9792,2.9792,2.9792,2.9792,2.9792,2.9792,2.9792,2.9792,2.9792,2.8636,2.7522,2.6483,2.5336,2.4168,2.3091,0.0,0.0,0.0,2.3091,2.3091,2.3091,2.3091,2.3091,2.3091,2.3091,2.3091,2.3091,2.3091,2.3091,2.3091,2.3091,2.3091,2.3091,2.3091,2.3091,2.3091,2.3091,2.3091,2.3091,2.3091,2.3091,2.3091,2.3091,2.3091,2.3091,2.3091,2.3091,2.3091,2.3091,2.3091,2.3091,2.3091,2.212,2.1293,2.1293,1.9268,1.7692,1.7692,1.6574,1.5784,1.5784,1.5784,1.5784,1.5784,1.5784,1.5912,1.6119,1.6406,1.67,1.7052,1.734,1.7407,1.7206,1.7199,1.7152,1.7058,1.7058,1.7213,1.7442,1.7442,1.7495,3.5183,3.56,3.56,3.56,3.56,3.56,3.56,3.5075,3.4603,3.4583,3.4569,3.4493,3.4494,3.504,3.5729,3.6372,3.7,3.7644,3.8302,3.899,3.873,3.7007,3.5319,3.3861,3.2893,3.244,3.1775,3.0696,3.062,3.0382,2.9829,2.9792,2.9792,2.9792,2.9792,2.9792,2.9792,2.9792,2.9792,2.9792,2.8239,2.7168,2.6442,2.4882,2.3757,2.3091,0.0,0.0,0.0,2.3091,2.3091,2.3091,2.3091,2.3091,2.3091,2.3091,2.3091,2.3091,2.3091,2.3091,2.3091,2.3091,2.3091,2.3091,2.3091,2.3091,2.3091,2.3091,2.3091,2.3091,2.3091,2.3091,2.3091,2.3091,2.3091,2.3091,2.3091,2.3091,2.296,2.2492,2.2403,2.2262,2.181,2.0719,1.9943,1.9943,1.8265,1.699,1.699,1.6292,1.5784,1.5784,1.5784,1.5784,1.5784,1.5784,1.5952,1.6301,1.6547,1.684,1.7192,1.7481,1.7495,1.7367,1.7367,1.7367,1.7367,1.7367,1.746,1.7582,1.7582,1.7582,0.0,3.5386,3.5386,3.5448,3.5459,3.5447,3.5447,3.4958,0.0,3.4504,3.4469,3.4465,3.4554,3.507,3.5729,3.6432,3.703,3.7644,3.8302,3.8859,3.8833,3.7846,3.6662,3.5366,3.3807,3.2713,3.1675,3.0633,3.0557,3.0331,2.9817,2.9792,2.9792,2.9792,2.9792,2.9792,2.9792,2.9792,2.9792,2.9753,2.7557,2.6524,2.6431,2.4145,2.3091,0.0,0.0,0.0,0.0,2.3091,2.3091,2.3091,2.3091,2.3091,2.3091,2.3091,2.3091,2.3091,2.3091,2.3091,2.3091,2.3091,2.3091,2.3091,2.3091,2.3091,2.3091,2.3091,2.3091,2.3091,2.3091,2.3091,2.3091,2.3091,2.3091,2.3091,2.3091,2.3047,2.2633,2.1525,2.1248,2.08,1.967,1.8503,1.7692,1.7692,1.6622,1.5784,1.5784,1.5784,1.5784,1.5784,1.5784,1.5784,1.5784,1.5784,1.5952,1.6301,1.6547,1.684,1.7192,1.7481,1.7582,1.7582,1.7562,1.7562,1.7582,1.7542,1.7542,1.7582,1.7562,1.7562,3.2829,0.0,3.3412,3.3879,3.4037,3.4078,0.0,3.3547,3.3201,3.3658,3.3746,3.4044,3.5073,3.5385,3.5878,3.7,3.7315,3.7644,3.8302,3.7826,3.7316,3.7065,3.4992,3.3302,3.25,3.1533,3.0708,3.0043,2.9993,2.993,2.9804,2.9792,2.9792,2.9792,2.9792,2.9792,2.9792,2.9792,2.9792,2.9753,2.7557,2.6524,2.6431,2.4145,2.3091,0.0,0.0,0.0,2.3091,2.3091,2.3091,2.3091,2.3091,2.3091,2.3091,2.3091,2.3091,2.3091,2.3091,2.3091,2.3091,2.3091,2.3091,2.3091,2.3091,2.3091,2.3091,2.3091,2.3091,2.3091,2.3091,2.3091,2.3091,2.3091,2.3091,2.3091,2.3091,2.235,2.1658,2.1346,2.0567,1.9852,1.9542,1.8503,1.7692,1.7692,1.6622,1.5784,1.5784,1.5784,1.5784,1.5784,1.5784,1.5784,1.5784,1.5784,1.5952,1.6301,1.6547,1.684,1.7192,1.7481,1.7582,1.7582,1.742,1.7414,1.7582,1.7128,1.7141,1.7582,1.7407,1.742,3.1206,3.2311,3.3228,3.385,3.4046,3.4062,3.4062,3.3286,3.2695,3.3008,3.3315,3.3724,3.4457,3.534,3.6282,3.7255,3.7659,3.7988,3.8347,3.7887,3.7237,3.6461,3.4685,3.3122,3.209,3.1149,3.0382,2.9829,2.9792,2.9679,2.9415,2.9402,2.9402,2.9402,2.9402,2.9528,2.9792,2.9792,2.9792,2.9753,2.7557,2.6524,2.6431,2.4145,2.3091,0.0,0.0,0.0,2.3091,2.3091,2.3091,2.3091,2.3091,2.3091,2.3091,2.3091,2.3091,2.3091,2.3091,2.3091,2.3091,2.3091,2.3091,2.3091,2.3091,2.3091,2.3091,2.3091,2.3091,2.3091,2.3091,2.3091,2.3091,2.3091,2.3091,2.296,2.2394,2.1756,2.098,1.9852,1.9131,1.8495,1.7894,1.7257,1.681,1.681,1.6244,1.5784,1.5784,1.5784,1.5784,1.5784,1.5784,1.5784,1.5784,1.5784,1.5952,1.6301,1.642,1.67,1.7186,1.7353,1.7442,1.7582,1.7481,1.7474,1.7582,1.7261,1.7275,1.7582,1.7474,1.7481,3.0053,3.1836,3.3408,3.398,3.4213,3.4259,3.4148,3.3248,3.2468,3.2561,3.306,3.3559,3.3769,3.528,3.6686,3.73,3.7883,3.8272,3.8377,3.8227,3.759,3.617,3.4874,3.3598,3.2211,3.1086,3.0294,2.9829,2.9716,2.9453,2.8913,2.8813,2.88,2.8888,2.8888,2.9202,2.9779,2.9792,2.9792,2.9753,2.7557,2.6524,2.6431,2.4145,2.3091,2.3091,0.0,0.0,2.3091,2.3091,2.3091,2.3091,2.3091,2.3091,2.3091,2.3091,2.3091,2.3091,2.3091,2.3091,2.3091,2.3091,2.3091,2.3091,2.3091,2.3091,2.3091,2.3091,2.3091,2.3091,2.3091,2.3091,2.3091,2.3091,2.296,2.2545,2.1525,2.1025,2.0169,1.8095,1.7552,1.7084,1.5967,1.5784,1.5784,1.5784,1.5784,1.5784,1.5784,1.5784,1.5784,1.5784,1.5784,1.5784,1.5784,1.5784,1.5939,1.6186,1.6246,1.6569,1.7112,1.7172,1.732,1.7508,1.7515,1.7542,1.7582,1.7488,1.7495,1.7582,1.7535,1.7542,2.9969,3.1129,3.183,3.1882,3.2366,3.2685,3.2096,3.1814,3.1819,3.2404,3.3051,3.3844,3.4981,3.5908,3.6686,3.73,3.7494,3.7749,3.8317,3.7464,3.6712,3.6424,3.4333,3.277,3.253,3.0939,2.988,2.9804,2.934,2.8988,2.89,2.8486,2.8448,2.8875,2.8888,2.9202,2.9779,2.9792,2.9792,2.9753,2.7557,2.6524,2.6431,2.4145,2.3091,2.3091,0.0,2.3091,2.3091,2.3091,2.3091,2.3091,2.3091,2.3091,2.3091,2.3091,2.3091,2.3091,2.3091,2.3091,2.3091,2.3091,2.3091,2.3091,2.3091,2.3091,2.3091,2.3091,2.3091,2.3091,2.3091,2.3091,2.3091,2.3091,2.2306,2.1525,2.1337,1.967,1.8141,1.7777,1.681,1.6015,1.5832,1.5784,1.5784,1.5784,1.5784,1.5784,1.5784,1.5784,1.5784,1.5784,1.5784,1.5784,1.5784,1.5784,1.5798,1.5844,1.6132,1.6426,1.676,1.7065,1.7226,1.7266,1.7266,1.7387,1.7582,1.7081,1.7094,1.7575,1.738,1.74,2.9564,3.0782,3.1607,3.1934,3.2794,3.3499,3.3185,3.2841,3.2677,3.2976,3.3559,3.4249,3.4846,3.6073,3.7195,3.7838,3.7943,3.7808,3.7419,3.6851,3.6357,3.5998,3.3974,3.2593,3.2593,3.0884,2.9666,2.9352,2.9076,2.8662,2.8072,2.7795,2.7908,2.8461,2.8486,2.8913,2.9779,2.9792,2.9792,2.9753,2.7557,2.6524,2.6431,2.4145,2.3091,2.3091,0.0,2.3091,2.3091,2.3091,2.3091,2.3091,2.3091,2.3091,2.3091,2.3091,2.3091,2.3091,2.3091,2.3091,2.3091,2.3091,2.3091,2.3091,2.3091,2.3091,2.3091,2.3091,2.3091,2.3091,2.3091,2.3091,2.3091,2.3091,2.2173,2.1114,2.0486,1.8956,1.7505,1.681,1.6197,1.5784,1.5784,1.5784,1.5784,1.5784,1.5784,1.5784,1.5784,1.5784,1.5784,1.5784,1.5784,1.5784,1.5784,1.5784,1.5784,1.5784,1.6253,1.6567,1.67,1.7141,1.7434,1.7434,1.7434,1.7501,1.7582,1.7315,1.7321,1.7582,1.7442,1.7455,2.9412,3.057,3.1573,3.251,3.3517,3.4316,3.446,3.3844,3.3395,3.3873,3.4233,3.4563,3.4713,3.6073,3.7404,3.8063,3.8048,3.7599,3.6626,3.6357,3.6073,3.5564,3.3788,3.2593,3.2593,3.0753,2.9402,2.8925,2.865,2.8172,2.7318,2.719,2.7379,2.7896,2.7908,2.8386,2.939,2.9402,2.9528,2.9753,2.7557,2.6524,2.6431,2.4145,2.3091,2.3091,2.3091,2.3091,2.3091,2.3091,2.3091,2.3091,2.3091,2.3091,2.3091,2.3091,2.3091,2.3091,2.3091,2.3091,2.3091,2.3091,2.3091,2.3091,2.3091,2.3091,2.3091,2.3091,2.3091,2.3091,2.3091,2.3091,2.3047,2.2775,2.1756,2.0531,1.936,1.8133,1.699,1.5967,1.5784,1.5784,1.5784,1.5784,1.5784,1.5784,1.5784,1.5784,1.5784,1.5784,1.5784,1.5784,1.5784,1.5811,1.5925,1.5992,1.6032,1.6032,1.646,1.6707,1.6707,1.7201,1.7534,1.7534,1.7549,1.7582,1.7582,1.7582,1.7582,1.7582,1.7582,1.7582,2.9924,3.0505,3.1027,3.2931,3.3513,3.3727,3.436,3.3499,3.311,3.4981,3.4891,3.4698,3.531,3.6043,3.6746,3.7375,3.7,3.6596,3.6492,3.5953,3.5549,3.5504,3.3788,3.2593,3.2593,3.0388,2.8938,2.8888,2.7984,2.7369,2.7293,2.6839,2.6801,2.7318,2.7379,2.7632,2.8222,2.8222,2.875,2.9753,2.7557,2.6524,2.6431,2.4145,2.3091,2.3091,2.3091,2.3091,2.3091,2.3091,2.3091,2.3091,2.3091,2.3091,2.3091,2.3091,2.3091,2.3091,2.3091,2.3091,2.3091,2.3091,2.3091,2.3091,2.3091,2.3091,2.3091,2.3091,2.3091,2.3091,2.3091,2.3091,2.2818,2.1702,2.0531,1.9314,1.8095,1.685,1.592,1.5825,1.5784,1.5784,1.5784,1.5784,1.5784,1.5784,1.5784,1.5784,1.5784,1.5784,1.5784,1.5784,1.5784,1.5939,1.6219,1.6486,1.6647,1.6647,1.6687,1.6707,1.6707,1.7065,1.7233,1.7233,1.7442,1.7582,1.7582,1.7582,1.7582,1.7582,1.7582,1.7582,2.9505,3.0564,3.1451,3.2601,3.3192,3.369,3.4345,3.4098,3.4068,3.5265,3.5295,3.5325,3.5998,3.6312,3.6567,3.6791,3.6641,3.6342,3.5938,3.5669,3.5355,3.4921,3.3713,3.2537,3.1585,3.0113,2.8854,2.797,2.7519,2.7165,2.6826,2.6612,2.6751,2.7268,2.7281,2.7544,2.8097,2.8109,2.8323,2.87,2.6589,2.5761,2.5972,2.3727,2.2711,2.2721,2.2984,2.3091,2.3091,2.3091,2.3091,2.3091,2.3091,2.3091,2.3091,2.3091,2.3091,2.3091,2.3091,2.3091,2.3091,2.3091,2.3091,2.3091,2.3091,2.3091,2.3091,2.3091,2.3091,2.3091,2.3091,2.3091,2.2818,2.1569,2.0395,1.9177,1.7963,1.6716,1.5784,1.5784,1.5784,1.5784,1.5784,1.5784,1.5784,1.5784,1.5784,1.5784,1.5784,1.5784,1.5899,1.6086,1.6266,1.642,1.6533,1.6814,1.7032,1.7032,1.7032,1.7032,1.7032,1.7313,1.7474,1.7474,1.7528,1.7582,1.7582,1.7582,1.7582,1.7582,1.7582,1.7582,2.9547,3.0713,3.1781,3.2601,3.3001,3.3432,3.4282,3.4354,3.4472,3.5594,3.5654,3.5639,3.6088,3.6178,3.6178,3.6178,3.6178,3.6013,3.5564,3.5325,3.4996,3.4563,3.3484,3.2269,3.094,2.9785,2.8612,2.7377,2.7153,2.6889,2.6512,2.6499,2.6663,2.7052,2.7052,2.7241,2.7582,2.7582,2.767,2.7809,2.5599,2.487,2.5457,2.3309,2.2383,2.2529,2.2769,2.2974,2.3091,2.3091,2.3091,2.3091,2.3091,2.3091,2.3091,2.3091,2.3091,2.3091,2.3091,2.3091,2.3091,2.3091,2.3091,2.3091,2.3091,2.3091,2.3091,2.3091,2.3091,2.3091,2.3091,2.3091,2.2677,2.1123,2.0079,1.9039,1.7451,1.6433,1.5784,1.5784,1.5784,1.5784,1.5784,1.5784,1.5865,1.5952,1.5972,1.5972,1.5972,1.6046,1.6186,1.6386,1.6673,1.6847,1.6847,1.7172,1.734,1.734,1.734,1.734,1.734,1.7475,1.7582,1.7582,1.7582,1.7582,1.7582,1.7582,1.7582,1.7582,1.7582,1.7582,3.0163,3.0972,3.1824,3.3155,3.3006,3.2871,3.4204,3.3963,3.4068,3.6073,3.5953,3.5489,3.5504,3.5504,3.5489,3.5504,3.5504,3.5489,3.5489,3.4906,3.4503,3.4488,3.3059,3.1771,3.0885,2.943,2.8157,2.7374,2.6801,2.6499,2.6499,2.6499,2.6499,2.6499,2.6499,2.6499,2.6499,2.6499,2.6763,2.7268,2.4714,2.4041,2.4926,2.2869,2.2119,2.251,2.2519,2.2711,2.3091,2.3091,2.3091,2.3091,2.3091,2.3091,2.3091,2.3091,2.3091,2.3091,2.3091,2.3091,2.3091,2.3091,2.3091,2.3091,2.3091,2.3091,2.3091,2.3101,2.3091,2.3091,2.3047,2.3057,2.2457,2.0087,1.9488,1.881,1.6332,1.5784,1.5784,1.5784,1.5784,1.5784,1.5784,1.5784,1.5932,1.6226,1.6279,1.6279,1.6279,1.6526,1.6707,1.6707,1.6974,1.7206,1.7206,1.7467,1.7582,1.7582,1.7582,1.7582,1.7582,1.7582,1.7582,1.7582,1.7582,1.7582,1.7582,1.7582,1.7582,1.7582,1.7582,1.7582,3.0402,3.0972,3.1705,3.2587,3.3006,3.3305,3.3694,3.3993,3.4518,3.5579,3.525,3.4936,3.5415,3.51,3.4936,3.5429,3.51,3.4786,3.4786,3.4638,3.4159,3.32,3.2659,3.1861,3.058,2.9489,2.8489,2.7644,2.6905,2.6499,2.6499,2.6499,2.6499,2.6499,2.6499,2.6499,2.6499,2.6499,2.6575,2.6703,2.4539,2.4041,2.4926,2.2869,2.2119,2.2529,2.2779,2.2984,2.3091,2.3091,2.3091,2.3091,2.3091,2.3091,2.3091,2.3091,2.3091,2.3091,2.3091,2.3091,2.3091,2.3091,2.3091,2.3091,2.3091,2.3091,2.2906,2.2076,2.1845,2.1623,2.0809,2.0584,2.0404,1.9679,1.8864,1.777,1.6157,1.5784,1.5784,1.5784,1.5784,1.5784,1.5784,1.6005,1.6172,1.6308,1.6446,1.6573,1.6573,1.6834,1.7065,1.7065,1.7333,1.7507,1.7507,1.7528,1.7582,1.7582,1.7582,1.7582,1.7582,1.7582,1.7582,1.7582,1.7582,1.7582,1.7582,1.7582,1.7582,1.7582,1.7582,1.7582,3.0808,3.1376,3.2108,3.3066,3.3395,3.3559,3.3829,3.3978,3.4203,3.4622,3.4382,3.4249,3.4637,3.4367,3.4218,3.4637,3.4367,3.4114,3.4114,3.3858,3.341,3.2617,3.2243,3.1619,3.0433,2.9504,2.8652,2.7769,2.6939,2.6499,2.6499,2.6499,2.6499,2.6499,2.6499,2.6499,2.6499,2.6499,2.6499,2.6499,2.4469,2.394,2.4625,2.2399,2.1689,2.2295,2.2838,2.3091,2.3091,2.3091,2.3091,2.3091,2.3091,2.3091,2.3091,2.3091,2.3091,2.3091,2.3091,2.3091,2.3091,2.3091,2.3091,2.3091,2.3091,2.3091,2.2862,2.1658,2.1293,2.1025,1.9807,1.9131,1.8772,1.8772,1.8234,1.7365,1.6062,1.5784,1.5784,1.5784,1.5784,1.5818,1.5985,1.6152,1.6402,1.6636,1.6824,1.6921,1.7041,1.7159,1.7246,1.736,1.7475,1.7582,1.7582,1.7582,1.7582,1.7582,1.7582,1.7582,1.7582,1.7582,1.7582,1.7582,1.7582,1.7582,1.7582,1.7582,1.7582,1.7582,1.7582,1.7582,3.1392,3.2034,3.2826,3.4099,3.3888,3.3559,3.4189,3.3784,3.335,3.3469,3.344,3.3425,3.3484,3.344,3.3425,3.3484,3.344,3.341,3.341,3.2886,3.2497,3.2437,3.1869,3.119,3.0389,2.9504,2.8652,2.7769,2.6939,2.6499,2.6499,2.6499,2.6499,2.6499,2.6499,2.6499,2.6499,2.6499,2.6499,2.6499,2.4469,2.3713,2.4073,2.1724,2.1153,2.1982,2.2711,2.3062,2.3091,2.3091,2.3091,2.3091,2.3091,2.3091,2.3091,2.3091,2.3091,2.3091,2.3091,2.3091,2.3091,2.3091,2.3091,2.3091,2.3091,2.3091,2.2818,2.1525,2.1159,2.0845,1.9488,1.8365,1.7552,1.7552,1.7552,1.7225,1.6062,1.5784,1.5784,1.5784,1.5784,1.5925,1.6219,1.6342,1.6563,1.7152,1.7239,1.7333,1.7549,1.7407,1.734,1.7555,1.7582,1.7582,1.7582,1.7582,1.7582,1.7582,1.7582,1.7582,1.7582,1.7582,1.7582,1.7582,1.7582,1.7582,1.7582,1.7582,1.7582,1.7582,1.7582,1.7582,3.2065,3.2378,3.2706,3.3499,3.3215,3.2766,3.2901,3.2392,3.2213,3.3275,3.308,3.2886,3.3395,3.308,3.2901,3.341,3.3066,3.2721,3.2721,3.2602,3.2288,3.178,3.1585,3.119,3.0389,2.9504,2.8652,2.7769,2.6939,2.6499,2.6499,2.6499,2.6499,2.6499,2.6499,2.6499,2.6499,2.6499,2.6499,0.0,2.4469,2.3534,2.3583,2.188,2.1562,2.2383,2.2568,2.2789,2.3091,2.3091,2.3091,2.3091,2.3091,2.3091,2.3091,2.3091,2.3091,2.3091,2.3091,2.3091,2.3091,2.3091,2.3091,2.3091,2.3091,2.3091,2.2633,2.0486,1.9898,1.9397,1.7156,1.6379,1.6204,1.6204,1.6204,1.6109,1.5879,1.5784,1.5784,1.5784,1.5784,1.5925,1.6219,1.646,1.6814,1.7402,1.7488,1.7508,1.7575,1.7528,1.7515,1.7575,1.7582,1.7582,1.7582,1.7582,1.7582,1.7582,1.7582,1.7582,1.7582,1.7582,1.7582,1.7582,1.7582,1.7582,1.7582,1.7582,1.7582,1.7582,1.7582,1.7582,3.1783,3.2019,3.2168,3.2856,3.2766,3.2512,3.2512,3.1974,3.1705,3.2392,3.2243,3.2123,3.2497,3.2243,3.2123,3.2497,3.2243,3.2019,3.2019,3.2019,3.1884,3.154,3.1511,3.1351,3.0925,2.9735,2.8812,2.8363,2.7196,2.6499,2.6499,2.6499,2.6499,2.6499,2.6499,2.6499,2.6499,2.6499,2.6499,2.6487,2.4957,2.3708,2.2761,2.1667,2.1434,2.1882,2.2334,2.2519,2.2549,2.2711,2.2789,2.2789,2.2789,2.2916,2.3091,2.3091,2.3091,2.3091,2.3091,2.3091,2.3091,2.3091,2.3091,2.3091,2.3091,2.3091,2.2589,2.0178,1.9497,1.8948,1.6426,1.5784,1.5784,1.5784,1.5784,1.5784,1.5784,1.5784,1.5784,1.5784,1.5784,1.5925,1.6219,1.6683,1.7068,1.7515,1.7582,1.7582,1.7582,1.7582,1.7582,1.7582,1.7582,1.7582,1.7582,1.7582,1.7582,1.7582,1.7582,1.7582,1.7582,1.7582,1.7582,1.7582,1.7582,1.7582,1.7582,1.7582,1.7582,1.7582,1.7582,1.7582,3.1132,3.1573,3.1809,3.2348,3.2392,3.2318,3.2318,3.1899,3.1511,3.1511,3.1511,3.1511,3.1511,3.1511,3.1511,3.1511,3.1511,3.1511,3.1511,3.1511,3.1511,3.1511,3.1511,3.1438,3.1307,3.0042,2.9097,2.8812,2.7484,2.6658,2.6499,2.6499,2.6499,2.6499,2.6499,2.6499,2.6499,2.6499,2.6499,2.6499,2.5288,2.3781,2.1973,2.1361,2.1122,2.1239,2.1941,2.2139,2.1914,2.2266,2.2402,2.2402,2.2402,2.2617,2.2886,2.2955,2.2984,2.3003,2.3071,2.3052,2.3003,2.3071,2.3042,2.295,2.2853,2.2775,2.2271,1.9861,1.9177,1.8672,1.6379,1.5784,1.5784,1.5784,1.5784,1.5784,1.5784,1.5784,1.5784,1.5784,1.5872,1.5999,1.6299,1.6844,1.73,1.7542,1.7582,1.7582,1.7582,1.7582,1.7582,1.7582,1.7582,1.7582,1.7582,1.7582,1.7582,1.7582,1.7582,1.7582,1.7582,1.7582,1.7582,1.7582,1.7582,1.7582,1.7582,1.7582,1.7582,1.7582,1.7582,1.7582,3.0528,3.1809,3.2378,3.2497,3.2049,3.163,3.163,3.157,3.1511,3.1511,3.1511,3.1511,3.1511,3.1511,3.1511,3.1511,3.1511,3.1511,3.1511,3.1511,3.1511,3.1511,3.1511,3.1219,3.0524,3.0269,2.9504,2.7986,2.767,2.7229,2.6521,2.6499,2.6499,2.6499,2.6499,2.6499,2.6499,2.6499,2.6499,2.6499,2.4588,2.311,2.1962,2.1071,2.0869,2.12,2.1317,2.1592,2.1894,2.1953,2.1973,2.1973,2.1973,2.2002,2.21,2.2461,2.2598,2.2646,2.2974,2.2857,2.2656,2.2974,2.2847,2.2442,2.1771,2.1543,2.1025,1.8634,1.7963,1.7591,1.615,1.5784,1.5784,1.5784,1.5784,1.5784,1.5784,1.5784,1.5784,1.5784,1.6039,1.6306,1.66,1.6927,1.73,1.7542,1.7582,1.7582,1.7582,1.7582,1.7582,1.7582,1.7582,1.7582,1.7582,1.7582,1.7582,1.7582,1.7582,1.7582,1.7582,1.7582,1.7582,1.7582,1.7582,1.7582,1.7582,1.7582,1.7582,1.7582,1.7582,1.7582,2.8954,3.0368,3.1262,3.1262,3.1368,3.1511,3.1511,3.1511,3.1511,3.1511,3.1511,3.1511,3.1511,3.1511,3.1511,3.1511,3.1511,3.1511,3.1511,3.1511,3.1511,3.1511,3.1511,3.1351,3.0999,3.0554,2.9797,2.8524,2.7986,2.7351,2.6521,2.6499,2.6499,2.6499,2.6499,2.6499,2.6499,2.6499,2.6499,2.6499,2.4469,2.3257,2.2776,2.126,2.0713,2.0869,2.1083,2.1201,2.1212,2.1416,2.1523,2.1523,2.1523,2.167,2.1904,2.209,2.2158,2.2217,2.2604,2.2666,2.2578,2.2955,2.2974,2.2621,2.1621,2.1302,2.08,1.8365,1.7692,1.7412,1.6109,1.5784,1.5784,1.5784,1.5784,1.5784,1.5784,1.5784,1.5784,1.5784,1.5939,1.6172,1.6627,1.6814,1.7054,1.7515,1.7582,1.7582,1.7582,1.7582,1.7582,1.7582,1.7582,1.7582,1.7582,1.7582,1.7582,1.7582,1.7582,1.7582,1.7582,1.7582,1.7582,1.7582,1.7582,1.7582,1.7582,1.7582,1.7582,1.7582,1.7582,1.7582,2.754,2.8959,3.0156,3.0443,3.1013,3.154,3.172,3.163,3.1511,3.1511,3.1511,3.1511,3.1511,3.1511,3.1511,3.1511,3.1511,3.1511,3.1511,3.1511,3.1511,3.1511,3.1511,3.1511,3.1511,3.097,3.0178,2.9097,2.8395,2.7571,2.6555,2.6499,2.6499,2.6499,2.6499,2.6499,2.6499,2.6499,2.6383,2.6094,2.4325,2.3368,2.3073,2.1385,2.0605,2.0625,2.0918,2.0869,2.0635,2.0928,2.1064,2.1064,2.1064,2.126,2.1562,2.168,2.1719,2.1787,2.2207,2.2353,2.2422,2.2799,2.2751,2.2261,2.1176,2.0621,1.9943,1.7816,1.7225,1.699,1.6062,1.5784,1.5784,1.5784,1.5784,1.5784,1.5784,1.5784,1.5852,1.5925,1.5939,1.6132,1.672,1.682,1.6994,1.7508,1.7582,1.7582,1.7582,1.7582,1.7582,1.7582,1.7582,1.7582,1.7582,1.7582,1.7582,1.7582,1.7582,1.7582,1.7582,1.7582,1.7582,1.7582,1.7582,1.7582,1.7582,1.7582,1.7582,1.7582,1.7582,1.7582,2.6802,2.8196,2.9709,3.0877,3.1322,3.1675,3.2288,3.1959,3.1511,3.1511,3.1511,3.1511,3.1511,3.1511,3.1511,3.1511,3.1511,3.1511,3.1511,3.1511,3.1511,3.1511,3.1511,3.1511,3.1511,3.1467,3.0777,2.9129,2.8971,2.8214,2.6589,2.6499,2.6499,2.6499,2.6499,2.6499,2.6499,2.6499,2.6025,2.5087,2.4,2.2999,2.2027,2.1039,2.0605,2.0605,2.0625,2.0625,2.0605,2.0635,2.0635,2.0635,2.0635,2.0654,2.0723,2.1113,2.1229,2.1288,2.1768,2.1924,2.1992,2.2412,2.1773,2.0684,1.9842,1.8772,1.7591,1.6244,1.592,1.5872,1.5825,1.5784,1.5784,1.5784,1.5784,1.5784,1.5784,1.5784,1.5912,1.6192,1.6253,1.6489,1.7079,1.7179,1.728,1.7535,1.7582,1.7582,1.7582,1.7582,1.7582,1.7582,1.7582,1.7582,1.7582,1.7582,1.7582,1.7582,1.7582,1.7582,1.7582,1.7582,1.7582,1.7582,1.7582,1.7582,1.7582,1.7582,1.7582,1.7582,1.7582,1.7582,2.4981,2.6144,2.7461,2.8251,2.9298,3.0338,3.0923,3.1294,3.1511,3.1511,3.1511,3.1511,3.1511,3.1511,3.1511,3.1511,3.1511,3.1511,3.1511,3.1511,3.1511,3.1511,3.1511,3.1511,3.1511,3.1029,3.0238,2.9097,0.0,2.767,2.6555,2.6499,2.6499,2.6499,2.6499,2.6499,2.6499,2.5873,2.537,2.4969,2.3331,2.2366,2.1952,2.1039,2.0605,2.0605,2.0605,2.0605,2.0605,2.0605,2.0605,2.0605,2.0605,2.0605,2.0625,2.0742,2.0801,2.0869,2.1309,2.1465,2.1543,2.1973,2.1797,2.1123,1.9331,1.8613,1.8031,1.6095,1.5685,1.5784,1.5784,1.5784,1.5784,1.5784,1.5784,1.5784,1.5784,1.5784,1.5865,1.5965,1.6146,1.64,1.6794,1.7072,1.73,1.7542,1.7582,1.7582,1.7582,1.7582,1.7582,1.7582,1.7582,1.7582,1.7582,1.7582,1.7582,1.7582,1.7582,1.7582,1.7582,1.7582,1.7582,1.7582,1.7582,1.7582,1.7582,1.7582,1.7582,1.7582,1.7582,1.7582,2.3879,2.4872,2.6034,2.6982,2.8106,2.9266,3.0242,3.0944,3.1397,3.1383,3.1619,3.1765,3.154,3.1511,3.1511,3.1511,3.1511,3.1511,3.1511,3.1511,3.1511,3.1511,3.1511,3.1511,3.1511,3.0777,2.995,2.9066,0.0,0.0,2.6521,2.6499,2.6499,2.6499,2.6499,2.6499,2.6499,2.5511,2.4826,2.4492,2.2813,2.1849,2.1517,2.0895,2.0605,2.0605,2.0605,2.0605,2.0605,2.0605,2.0605,2.0605,2.0605,2.0605,2.0605,2.0605,2.0605,2.0644,2.0908,2.1103,2.1268,2.1748,2.1358,2.0455,1.9184,1.8241,1.7372,1.5922,1.5678,1.5784,1.5784,1.5784,1.5784,1.5784,1.5784,1.5784,1.5784,1.5784,1.5811,1.5959,1.6139,1.64,1.6787,1.7072,1.73,1.7542,1.7582,1.7582,1.7582,1.7582,1.7582,1.7582,1.7582,1.7582,1.7582,1.7582,1.7582,1.7582,1.7582,1.7582,1.7582,1.7582,1.7582,1.7582,1.7582,1.7582,1.7582,1.7582,1.7582,1.7582,1.7582,1.7582,0.0,0.0,0.0,2.7319,2.7958,2.855,3.0281,3.0884,3.1089,3.1022,3.176,3.2199,3.1557,3.1424,3.1468,3.1467,3.1467,3.1511,3.1511,3.1511,3.1511,3.1511,3.1511,3.1511,3.1467,3.0748,2.9889,0.0,2.8149,2.7317,2.6521,2.6499,2.6499,2.6499,2.6499,2.6499,2.6499,2.5476,2.4456,2.3478,2.244,2.1479,2.0605,2.0605,2.0605,2.0605,2.0605,2.0605,2.0605,2.0605,2.0605,2.0605,2.0605,2.0605,2.0605,2.0605,2.0605,2.0605,2.0605,2.085,2.1249,2.1709,2.0289,1.8574,1.9232,1.7598,1.5497,1.5738,1.5771,1.5784,1.5784,1.5784,1.5784,1.5784,1.5784,1.5784,1.5784,1.5784,1.5912,1.6206,1.6315,1.6502,1.7085,1.7192,1.73,1.7542,1.7582,1.7582,1.7582,1.7582,1.7582,1.7582,1.7582,1.7582,1.7582,1.7582,1.7582,1.7582,1.7582,1.7582,1.7582,1.7582,1.7582,1.7582,1.7582,1.7582,1.7582,1.7582,1.7582,1.7582,1.7582,1.7582,2.2288,0.0,0.0,0.0,0.0,0.0,2.7694,2.8198,2.8617,2.9404,2.9788,2.9902,2.9732,2.9995,3.0353,3.0597,3.1117,3.1511,3.1511,3.1511,3.1511,3.1511,3.1511,3.1278,3.0673,2.9858,0.0,0.0,2.7284,2.6714,2.6499,2.6499,2.6499,2.6499,2.6499,2.6499,2.6499,2.4767,2.3781,2.3478,2.1783,2.0857,2.0605,2.0605,2.0605,2.0605,2.0605,2.0605,2.0605,2.0605,2.0605,2.0605,2.0605,2.0605,2.0605,2.0605,2.0605,2.0605,2.0605,2.0683,2.0771,2.0928,2.0139,1.9035,1.8437,1.7482,1.6433,1.5716,1.5665,1.5784,1.5784,1.5784,1.5784,1.5784,1.5784,1.5784,1.5784,1.5784,1.5804,1.5939,1.6126,1.6393,1.676,1.7058,1.73,1.7542,1.7582,1.7582,1.7582,1.7582,1.7582,1.7582,1.7582,1.7582,1.7582,1.7582,1.7582,1.7582,1.7582,1.7582,1.7582,1.7582,1.7582,1.7582,1.7582,1.7582,1.7582,1.7582,1.7582,1.7582,1.7582,1.7582,2.1426,2.2081,2.2762,2.353,0.0,0.0,2.6466,2.7181,2.7799,2.8609,2.915,2.9407,2.9343,2.96,2.9938,3.0355,3.0828,3.1225,3.1454,3.0896,3.0671,3.1263,3.1007,3.0627,3.0148,2.9297,2.8489,2.7749,2.6939,2.6386,2.6147,2.6361,2.6386,2.6135,2.6361,2.6499,2.6499,2.4516,2.3514,2.3489,2.1527,2.0605,2.0605,2.0605,2.0605,2.0605,2.0605,2.0605,2.0605,2.0605,2.0605,2.0605,2.0605,2.0605,2.0605,2.0605,2.0605,2.0605,2.0605,2.0605,2.0664,2.1036,2.0036,1.8714,1.8553,1.7509,1.6218,1.5724,1.5698,1.5784,1.5784,1.5784,1.5784,1.5784,1.5784,1.5784,1.5784,1.5784,1.5784,1.5784,1.6072,1.6366,1.6653,1.7005,1.73,1.7542,1.7582,1.7582,1.7582,1.7582,1.7582,1.7582,1.7582,1.7582,1.7582,1.7582,1.7582,1.7582,1.7582,1.7582,1.7582,1.7582,1.7582,1.7582,1.7582,1.7582,1.7582,1.7582,1.7582,1.7582,1.7582,1.7582,2.0905,2.1808,2.2606,2.2968,2.3763,0.0,2.5827,2.6699,2.7459,2.799,2.8811,2.9383,2.9321,2.9403,2.9594,3.0125,3.0215,3.0521,3.1293,3.0119,2.9627,3.0888,3.0354,2.9833,2.9767,2.8986,2.8289,2.7715,2.6943,2.6273,2.5724,2.6223,2.626,2.5711,2.6223,2.6499,2.6499,2.4516,2.3514,2.3489,2.1527,2.0605,2.0605,2.0605,2.0605,2.0605,2.0605,2.0605,2.0605,2.0605,2.0605,2.0605,2.0605,2.0605,2.0605,2.0605,2.0605,2.0605,2.0605,2.0527,2.0537,2.137,1.9835,1.788,1.8909,1.743,1.5498,1.5711,1.5784,1.5784,1.5784,1.5784,1.5784,1.5784,1.5784,1.5784,1.5784,1.5784,1.5784,1.5784,1.6046,1.6326,1.6653,1.6978,1.7259,1.7535,1.7582,1.7582,1.7582,1.7582,1.7582,1.7582,1.7582,1.7582,1.7582,1.7582,1.7582,1.7582,1.7582,1.7582,1.7582,1.7582,1.7582,1.7582,1.7582,1.7582,1.7582,1.7582,1.7582,1.7582,1.7582,1.7582,2.0561,2.1119,2.1509,2.1587,2.2026,0.0,2.3293,2.3494,2.392,2.5244,2.5697,2.5954,2.6345,2.6819,2.7248,2.7563,2.7801,2.8616,3.051,3.0472,3.0394,3.0638,3.0551,3.0195,2.9558,2.8866,2.8186,2.7421,2.6842,2.6449,2.6336,2.6436,2.6449,2.6336,2.6436,2.6499,2.6499,2.4516,2.3514,2.3489,2.1527,2.0605,2.0605,2.0605,2.0605,2.0605,2.0605,2.0605,2.0605,2.0605,2.0605,2.0605,2.0605,2.0605,2.0605,2.0605,2.0605,2.0605,2.0605,2.004,1.9396,1.9752,1.8507,1.6931,1.7341,1.6686,1.5711,1.5764,1.5784,1.5784,1.5784,1.5784,1.5784,1.5784,1.5784,1.5784,1.5784,1.5784,1.5784,1.5784,1.5831,1.6086,1.6613,1.6754,1.6974,1.7502,1.7582,1.7582,1.7582,1.7582,1.7582,1.7582,1.7582,1.7582,1.7582,1.7582,1.7582,1.7582,1.7582,1.7582,1.7582,1.7582,1.7582,1.7582,1.7582,1.7582,1.7582,1.7582,1.7582,1.7582,1.7582,1.7582,2.0193,2.075,2.1276,2.1228,2.1598,0.0,0.0,2.213,2.2296,2.3593,2.3659,2.3874,2.5091,2.5375,2.5769,2.6909,2.7446,2.8094,2.9214,2.9359,2.9592,3.0328,3.0016,2.9578,2.9207,2.89,2.8288,2.7354,2.6801,2.6361,2.6084,2.6336,2.6361,2.6072,2.6348,2.6499,2.6499,2.4516,2.3514,2.3489,2.1527,2.0605,2.0605,2.0605,2.0605,2.0605,2.0605,2.0605,2.0605,2.0605,2.0605,2.0605,2.0605,2.0605,2.0605,2.0605,2.0605,2.0527,2.0001,1.9441,1.898,1.8754,1.7736,1.6647,1.7019,1.6494,1.5784,1.5784,1.5784,1.5784,1.5784,1.5784,1.5784,1.5784,1.5784,1.5784,1.5784,1.5784,1.5784,1.5784,1.5784,1.5964,1.6607,1.6827,1.7074,1.7515,1.7582,1.7582,1.7582,1.7582,1.7582,1.7582,1.7582,1.7582,1.7582,1.7582,1.7582,1.7582,1.7582,1.7582,1.7582,1.7582,1.7582,1.7582,1.7582,1.7582,1.7582,1.7582,1.7582,1.7582,1.7582,1.7508,2.0039,2.0622,2.1192,2.0906,2.1214,2.1594,0.0,0.0,0.0,2.2261,2.2161,2.2389,2.4026,2.4012,2.4263,2.591,0.0,0.0,0.0,2.7274,0.0,2.9749,2.9451,2.9051,2.9051,2.8963,2.8511,2.7519,2.6964,2.6449,2.5937,2.6298,2.6285,2.5774,2.6248,2.6418,2.6198,2.4397,2.336,2.3088,2.1329,2.0478,2.0478,2.0478,2.0527,2.0605,2.0605,2.0605,2.0605,2.0605,2.0605,2.0605,2.0605,2.0605,2.0605,2.0605,2.0605,2.045,1.9362,1.8877,1.8571,1.7846,1.7063,1.6447,1.6799,1.6404,1.5784,1.5784,1.5784,1.5784,1.5784,1.5784,1.5784,1.5784,1.5784,1.5784,1.5784,1.5784,1.5784,1.5784,1.5784,1.5964,1.6607,1.6907,1.7233,1.7528,1.7582,1.7582,1.7582,1.7582,1.7582,1.7582,1.7582,1.7582,1.7582,1.7582,1.7582,1.7582,1.7582,1.7582,1.7582,1.7582,1.7582,1.7582,1.7582,1.7582,1.7582,1.7582,1.7582,1.7582,1.7522,1.7427,2.0537,2.0604,2.0494,1.9725,1.9848,2.0036,1.9706,0.0,2.0226,2.0741,0.0,2.0992,2.1676,0.0,0.0,2.2035,0.0,0.0,2.352,2.4299,2.592,2.87,2.9416,2.9691,0.0,2.9189,2.8637,2.8059,2.7507,2.719,2.7092,2.6725,2.6461,2.6399,2.6461,2.606,2.5194,2.4072,2.2864,2.1623,2.0497,1.999,1.999,1.999,2.0195,2.0605,2.0605,2.0605,2.0605,2.0605,2.0605,2.0605,2.0605,2.0605,2.0605,2.0605,2.0605,2.045,1.9362,1.835,1.7351,1.6584,1.5964,1.5575,1.5873,1.5893,1.5784,1.5784,1.5784,1.5784,1.5784,1.5784,1.5784,1.5784,1.5784,1.5784,1.5784,1.5784,1.5784,1.5784,1.5784,1.5964,1.6607,1.6734,1.6941,1.7495,1.7582,1.7582,1.7582,1.7582,1.7582,1.7582,1.7582,1.7582,1.7582,1.7582,1.7582,1.7582,1.7582,1.7582,1.7582,1.7582,1.7582,1.7582,1.7582,1.7582,1.7582,1.7582,1.7582,1.7575,1.7373,1.7233,2.0605,2.0381,2.0098,1.9736,1.9377,1.9095,1.8928,1.8851,1.8913,1.9349,0.0,0.0,0.0,0.0,0.0,0.0,2.2049,0.0,0.0,0.0,2.5113,2.7768,0.0,0.0,0.0,0.0,0.0,0.0,2.8072,2.762,2.7341,2.7102,2.6826,2.6499,2.5921,2.5284,2.4598,2.3053,2.1882,2.1039,2.0046,1.9551,1.9561,1.9805,2.0019,2.0185,2.0185,2.037,2.0586,2.0293,1.9976,1.9678,1.9678,2.004,2.044,1.9155,1.9107,1.9432,1.769,1.6764,1.6283,1.5677,1.5332,1.5231,1.5691,1.5784,1.5784,1.5784,1.5784,1.5784,1.5784,1.5784,1.5784,1.5784,1.5784,1.5784,1.5784,1.5784,1.5784,1.5784,1.5784,1.5959,1.6386,1.6593,1.6847,1.732,1.7475,1.7582,1.7582,1.7582,1.7582,1.7582,1.7582,1.7582,1.7582,1.7582,1.7582,1.7582,1.7582,1.7582,1.7582,1.7474,1.738,1.738,1.738,1.738,1.738,1.7502,1.7582,1.7575,1.7333,1.7112,1.9995,0.0,1.9883,1.9775,0.0,1.8724,1.8481,1.8286,1.8237,1.8539,0.0,0.0,0.0,0.0,1.9581,2.0482,0.0,2.1205,0.0,2.1933,0.0,0.0,0.0,0.0,0.0,0.0,0.0,0.0,0.0,2.7812,2.7135,2.7249,2.6924,2.6107,2.537,2.4637,2.3908,2.224,2.1,2.0189,1.9461,1.9111,1.9121,1.9424,1.9592,1.9746,1.9863,2.0088,2.041,2.0176,1.9648,1.8957,1.8678,1.8997,1.9511,1.79,1.7819,1.827,1.6347,1.5496,1.5238,1.5072,1.5008,1.5115,1.5651,1.5784,1.5784,1.5784,1.5784,1.5784,1.5784,1.5784,1.5784,1.5784,1.5784,1.5784,1.5784,1.5784,1.5784,1.5784,1.5784,1.5899,1.6112,1.6393,1.6714,1.7146,1.738,1.7514,1.7514,1.7528,1.7555,1.7521,1.7535,1.7582,1.7582,1.7582,1.7549,1.7521,1.7514,1.7428,1.7348,1.7266,1.7166,1.7079,1.7159,1.7199,1.7199,1.7494,1.7582,1.7575,1.7253,1.6914,0.0,0.0,0.0,1.9404,0.0,0.0,0.0,0.0,1.8588,0.0,0.0,0.0,1.9304,1.9294,1.9183,1.8772,1.8713,0.0,0.0,1.8752,2.0048,0.0,0.0,0.0,0.0,2.6663,2.7306,0.0,2.8411,0.0,2.669,2.7064,2.6616,2.5099,2.5016,2.4319,2.295,2.1937,2.0483,1.8652,1.8652,1.8627,1.8627,1.8637,1.887,1.9336,1.9736,1.9922,1.9971,2.0419,1.9943,1.8877,1.7787,1.7374,1.7415,1.7342,1.7334,1.7212,1.6067,1.5019,1.4267,1.4814,1.5008,1.5115,1.5651,1.5784,1.5784,1.5784,1.5784,1.5784,1.5784,1.5784,1.5784,1.5784,1.5784,1.5784,1.5784,1.5784,1.5784,1.5784,1.5784,1.5784,1.5791,1.6092,1.6536,1.7112,1.7206,1.7213,1.7213,1.746,1.7475,1.7246,1.7467,1.7582,1.7582,1.7582,1.7514,1.7233,1.7213,1.7085,1.6747,1.7052,1.7065,1.6727,1.7052,1.7199,1.7199,1.7494,1.7582,1.7569,1.6987,1.6714,0.0,0.0,1.7217,1.7228,0.0,0.0,0.0,0.0,0.0,0.0,0.0,0.0,0.0,1.7729,1.8193,1.8009,1.8345,1.8598,0.0,1.8598,0.0,2.017,2.2951,2.4831,0.0,0.0,0.0,0.0,2.6691,0.0,0.0,2.568,2.5243,2.4022,2.3368,2.2659,2.1901,2.0637,1.9525,1.8598,1.8325,1.8188,1.8198,1.8481,1.8685,1.8831,1.8968,1.9228,1.9446,1.8665,1.8006,1.7398,1.6381,1.5639,1.5186,1.5186,1.5628,1.6075,1.5019,1.4412,1.4155,1.4543,1.4669,1.4783,1.5364,1.5545,1.5585,1.5724,1.5784,1.5784,1.5784,1.5784,1.5784,1.5784,1.5784,1.5784,1.5784,1.5784,1.5784,1.5784,1.5784,1.5784,1.5784,1.5912,1.6112,1.6563,1.6784,1.6854,1.6854,1.6941,1.6967,1.6867,1.7172,1.7266,1.7021,1.7001,1.6961,1.686,1.6854,1.6807,1.6707,1.662,1.6613,1.67,1.6807,1.7005,1.7199,1.7494,1.7582,1.7569,1.6981,1.6707,1.593,1.5753,0.0,1.6009,1.5728,0.0,1.5569,0.0,1.5609,0.0,0.0,0.0,0.0,1.692,1.7447,1.7066,1.7414,1.7794,0.0,1.7891,1.8063,1.8543,2.112,2.2971,2.3244,2.377,2.4487,2.5419,2.5514,0.0,0.0,0.0,2.447,2.3246,2.2413,2.1817,2.1403,1.9995,1.9072,1.8598,1.8178,1.8008,1.8018,1.8256,1.8383,1.8383,1.8539,1.8576,1.8501,1.7853,1.7054,1.6166,1.566,1.4882,1.4088,1.4088,1.4531,1.5012,1.4328,1.4088,1.4135,1.4429,1.4522,1.4609,1.5097,1.5311,1.5438,1.5625,1.5752,1.5784,1.5784,1.5784,1.5784,1.5784,1.5784,1.5784,1.5784,1.5784,1.5784,1.5784,1.5784,1.5784,1.5784,1.5784,1.5925,1.6226,1.6433,1.6553,1.6553,1.664,1.6667,1.656,1.6814,1.6914,1.672,1.6613,1.6553,1.6553,1.6553,1.65,1.64,1.6313,1.6359,1.6547,1.6653,1.6854,1.7199,1.7387,1.7534,1.7562,1.6874,1.666]}]]